<?xml version="1.0" encoding="UTF-8" standalone="no" ?>
<gpx xmlns="http://www.topografix.com/GPX/1/1" xmlns:xsi="http://www.w3.org/2001/XMLSchema-instance" xsi:schemaLocation="http://www.topografix.com/GPX/1/1 http://www.topografix.com/GPX/1/1/gpx.xsd" version="1.1" creator="VisuGPX - https://www.visugpx.com">
  <metadata>
    <name>suce_BoucleNordOuestBis_21km</name>
    <desc><![CDATA[gnerando idor: 5548821_9731105_9730670]]></desc>
  </metadata>
  <wpt lat="47.34259" lon="-1.53106">
    <ele>21.3</ele>
    <name><![CDATA[0001488]]></name>
    <type><![CDATA[Point de départ]]></type>
  </wpt>
  <wpt lat="47.34254" lon="-1.53112">
    <ele>21.1</ele>
    <name><![CDATA[0001489]]></name>
    <desc><![CDATA[<p><br /><h3>Nom: Segment: 1</h3><br />Heure de départ: 12/03/2023 14:02<br/>Heure d'arrivée: 12/03/2023 16:09<br/>Distance: 11,1km (02:07)<br/>Temps déplacement: 02:04<br/>Vitesse moyenne: 5,24 km/h<br/>Vitesse moyenne mouv.: 5,36 km/h<br/>Vitesse Max.: 8,1 km/h<br/>Altitude minimale: 3 m<br/>Altitude maximale: 38 m<br/>Vitesse de montée: 127 m/h<br/>Vitesse de descente: -156,2 m/h<br/>Gain d'altitude: 121 m<br/>Perte d'altitude: -121 m<br/>Temps de montée: 00:57<br/>Temps de descente: 00:46<br/></p>]]></desc>
    <type><![CDATA[Point d'arrivée]]></type>
  </wpt>
  <trk>
    <name><![CDATA[Suce_BoucleNordOuest_20.9km-11431393]]></name>
    <extensions>
      <line xmlns="http://www.topografix.com/GPX/gpx_style/0/2">
        <color>0000FF</color>
        <width>6</width>
      </line>
    </extensions>
    <trkseg>
      <trkpt lat="47.34248" lon="-1.53097">
        <ele>20</ele>
        <time>2024-02-04T11:52:13Z</time>
        <extensions>
          <visugpx:TrkExtension xmlns:visugpx="https://www.visugpx.com/editgpx/">
            <visugpx:node>1</visugpx:node>
            </visugpx:TrkExtension>
        </extensions>
      </trkpt>
      <trkpt lat="47.3426" lon="-1.5307">
        <ele>20</ele>
        <time>2024-02-04T11:52:42Z</time>
      </trkpt>
      <trkpt lat="47.34278" lon="-1.53053">
        <ele>21</ele>
        <time>2024-02-04T11:53:11Z</time>
      </trkpt>
      <trkpt lat="47.34291" lon="-1.52999">
        <ele>20</ele>
        <time>2024-02-04T11:54:03Z</time>
      </trkpt>
      <trkpt lat="47.34286" lon="-1.52967">
        <ele>20</ele>
        <time>2024-02-04T11:54:32Z</time>
      </trkpt>
      <trkpt lat="47.34318" lon="-1.52926">
        <ele>20</ele>
        <time>2024-02-04T11:55:29Z</time>
      </trkpt>
      <trkpt lat="47.34352" lon="-1.52898">
        <ele>20</ele>
        <time>2024-02-04T11:56:21Z</time>
      </trkpt>
      <trkpt lat="47.34367" lon="-1.52879">
        <ele>20</ele>
        <time>2024-02-04T11:56:47Z</time>
      </trkpt>
      <trkpt lat="47.34385" lon="-1.52863">
        <ele>20</ele>
        <time>2024-02-04T11:57:15Z</time>
      </trkpt>
      <trkpt lat="47.34395" lon="-1.52841">
        <ele>20</ele>
        <time>2024-02-04T11:57:39Z</time>
      </trkpt>
      <trkpt lat="47.34394" lon="-1.52811">
        <ele>20</ele>
        <time>2024-02-04T11:58:06Z</time>
      </trkpt>
      <trkpt lat="47.34398" lon="-1.52783">
        <ele>20</ele>
        <time>2024-02-04T11:58:32Z</time>
      </trkpt>
      <trkpt lat="47.34405" lon="-1.52755">
        <ele>20</ele>
        <time>2024-02-04T11:58:59Z</time>
      </trkpt>
      <trkpt lat="47.34417" lon="-1.52731">
        <ele>20</ele>
        <time>2024-02-04T11:59:26Z</time>
      </trkpt>
      <trkpt lat="47.34415" lon="-1.52703">
        <ele>21</ele>
        <time>2024-02-04T11:59:52Z</time>
      </trkpt>
      <trkpt lat="47.34427" lon="-1.5268">
        <ele>21</ele>
        <time>2024-02-04T12:00:18Z</time>
      </trkpt>
      <trkpt lat="47.34455" lon="-1.52638">
        <ele>21</ele>
        <time>2024-02-04T12:01:11Z</time>
      </trkpt>
      <trkpt lat="47.345" lon="-1.52562">
        <ele>22</ele>
        <time>2024-02-04T12:02:42Z</time>
      </trkpt>
      <trkpt lat="47.34582" lon="-1.52467">
        <ele>24</ele>
        <time>2024-02-04T12:05:01Z</time>
      </trkpt>
      <trkpt lat="47.34595" lon="-1.52446">
        <ele>24</ele>
        <time>2024-02-04T12:05:27Z</time>
      </trkpt>
      <trkpt lat="47.34611" lon="-1.52433">
        <ele>24</ele>
        <time>2024-02-04T12:05:52Z</time>
      </trkpt>
      <trkpt lat="47.34629" lon="-1.5243">
        <ele>24</ele>
        <time>2024-02-04T12:06:16Z</time>
      </trkpt>
      <trkpt lat="47.34651" lon="-1.52432">
        <ele>24</ele>
        <time>2024-02-04T12:06:45Z</time>
      </trkpt>
      <trkpt lat="47.34688" lon="-1.52428">
        <ele>24</ele>
        <time>2024-02-04T12:07:35Z</time>
      </trkpt>
      <trkpt lat="47.34733" lon="-1.5243">
        <ele>24</ele>
        <time>2024-02-04T12:08:35Z</time>
      </trkpt>
      <trkpt lat="47.34751" lon="-1.52427">
        <ele>24</ele>
        <time>2024-02-04T12:08:59Z</time>
      </trkpt>
      <trkpt lat="47.34773" lon="-1.52431">
        <ele>24</ele>
        <time>2024-02-04T12:09:28Z</time>
      </trkpt>
      <trkpt lat="47.34789" lon="-1.52487">
        <ele>25</ele>
        <time>2024-02-04T12:10:23Z</time>
      </trkpt>
      <trkpt lat="47.34801" lon="-1.5251">
        <ele>26</ele>
        <time>2024-02-04T12:10:50Z</time>
      </trkpt>
      <trkpt lat="47.34842" lon="-1.52517">
        <ele>26</ele>
        <time>2024-02-04T12:11:45Z</time>
      </trkpt>
      <trkpt lat="47.34882" lon="-1.52519">
        <ele>26</ele>
        <time>2024-02-04T12:12:38Z</time>
      </trkpt>
      <trkpt lat="47.34925" lon="-1.52529">
        <ele>26</ele>
        <time>2024-02-04T12:13:36Z</time>
      </trkpt>
      <trkpt lat="47.34946" lon="-1.52539">
        <ele>26</ele>
        <time>2024-02-04T12:14:06Z</time>
      </trkpt>
      <trkpt lat="47.34969" lon="-1.52534">
        <ele>26</ele>
        <time>2024-02-04T12:14:37Z</time>
      </trkpt>
      <trkpt lat="47.35022" lon="-1.52493">
        <ele>25</ele>
        <time>2024-02-04T12:15:57Z</time>
      </trkpt>
      <trkpt lat="47.3504" lon="-1.52482">
        <ele>25</ele>
        <time>2024-02-04T12:16:23Z</time>
      </trkpt>
      <trkpt lat="47.3506" lon="-1.52474">
        <ele>25</ele>
        <time>2024-02-04T12:16:50Z</time>
      </trkpt>
      <trkpt lat="47.35094" lon="-1.52452">
        <ele>24</ele>
        <time>2024-02-04T12:17:40Z</time>
      </trkpt>
      <trkpt lat="47.35111" lon="-1.52436">
        <ele>23</ele>
        <time>2024-02-04T12:18:07Z</time>
      </trkpt>
      <trkpt lat="47.35123" lon="-1.52412">
        <ele>23</ele>
        <time>2024-02-04T12:18:34Z</time>
      </trkpt>
      <trkpt lat="47.3513" lon="-1.52381">
        <ele>22</ele>
        <time>2024-02-04T12:19:03Z</time>
      </trkpt>
      <trkpt lat="47.35135" lon="-1.5232">
        <ele>21</ele>
        <time>2024-02-04T12:19:59Z</time>
      </trkpt>
      <trkpt lat="47.35151" lon="-1.52303">
        <ele>21</ele>
        <time>2024-02-04T12:20:25Z</time>
      </trkpt>
      <trkpt lat="47.35169" lon="-1.52307">
        <ele>20</ele>
        <time>2024-02-04T12:20:49Z</time>
      </trkpt>
      <trkpt lat="47.35251" lon="-1.52312">
        <ele>13</ele>
        <time>2024-02-04T12:22:39Z</time>
      </trkpt>
      <trkpt lat="47.35272" lon="-1.52317">
        <ele>12</ele>
        <time>2024-02-04T12:23:07Z</time>
      </trkpt>
      <trkpt lat="47.35295" lon="-1.52308">
        <ele>12</ele>
        <time>2024-02-04T12:23:39Z</time>
      </trkpt>
      <trkpt lat="47.35329" lon="-1.52282">
        <ele>11</ele>
        <time>2024-02-04T12:24:30Z</time>
      </trkpt>
      <trkpt lat="47.35402" lon="-1.52241">
        <ele>17</ele>
        <time>2024-02-04T12:26:14Z</time>
      </trkpt>
      <trkpt lat="47.35423" lon="-1.52233">
        <ele>18</ele>
        <time>2024-02-04T12:26:43Z</time>
      </trkpt>
      <trkpt lat="47.35442" lon="-1.52216">
        <ele>20</ele>
        <time>2024-02-04T12:27:13Z</time>
      </trkpt>
      <trkpt lat="47.35456" lon="-1.52194">
        <ele>20</ele>
        <time>2024-02-04T12:27:40Z</time>
      </trkpt>
      <trkpt lat="47.35468" lon="-1.52168">
        <ele>21</ele>
        <time>2024-02-04T12:28:09Z</time>
      </trkpt>
      <trkpt lat="47.35489" lon="-1.52151">
        <ele>21</ele>
        <time>2024-02-04T12:28:41Z</time>
      </trkpt>
      <trkpt lat="47.35508" lon="-1.52141">
        <ele>21</ele>
        <time>2024-02-04T12:29:08Z</time>
      </trkpt>
      <trkpt lat="47.35532" lon="-1.52139">
        <ele>21</ele>
        <time>2024-02-04T12:29:40Z</time>
      </trkpt>
      <trkpt lat="47.35575" lon="-1.52125">
        <ele>21</ele>
        <time>2024-02-04T12:30:38Z</time>
      </trkpt>
      <trkpt lat="47.35609" lon="-1.52098">
        <ele>20</ele>
        <time>2024-02-04T12:31:30Z</time>
      </trkpt>
      <trkpt lat="47.35632" lon="-1.52104">
        <ele>19</ele>
        <time>2024-02-04T12:32:01Z</time>
      </trkpt>
      <trkpt lat="47.35648" lon="-1.52121">
        <ele>18</ele>
        <time>2024-02-04T12:32:27Z</time>
      </trkpt>
      <trkpt lat="47.35708" lon="-1.52168">
        <ele>16</ele>
        <time>2024-02-04T12:33:58Z</time>
      </trkpt>
      <trkpt lat="47.35727" lon="-1.52186">
        <ele>16</ele>
        <time>2024-02-04T12:34:28Z</time>
      </trkpt>
      <trkpt lat="47.35846" lon="-1.5227">
        <ele>14</ele>
        <time>2024-02-04T12:37:24Z</time>
      </trkpt>
      <trkpt lat="47.35869" lon="-1.52266">
        <ele>14</ele>
        <time>2024-02-04T12:37:55Z</time>
      </trkpt>
      <trkpt lat="47.35911" lon="-1.52248">
        <ele>14</ele>
        <time>2024-02-04T12:38:53Z</time>
      </trkpt>
      <trkpt lat="47.35929" lon="-1.52269">
        <ele>14</ele>
        <time>2024-02-04T12:39:24Z</time>
      </trkpt>
      <trkpt lat="47.35941" lon="-1.52292">
        <ele>14</ele>
        <time>2024-02-04T12:39:50Z</time>
      </trkpt>
      <trkpt lat="47.35958" lon="-1.5227">
        <ele>13</ele>
        <time>2024-02-04T12:40:20Z</time>
      </trkpt>
      <trkpt lat="47.35993" lon="-1.52233">
        <ele>12</ele>
        <time>2024-02-04T12:41:18Z</time>
      </trkpt>
      <trkpt lat="47.36013" lon="-1.52224">
        <ele>11</ele>
        <time>2024-02-04T12:41:46Z</time>
      </trkpt>
      <trkpt lat="47.36033" lon="-1.52222">
        <ele>11</ele>
        <time>2024-02-04T12:42:13Z</time>
      </trkpt>
      <trkpt lat="47.36054" lon="-1.52227">
        <ele>11</ele>
        <time>2024-02-04T12:42:41Z</time>
      </trkpt>
      <trkpt lat="47.36077" lon="-1.52224">
        <ele>10</ele>
        <time>2024-02-04T12:43:12Z</time>
      </trkpt>
      <trkpt lat="47.36096" lon="-1.52232">
        <ele>10</ele>
        <time>2024-02-04T12:43:38Z</time>
      </trkpt>
      <trkpt lat="47.36117" lon="-1.52236">
        <ele>11</ele>
        <time>2024-02-04T12:44:06Z</time>
      </trkpt>
      <trkpt lat="47.36138" lon="-1.52244">
        <ele>11</ele>
        <time>2024-02-04T12:44:35Z</time>
      </trkpt>
      <trkpt lat="47.36203" lon="-1.5226">
        <ele>11</ele>
        <time>2024-02-04T12:46:03Z</time>
      </trkpt>
      <trkpt lat="47.3622" lon="-1.52271">
        <ele>11</ele>
        <time>2024-02-04T12:46:28Z</time>
      </trkpt>
      <trkpt lat="47.36237" lon="-1.5229">
        <ele>11</ele>
        <time>2024-02-04T12:46:56Z</time>
      </trkpt>
      <trkpt lat="47.36275" lon="-1.52402">
        <ele>12</ele>
        <time>2024-02-04T12:48:50Z</time>
      </trkpt>
      <trkpt lat="47.36299" lon="-1.52453">
        <ele>11</ele>
        <time>2024-02-04T12:49:46Z</time>
      </trkpt>
      <trkpt lat="47.36321" lon="-1.52509">
        <ele>10</ele>
        <time>2024-02-04T12:50:44Z</time>
      </trkpt>
      <trkpt lat="47.36338" lon="-1.52523">
        <ele>10</ele>
        <time>2024-02-04T12:51:10Z</time>
      </trkpt>
      <trkpt lat="47.36358" lon="-1.52544">
        <ele>10</ele>
        <time>2024-02-04T12:51:43Z</time>
      </trkpt>
      <trkpt lat="47.36418" lon="-1.52639">
        <ele>8</ele>
        <time>2024-02-04T12:53:40Z</time>
      </trkpt>
      <trkpt lat="47.36437" lon="-1.52633">
        <ele>8</ele>
        <time>2024-02-04T12:54:06Z</time>
      </trkpt>
      <trkpt lat="47.36476" lon="-1.5263">
        <ele>8</ele>
        <time>2024-02-04T12:54:59Z</time>
      </trkpt>
      <trkpt lat="47.36516" lon="-1.52611">
        <ele>9</ele>
        <time>2024-02-04T12:55:55Z</time>
      </trkpt>
      <trkpt lat="47.36535" lon="-1.52598">
        <ele>10</ele>
        <time>2024-02-04T12:56:23Z</time>
      </trkpt>
      <trkpt lat="47.36568" lon="-1.52559">
        <ele>11</ele>
        <time>2024-02-04T12:57:19Z</time>
      </trkpt>
      <trkpt lat="47.36598" lon="-1.52512">
        <ele>11</ele>
        <time>2024-02-04T12:58:17Z</time>
      </trkpt>
      <trkpt lat="47.36611" lon="-1.52485">
        <ele>10</ele>
        <time>2024-02-04T12:58:47Z</time>
      </trkpt>
      <trkpt lat="47.36628" lon="-1.52428">
        <ele>10</ele>
        <time>2024-02-04T12:59:44Z</time>
      </trkpt>
      <trkpt lat="47.36634" lon="-1.52396">
        <ele>10</ele>
        <time>2024-02-04T13:00:14Z</time>
      </trkpt>
      <trkpt lat="47.3665" lon="-1.52233">
        <ele>11</ele>
        <time>2024-02-04T13:02:42Z</time>
      </trkpt>
      <trkpt lat="47.36672" lon="-1.52175">
        <ele>11</ele>
        <time>2024-02-04T13:03:43Z</time>
      </trkpt>
      <trkpt lat="47.36698" lon="-1.52123">
        <ele>10</ele>
        <time>2024-02-04T13:04:41Z</time>
      </trkpt>
      <trkpt lat="47.36753" lon="-1.51981">
        <ele>8</ele>
        <time>2024-02-04T13:07:09Z</time>
      </trkpt>
      <trkpt lat="47.36802" lon="-1.51837">
        <ele>9</ele>
        <time>2024-02-04T13:09:34Z</time>
      </trkpt>
      <trkpt lat="47.36806" lon="-1.51804">
        <ele>9</ele>
        <time>2024-02-04T13:10:05Z</time>
      </trkpt>
      <trkpt lat="47.36802" lon="-1.51714">
        <ele>9</ele>
        <time>2024-02-04T13:11:26Z</time>
      </trkpt>
      <trkpt lat="47.36804" lon="-1.51684">
        <ele>10</ele>
        <time>2024-02-04T13:11:53Z</time>
      </trkpt>
      <trkpt lat="47.36823" lon="-1.51678">
        <ele>10</ele>
        <time>2024-02-04T13:12:19Z</time>
      </trkpt>
      <trkpt lat="47.36844" lon="-1.51676">
        <ele>10</ele>
        <time>2024-02-04T13:12:48Z</time>
      </trkpt>
      <trkpt lat="47.36888" lon="-1.51676">
        <ele>10</ele>
        <time>2024-02-04T13:13:46Z</time>
      </trkpt>
      <trkpt lat="47.36948" lon="-1.51671">
        <ele>11</ele>
        <time>2024-02-04T13:15:06Z</time>
      </trkpt>
      <trkpt lat="47.37015" lon="-1.51672">
        <ele>12</ele>
        <time>2024-02-04T13:16:36Z</time>
      </trkpt>
      <trkpt lat="47.37031" lon="-1.51691">
        <ele>12</ele>
        <time>2024-02-04T13:17:03Z</time>
      </trkpt>
      <trkpt lat="47.3705" lon="-1.517">
        <ele>12</ele>
        <time>2024-02-04T13:17:30Z</time>
      </trkpt>
      <trkpt lat="47.37069" lon="-1.51702">
        <ele>12</ele>
        <time>2024-02-04T13:17:55Z</time>
      </trkpt>
      <trkpt lat="47.37087" lon="-1.51711">
        <ele>13</ele>
        <time>2024-02-04T13:18:21Z</time>
      </trkpt>
      <trkpt lat="47.37106" lon="-1.51699">
        <ele>13</ele>
        <time>2024-02-04T13:18:48Z</time>
      </trkpt>
      <trkpt lat="47.37148" lon="-1.51626">
        <ele>14</ele>
        <time>2024-02-04T13:20:15Z</time>
      </trkpt>
      <trkpt lat="47.3716" lon="-1.51599">
        <ele>15</ele>
        <time>2024-02-04T13:20:44Z</time>
      </trkpt>
      <trkpt lat="47.3719" lon="-1.51552">
        <ele>13</ele>
        <time>2024-02-04T13:21:42Z</time>
      </trkpt>
      <trkpt lat="47.37232" lon="-1.51476">
        <ele>11</ele>
        <time>2024-02-04T13:23:11Z</time>
      </trkpt>
      <trkpt lat="47.37263" lon="-1.51434">
        <ele>10</ele>
        <time>2024-02-04T13:24:07Z</time>
      </trkpt>
      <trkpt lat="47.37307" lon="-1.51423">
        <ele>9</ele>
        <time>2024-02-04T13:25:07Z</time>
      </trkpt>
      <trkpt lat="47.37351" lon="-1.51424">
        <ele>9</ele>
        <time>2024-02-04T13:26:05Z</time>
      </trkpt>
      <trkpt lat="47.37367" lon="-1.5141">
        <ele>10</ele>
        <time>2024-02-04T13:26:30Z</time>
      </trkpt>
      <trkpt lat="47.37399" lon="-1.51365">
        <ele>11</ele>
        <time>2024-02-04T13:27:29Z</time>
      </trkpt>
      <trkpt lat="47.37411" lon="-1.51339">
        <ele>12</ele>
        <time>2024-02-04T13:27:58Z</time>
      </trkpt>
      <trkpt lat="47.37417" lon="-1.5131">
        <ele>12</ele>
        <time>2024-02-04T13:28:25Z</time>
      </trkpt>
      <trkpt lat="47.37418" lon="-1.51279">
        <ele>11</ele>
        <time>2024-02-04T13:28:53Z</time>
      </trkpt>
      <trkpt lat="47.37424" lon="-1.51247">
        <ele>11</ele>
        <time>2024-02-04T13:29:23Z</time>
      </trkpt>
      <trkpt lat="47.3742" lon="-1.51217">
        <ele>10</ele>
        <time>2024-02-04T13:29:51Z</time>
      </trkpt>
      <trkpt lat="47.37425" lon="-1.51151">
        <ele>9</ele>
        <time>2024-02-04T13:30:51Z</time>
      </trkpt>
      <trkpt lat="47.37424" lon="-1.51118">
        <ele>9</ele>
        <time>2024-02-04T13:31:21Z</time>
      </trkpt>
      <trkpt lat="47.37428" lon="-1.51086">
        <ele>8</ele>
        <time>2024-02-04T13:31:50Z</time>
      </trkpt>
      <trkpt lat="47.37416" lon="-1.51057">
        <ele>8</ele>
        <time>2024-02-04T13:32:21Z</time>
      </trkpt>
      <trkpt lat="47.3744" lon="-1.50931">
        <ele>7</ele>
        <time>2024-02-04T13:34:19Z</time>
      </trkpt>
      <trkpt lat="47.37451" lon="-1.50906">
        <ele>6</ele>
        <time>2024-02-04T13:34:46Z</time>
      </trkpt>
      <trkpt lat="47.37486" lon="-1.50873">
        <ele>6</ele>
        <time>2024-02-04T13:35:41Z</time>
      </trkpt>
      <trkpt lat="47.37506" lon="-1.50864">
        <ele>6</ele>
        <time>2024-02-04T13:36:09Z</time>
      </trkpt>
      <trkpt lat="47.37549" lon="-1.50871">
        <ele>6</ele>
        <time>2024-02-04T13:37:07Z</time>
      </trkpt>
      <trkpt lat="47.3757" lon="-1.50868">
        <ele>6</ele>
        <time>2024-02-04T13:37:35Z</time>
      </trkpt>
      <trkpt lat="47.37585" lon="-1.50848">
        <ele>6</ele>
        <time>2024-02-04T13:38:02Z</time>
      </trkpt>
      <trkpt lat="47.37623" lon="-1.50777">
        <ele>7</ele>
        <time>2024-02-04T13:39:24Z</time>
      </trkpt>
      <trkpt lat="47.3764" lon="-1.50726">
        <ele>8</ele>
        <time>2024-02-04T13:40:15Z</time>
      </trkpt>
      <trkpt lat="47.3764" lon="-1.50693">
        <ele>8</ele>
        <time>2024-02-04T13:40:45Z</time>
      </trkpt>
      <trkpt lat="47.37651" lon="-1.5067">
        <ele>9</ele>
        <time>2024-02-04T13:41:11Z</time>
      </trkpt>
      <trkpt lat="47.37735" lon="-1.50667">
        <ele>11</ele>
        <time>2024-02-04T13:43:03Z</time>
      </trkpt>
      <trkpt lat="47.37755" lon="-1.5066">
        <ele>11</ele>
        <time>2024-02-04T13:43:30Z</time>
      </trkpt>
      <trkpt lat="47.37816" lon="-1.50653">
        <ele>14</ele>
        <time>2024-02-04T13:44:52Z</time>
      </trkpt>
      <trkpt lat="47.37838" lon="-1.50653">
        <ele>14</ele>
        <time>2024-02-04T13:45:21Z</time>
      </trkpt>
      <trkpt lat="47.37881" lon="-1.50645">
        <ele>13</ele>
        <time>2024-02-04T13:46:19Z</time>
      </trkpt>
      <trkpt lat="47.37904" lon="-1.5065">
        <ele>13</ele>
        <time>2024-02-04T13:46:50Z</time>
      </trkpt>
      <trkpt lat="47.3792" lon="-1.50669">
        <ele>14</ele>
        <time>2024-02-04T13:47:17Z</time>
      </trkpt>
      <trkpt lat="47.37939" lon="-1.50654">
        <ele>12</ele>
        <time>2024-02-04T13:47:46Z</time>
      </trkpt>
      <trkpt lat="47.3796" lon="-1.50653">
        <ele>10</ele>
        <time>2024-02-04T13:48:14Z</time>
      </trkpt>
      <trkpt lat="47.37974" lon="-1.50676">
        <ele>9</ele>
        <time>2024-02-04T13:48:42Z</time>
      </trkpt>
      <trkpt lat="47.3801" lon="-1.50707">
        <ele>8</ele>
        <time>2024-02-04T13:49:38Z</time>
      </trkpt>
      <trkpt lat="47.3803" lon="-1.50714">
        <ele>7</ele>
        <time>2024-02-04T13:50:05Z</time>
      </trkpt>
      <trkpt lat="47.38049" lon="-1.50711">
        <ele>6</ele>
        <time>2024-02-04T13:50:31Z</time>
      </trkpt>
      <trkpt lat="47.38072" lon="-1.50719">
        <ele>5</ele>
        <time>2024-02-04T13:51:02Z</time>
      </trkpt>
      <trkpt lat="47.38091" lon="-1.50734">
        <ele>5</ele>
        <time>2024-02-04T13:51:31Z</time>
      </trkpt>
      <trkpt lat="47.38122" lon="-1.50765">
        <ele>6</ele>
        <time>2024-02-04T13:52:21Z</time>
      </trkpt>
      <trkpt lat="47.38142" lon="-1.50772">
        <ele>6</ele>
        <time>2024-02-04T13:52:48Z</time>
      </trkpt>
      <trkpt lat="47.38162" lon="-1.50773">
        <ele>6</ele>
        <time>2024-02-04T13:53:15Z</time>
      </trkpt>
      <trkpt lat="47.38184" lon="-1.50787">
        <ele>6</ele>
        <time>2024-02-04T13:53:47Z</time>
      </trkpt>
      <trkpt lat="47.38233" lon="-1.50842">
        <ele>6</ele>
        <time>2024-02-04T13:55:09Z</time>
      </trkpt>
      <trkpt lat="47.38249" lon="-1.50867">
        <ele>6</ele>
        <time>2024-02-04T13:55:40Z</time>
      </trkpt>
      <trkpt lat="47.38276" lon="-1.50989">
        <ele>7</ele>
        <time>2024-02-04T13:57:36Z</time>
      </trkpt>
      <trkpt lat="47.3829" lon="-1.51008">
        <ele>8</ele>
        <time>2024-02-04T13:58:02Z</time>
      </trkpt>
      <trkpt lat="47.38305" lon="-1.51022">
        <ele>8</ele>
        <time>2024-02-04T13:58:25Z</time>
      </trkpt>
      <trkpt lat="47.38322" lon="-1.51043">
        <ele>8</ele>
        <time>2024-02-04T13:58:55Z</time>
      </trkpt>
      <trkpt lat="47.38343" lon="-1.51042">
        <ele>8</ele>
        <time>2024-02-04T13:59:23Z</time>
      </trkpt>
      <trkpt lat="47.38358" lon="-1.51059">
        <ele>8</ele>
        <time>2024-02-04T13:59:48Z</time>
      </trkpt>
      <trkpt lat="47.38384" lon="-1.51105">
        <ele>7</ele>
        <time>2024-02-04T14:00:42Z</time>
      </trkpt>
      <trkpt lat="47.38406" lon="-1.51161">
        <ele>5</ele>
        <time>2024-02-04T14:01:41Z</time>
      </trkpt>
      <trkpt lat="47.38457" lon="-1.51268">
        <ele>6</ele>
        <time>2024-02-04T14:03:39Z</time>
      </trkpt>
      <trkpt lat="47.38472" lon="-1.51291">
        <ele>6</ele>
        <time>2024-02-04T14:04:08Z</time>
      </trkpt>
      <trkpt lat="47.38505" lon="-1.51329">
        <ele>7</ele>
        <time>2024-02-04T14:05:04Z</time>
      </trkpt>
      <trkpt lat="47.3857" lon="-1.51498">
        <ele>6</ele>
        <time>2024-02-04T14:07:59Z</time>
      </trkpt>
      <trkpt lat="47.38587" lon="-1.51555">
        <ele>7</ele>
        <time>2024-02-04T14:08:55Z</time>
      </trkpt>
      <trkpt lat="47.38611" lon="-1.51606">
        <ele>7</ele>
        <time>2024-02-04T14:09:52Z</time>
      </trkpt>
      <trkpt lat="47.38639" lon="-1.51685">
        <ele>8</ele>
        <time>2024-02-04T14:11:12Z</time>
      </trkpt>
      <trkpt lat="47.38652" lon="-1.51712">
        <ele>8</ele>
        <time>2024-02-04T14:11:42Z</time>
      </trkpt>
      <trkpt lat="47.38677" lon="-1.51797">
        <ele>8</ele>
        <time>2024-02-04T14:13:06Z</time>
      </trkpt>
      <trkpt lat="47.38703" lon="-1.51854">
        <ele>8</ele>
        <time>2024-02-04T14:14:08Z</time>
      </trkpt>
      <trkpt lat="47.38712" lon="-1.51888">
        <ele>8</ele>
        <time>2024-02-04T14:14:41Z</time>
      </trkpt>
      <trkpt lat="47.38732" lon="-1.51945">
        <ele>8</ele>
        <time>2024-02-04T14:15:39Z</time>
      </trkpt>
      <trkpt lat="47.38745" lon="-1.51968">
        <ele>7</ele>
        <time>2024-02-04T14:16:06Z</time>
      </trkpt>
      <trkpt lat="47.38765" lon="-1.52058">
        <ele>8</ele>
        <time>2024-02-04T14:17:32Z</time>
      </trkpt>
      <trkpt lat="47.38778" lon="-1.52148">
        <ele>8</ele>
        <time>2024-02-04T14:18:55Z</time>
      </trkpt>
      <trkpt lat="47.38792" lon="-1.52209">
        <ele>8</ele>
        <time>2024-02-04T14:19:53Z</time>
      </trkpt>
      <trkpt lat="47.38802" lon="-1.52266">
        <ele>9</ele>
        <time>2024-02-04T14:20:46Z</time>
      </trkpt>
      <trkpt lat="47.38818" lon="-1.52392">
        <ele>10</ele>
        <time>2024-02-04T14:22:42Z</time>
      </trkpt>
      <trkpt lat="47.38819" lon="-1.52418">
        <ele>10</ele>
        <time>2024-02-04T14:23:05Z</time>
      </trkpt>
      <trkpt lat="47.38833" lon="-1.52482">
        <ele>11</ele>
        <time>2024-02-04T14:24:06Z</time>
      </trkpt>
      <trkpt lat="47.3885" lon="-1.5261">
        <ele>11</ele>
        <time>2024-02-04T14:26:04Z</time>
      </trkpt>
      <trkpt lat="47.38874" lon="-1.52666">
        <ele>11</ele>
        <time>2024-02-04T14:27:04Z</time>
      </trkpt>
      <trkpt lat="47.38883" lon="-1.52726">
        <ele>13</ele>
        <time>2024-02-04T14:27:59Z</time>
      </trkpt>
      <trkpt lat="47.38866" lon="-1.52743">
        <ele>14</ele>
        <time>2024-02-04T14:28:27Z</time>
      </trkpt>
      <trkpt lat="47.38786" lon="-1.52742">
        <ele>17</ele>
        <time>2024-02-04T14:30:14Z</time>
      </trkpt>
      <trkpt lat="47.38729" lon="-1.52754">
        <ele>20</ele>
        <time>2024-02-04T14:31:30Z</time>
      </trkpt>
      <trkpt lat="47.38646" lon="-1.52757">
        <ele>22</ele>
        <time>2024-02-04T14:33:21Z</time>
      </trkpt>
      <trkpt lat="47.38535" lon="-1.52766">
        <ele>24</ele>
        <time>2024-02-04T14:35:50Z</time>
      </trkpt>
      <trkpt lat="47.38513" lon="-1.52764">
        <ele>24</ele>
        <time>2024-02-04T14:36:19Z</time>
      </trkpt>
      <trkpt lat="47.38385" lon="-1.52769">
        <ele>24</ele>
        <time>2024-02-04T14:39:10Z</time>
      </trkpt>
      <trkpt lat="47.38323" lon="-1.52767">
        <ele>24</ele>
        <time>2024-02-04T14:40:33Z</time>
      </trkpt>
      <trkpt lat="47.38302" lon="-1.52771">
        <ele>24</ele>
        <time>2024-02-04T14:41:01Z</time>
      </trkpt>
      <trkpt lat="47.38278" lon="-1.52768">
        <ele>23</ele>
        <time>2024-02-04T14:41:33Z</time>
      </trkpt>
      <trkpt lat="47.38223" lon="-1.52775">
        <ele>22</ele>
        <time>2024-02-04T14:42:47Z</time>
      </trkpt>
      <trkpt lat="47.38201" lon="-1.52781">
        <ele>21</ele>
        <time>2024-02-04T14:43:17Z</time>
      </trkpt>
      <trkpt lat="47.38161" lon="-1.5281">
        <ele>20</ele>
        <time>2024-02-04T14:44:16Z</time>
      </trkpt>
      <trkpt lat="47.3809" lon="-1.52875">
        <ele>20</ele>
        <time>2024-02-04T14:46:08Z</time>
      </trkpt>
      <trkpt lat="47.38069" lon="-1.52888">
        <ele>21</ele>
        <time>2024-02-04T14:46:38Z</time>
      </trkpt>
      <trkpt lat="47.38047" lon="-1.52896">
        <ele>21</ele>
        <time>2024-02-04T14:47:08Z</time>
      </trkpt>
      <trkpt lat="47.38012" lon="-1.52916">
        <ele>22</ele>
        <time>2024-02-04T14:47:58Z</time>
      </trkpt>
      <trkpt lat="47.38002" lon="-1.52973">
        <ele>23</ele>
        <time>2024-02-04T14:48:51Z</time>
      </trkpt>
      <trkpt lat="47.38002" lon="-1.53005">
        <ele>24</ele>
        <time>2024-02-04T14:49:20Z</time>
      </trkpt>
      <trkpt lat="47.38009" lon="-1.53095">
        <ele>26</ele>
        <time>2024-02-04T14:50:42Z</time>
      </trkpt>
      <trkpt lat="47.38006" lon="-1.53156">
        <ele>29</ele>
        <time>2024-02-04T14:51:37Z</time>
      </trkpt>
      <trkpt lat="47.37965" lon="-1.53264">
        <ele>30</ele>
        <time>2024-02-04T14:53:29Z</time>
      </trkpt>
      <trkpt lat="47.37953" lon="-1.53321">
        <ele>30</ele>
        <time>2024-02-04T14:54:23Z</time>
      </trkpt>
      <trkpt lat="47.37952" lon="-1.53352">
        <ele>30</ele>
        <time>2024-02-04T14:54:51Z</time>
      </trkpt>
      <trkpt lat="47.37959" lon="-1.53447">
        <ele>31</ele>
        <time>2024-02-04T14:56:18Z</time>
      </trkpt>
      <trkpt lat="47.37961" lon="-1.5351">
        <ele>31</ele>
        <time>2024-02-04T14:57:15Z</time>
      </trkpt>
      <trkpt lat="47.37965" lon="-1.53543">
        <ele>31</ele>
        <time>2024-02-04T14:57:45Z</time>
      </trkpt>
      <trkpt lat="47.37962" lon="-1.53643">
        <ele>32</ele>
        <time>2024-02-04T14:59:15Z</time>
      </trkpt>
      <trkpt lat="47.37951" lon="-1.53764">
        <ele>31</ele>
        <time>2024-02-04T15:01:06Z</time>
      </trkpt>
      <trkpt lat="47.37927" lon="-1.53921">
        <ele>29</ele>
        <time>2024-02-04T15:03:31Z</time>
      </trkpt>
      <trkpt lat="47.37919" lon="-1.5402">
        <ele>29</ele>
        <time>2024-02-04T15:05:01Z</time>
      </trkpt>
      <trkpt lat="47.37913" lon="-1.54052">
        <ele>28</ele>
        <time>2024-02-04T15:05:31Z</time>
      </trkpt>
      <trkpt lat="47.37907" lon="-1.5412">
        <ele>28</ele>
        <time>2024-02-04T15:06:33Z</time>
      </trkpt>
      <trkpt lat="47.37901" lon="-1.54152">
        <ele>29</ele>
        <time>2024-02-04T15:07:03Z</time>
      </trkpt>
      <trkpt lat="47.37892" lon="-1.54249">
        <ele>30</ele>
        <time>2024-02-04T15:08:32Z</time>
      </trkpt>
      <trkpt lat="47.37887" lon="-1.54281">
        <ele>30</ele>
        <time>2024-02-04T15:09:01Z</time>
      </trkpt>
      <trkpt lat="47.37877" lon="-1.54309">
        <ele>29</ele>
        <time>2024-02-04T15:09:30Z</time>
      </trkpt>
      <trkpt lat="47.37861" lon="-1.54371">
        <ele>28</ele>
        <time>2024-02-04T15:10:30Z</time>
      </trkpt>
      <trkpt lat="47.37851" lon="-1.54397">
        <ele>27</ele>
        <time>2024-02-04T15:10:57Z</time>
      </trkpt>
      <trkpt lat="47.37826" lon="-1.54484">
        <ele>27</ele>
        <time>2024-02-04T15:12:22Z</time>
      </trkpt>
      <trkpt lat="47.37804" lon="-1.54573">
        <ele>28</ele>
        <time>2024-02-04T15:13:48Z</time>
      </trkpt>
      <trkpt lat="47.37793" lon="-1.54599">
        <ele>28</ele>
        <time>2024-02-04T15:14:16Z</time>
      </trkpt>
      <trkpt lat="47.37782" lon="-1.5472">
        <ele>29</ele>
        <time>2024-02-04T15:16:06Z</time>
      </trkpt>
      <trkpt lat="47.37786" lon="-1.5475">
        <ele>30</ele>
        <time>2024-02-04T15:16:34Z</time>
      </trkpt>
      <trkpt lat="47.37784" lon="-1.5484">
        <ele>32</ele>
        <time>2024-02-04T15:17:55Z</time>
      </trkpt>
      <trkpt lat="47.37788" lon="-1.54868">
        <ele>32</ele>
        <time>2024-02-04T15:18:21Z</time>
      </trkpt>
      <trkpt lat="47.37784" lon="-1.54926">
        <ele>33</ele>
        <time>2024-02-04T15:19:14Z</time>
      </trkpt>
      <trkpt lat="47.37778" lon="-1.54953">
        <ele>32</ele>
        <time>2024-02-04T15:19:39Z</time>
      </trkpt>
      <trkpt lat="47.3778" lon="-1.54983">
        <ele>33</ele>
        <time>2024-02-04T15:20:06Z</time>
      </trkpt>
      <trkpt lat="47.37777" lon="-1.5504">
        <ele>33</ele>
        <time>2024-02-04T15:20:58Z</time>
      </trkpt>
      <trkpt lat="47.37778" lon="-1.55072">
        <ele>34</ele>
        <time>2024-02-04T15:21:27Z</time>
      </trkpt>
      <trkpt lat="47.37763" lon="-1.55126">
        <ele>33</ele>
        <time>2024-02-04T15:22:20Z</time>
      </trkpt>
      <trkpt lat="47.37756" lon="-1.55219">
        <ele>33</ele>
        <time>2024-02-04T15:23:44Z</time>
      </trkpt>
      <trkpt lat="47.37765" lon="-1.55246">
        <ele>33</ele>
        <time>2024-02-04T15:24:12Z</time>
      </trkpt>
      <trkpt lat="47.37783" lon="-1.55264">
        <ele>33</ele>
        <time>2024-02-04T15:24:41Z</time>
      </trkpt>
      <trkpt lat="47.37798" lon="-1.55289">
        <ele>33</ele>
        <time>2024-02-04T15:25:11Z</time>
      </trkpt>
      <trkpt lat="47.3783" lon="-1.55374">
        <ele>33</ele>
        <time>2024-02-04T15:26:39Z</time>
      </trkpt>
      <trkpt lat="47.37836" lon="-1.55402">
        <ele>32</ele>
        <time>2024-02-04T15:27:05Z</time>
      </trkpt>
      <trkpt lat="47.37847" lon="-1.55423">
        <ele>32</ele>
        <time>2024-02-04T15:27:29Z</time>
      </trkpt>
      <trkpt lat="47.37845" lon="-1.55449">
        <ele>32</ele>
        <time>2024-02-04T15:27:53Z</time>
      </trkpt>
      <trkpt lat="47.37834" lon="-1.55511">
        <ele>31</ele>
        <time>2024-02-04T15:28:51Z</time>
      </trkpt>
      <trkpt lat="47.37806" lon="-1.55628">
        <ele>31</ele>
        <time>2024-02-04T15:30:43Z</time>
      </trkpt>
      <trkpt lat="47.37788" lon="-1.55718">
        <ele>34</ele>
        <time>2024-02-04T15:32:08Z</time>
      </trkpt>
      <trkpt lat="47.3786" lon="-1.55772">
        <ele>35</ele>
        <time>2024-02-04T15:33:55Z</time>
      </trkpt>
      <trkpt lat="47.37826" lon="-1.55847">
        <ele>37</ele>
        <time>2024-02-04T15:35:17Z</time>
      </trkpt>
      <trkpt lat="47.37799" lon="-1.55925">
        <ele>37</ele>
        <time>2024-02-04T15:36:36Z</time>
      </trkpt>
      <trkpt lat="47.37784" lon="-1.55945">
        <ele>37</ele>
        <time>2024-02-04T15:37:03Z</time>
      </trkpt>
      <trkpt lat="47.37765" lon="-1.55947">
        <ele>38</ele>
        <time>2024-02-04T15:37:29Z</time>
      </trkpt>
      <trkpt lat="47.37726" lon="-1.56055">
        <ele>37</ele>
        <time>2024-02-04T15:39:19Z</time>
      </trkpt>
      <trkpt lat="47.37698" lon="-1.56105">
        <ele>37</ele>
        <time>2024-02-04T15:40:18Z</time>
      </trkpt>
      <trkpt lat="47.37681" lon="-1.56114">
        <ele>37</ele>
        <time>2024-02-04T15:40:42Z</time>
      </trkpt>
      <trkpt lat="47.3764" lon="-1.5613">
        <ele>37</ele>
        <time>2024-02-04T15:41:38Z</time>
      </trkpt>
      <trkpt lat="47.37626" lon="-1.56153">
        <ele>37</ele>
        <time>2024-02-04T15:42:06Z</time>
      </trkpt>
      <trkpt lat="47.37609" lon="-1.56247">
        <ele>36</ele>
        <time>2024-02-04T15:43:34Z</time>
      </trkpt>
      <trkpt lat="47.37598" lon="-1.56276">
        <ele>36</ele>
        <time>2024-02-04T15:44:04Z</time>
      </trkpt>
      <trkpt lat="47.3759" lon="-1.56308">
        <ele>35</ele>
        <time>2024-02-04T15:44:35Z</time>
      </trkpt>
      <trkpt lat="47.3758" lon="-1.56333">
        <ele>35</ele>
        <time>2024-02-04T15:45:01Z</time>
      </trkpt>
      <trkpt lat="47.37537" lon="-1.56475">
        <ele>33</ele>
        <time>2024-02-04T15:47:22Z</time>
      </trkpt>
      <trkpt lat="47.37521" lon="-1.56561">
        <ele>33</ele>
        <time>2024-02-04T15:48:43Z</time>
      </trkpt>
      <trkpt lat="47.37514" lon="-1.56688">
        <ele>33</ele>
        <time>2024-02-04T15:50:38Z</time>
      </trkpt>
      <trkpt lat="47.375" lon="-1.56782">
        <ele>32</ele>
        <time>2024-02-04T15:52:05Z</time>
      </trkpt>
      <trkpt lat="47.37492" lon="-1.56811">
        <ele>32</ele>
        <time>2024-02-04T15:52:33Z</time>
      </trkpt>
      <trkpt lat="47.37481" lon="-1.56871">
        <ele>32</ele>
        <time>2024-02-04T15:53:29Z</time>
      </trkpt>
      <trkpt lat="47.37471" lon="-1.56898">
        <ele>32</ele>
        <time>2024-02-04T15:53:57Z</time>
      </trkpt>
      <trkpt lat="47.37457" lon="-1.56925">
        <ele>32</ele>
        <time>2024-02-04T15:54:28Z</time>
      </trkpt>
      <trkpt lat="47.3744" lon="-1.56948">
        <ele>33</ele>
        <time>2024-02-04T15:54:59Z</time>
      </trkpt>
      <trkpt lat="47.37398" lon="-1.57015">
        <ele>33</ele>
        <time>2024-02-04T15:56:21Z</time>
      </trkpt>
      <trkpt lat="47.37372" lon="-1.57061">
        <ele>33</ele>
        <time>2024-02-04T15:57:15Z</time>
      </trkpt>
      <trkpt lat="47.37332" lon="-1.57162">
        <ele>36</ele>
        <time>2024-02-04T15:59:01Z</time>
      </trkpt>
      <trkpt lat="47.37354" lon="-1.57248">
        <ele>35</ele>
        <time>2024-02-04T16:00:24Z</time>
      </trkpt>
      <trkpt lat="47.3741" lon="-1.57386">
        <ele>34</ele>
        <time>2024-02-04T16:02:49Z</time>
      </trkpt>
      <trkpt lat="47.37419" lon="-1.57416">
        <ele>34</ele>
        <time>2024-02-04T16:03:19Z</time>
      </trkpt>
      <trkpt lat="47.3748" lon="-1.57583">
        <ele>32</ele>
        <time>2024-02-04T16:06:10Z</time>
      </trkpt>
      <trkpt lat="47.37488" lon="-1.57611">
        <ele>32</ele>
        <time>2024-02-04T16:06:38Z</time>
      </trkpt>
      <trkpt lat="47.37522" lon="-1.57688">
        <ele>31</ele>
        <time>2024-02-04T16:08:01Z</time>
      </trkpt>
      <trkpt lat="47.37515" lon="-1.57713">
        <ele>31</ele>
        <time>2024-02-04T16:08:25Z</time>
      </trkpt>
      <trkpt lat="47.3748" lon="-1.57745">
        <ele>31</ele>
        <time>2024-02-04T16:09:20Z</time>
      </trkpt>
      <trkpt lat="47.37439" lon="-1.57772">
        <ele>29</ele>
        <time>2024-02-04T16:10:20Z</time>
      </trkpt>
      <trkpt lat="47.37401" lon="-1.57793">
        <ele>29</ele>
        <time>2024-02-04T16:11:14Z</time>
      </trkpt>
      <trkpt lat="47.37397" lon="-1.57821">
        <ele>29</ele>
        <time>2024-02-04T16:11:40Z</time>
      </trkpt>
      <trkpt lat="47.37422" lon="-1.57934">
        <ele>28</ele>
        <time>2024-02-04T16:13:28Z</time>
      </trkpt>
      <trkpt lat="47.37439" lon="-1.57991">
        <ele>28</ele>
        <time>2024-02-04T16:14:24Z</time>
      </trkpt>
      <trkpt lat="47.37457" lon="-1.58109">
        <ele>29</ele>
        <time>2024-02-04T16:16:13Z</time>
      </trkpt>
      <trkpt lat="47.37473" lon="-1.58161">
        <ele>29</ele>
        <time>2024-02-04T16:17:05Z</time>
      </trkpt>
      <trkpt lat="47.37495" lon="-1.58209">
        <ele>30</ele>
        <time>2024-02-04T16:17:57Z</time>
      </trkpt>
      <trkpt lat="47.37504" lon="-1.58236">
        <ele>30</ele>
        <time>2024-02-04T16:18:25Z</time>
      </trkpt>
      <trkpt lat="47.37517" lon="-1.58262">
        <ele>30</ele>
        <time>2024-02-04T16:18:54Z</time>
      </trkpt>
      <trkpt lat="47.37498" lon="-1.58263">
        <ele>30</ele>
        <time>2024-02-04T16:19:19Z</time>
      </trkpt>
      <trkpt lat="47.37479" lon="-1.58273">
        <ele>30</ele>
        <time>2024-02-04T16:19:46Z</time>
      </trkpt>
      <trkpt lat="47.37461" lon="-1.58279">
        <ele>29</ele>
        <time>2024-02-04T16:20:11Z</time>
      </trkpt>
      <trkpt lat="47.37441" lon="-1.58292">
        <ele>29</ele>
        <time>2024-02-04T16:20:40Z</time>
      </trkpt>
      <trkpt lat="47.37421" lon="-1.583">
        <ele>29</ele>
        <time>2024-02-04T16:21:07Z</time>
      </trkpt>
      <trkpt lat="47.37401" lon="-1.58314">
        <ele>29</ele>
        <time>2024-02-04T16:21:37Z</time>
      </trkpt>
      <trkpt lat="47.37381" lon="-1.58324">
        <ele>29</ele>
        <time>2024-02-04T16:22:05Z</time>
      </trkpt>
      <trkpt lat="47.37364" lon="-1.58338">
        <ele>29</ele>
        <time>2024-02-04T16:22:31Z</time>
      </trkpt>
      <trkpt lat="47.37325" lon="-1.58357">
        <ele>29</ele>
        <time>2024-02-04T16:23:26Z</time>
      </trkpt>
      <trkpt lat="47.37308" lon="-1.58372">
        <ele>29</ele>
        <time>2024-02-04T16:23:52Z</time>
      </trkpt>
      <trkpt lat="47.3729" lon="-1.58376">
        <ele>30</ele>
        <time>2024-02-04T16:24:17Z</time>
      </trkpt>
      <trkpt lat="47.37272" lon="-1.58376">
        <ele>30</ele>
        <time>2024-02-04T16:24:41Z</time>
      </trkpt>
      <trkpt lat="47.37192" lon="-1.58413">
        <ele>32</ele>
        <time>2024-02-04T16:28:24Z</time>
      </trkpt>
      <trkpt lat="47.37168" lon="-1.58425">
        <ele>32.9</ele>
        <time>2024-02-04T16:28:49Z</time>
      </trkpt>
      <trkpt lat="47.37144" lon="-1.5844">
        <ele>33.7</ele>
        <time>2024-02-04T16:30:15Z</time>
      </trkpt>
      <trkpt lat="47.37123" lon="-1.58448">
        <ele>34.6</ele>
        <time>2024-02-04T16:31:38Z</time>
      </trkpt>
      <trkpt lat="47.37102" lon="-1.58452">
        <ele>35.1</ele>
        <time>2024-02-04T16:32:58Z</time>
      </trkpt>
      <trkpt lat="47.37091" lon="-1.58462">
        <ele>35.5</ele>
        <time>2024-02-04T16:33:23Z</time>
      </trkpt>
      <trkpt lat="47.37077" lon="-1.58468">
        <ele>35.9</ele>
        <time>2024-02-04T16:34:44Z</time>
      </trkpt>
      <trkpt lat="47.37066" lon="-1.58475">
        <ele>36.1</ele>
        <time>2024-02-04T16:35:12Z</time>
      </trkpt>
      <trkpt lat="47.37056" lon="-1.58481">
        <ele>36.3</ele>
        <time>2024-02-04T16:36:00Z</time>
      </trkpt>
      <trkpt lat="47.37039" lon="-1.58492">
        <ele>36.9</ele>
        <time>2024-02-04T16:37:24Z</time>
      </trkpt>
      <trkpt lat="47.37" lon="-1.5851">
        <ele>37.4</ele>
        <time>2024-02-04T16:38:17Z</time>
      </trkpt>
      <trkpt lat="47.36958" lon="-1.58535">
        <ele>38</ele>
        <time>2024-02-04T16:39:11Z</time>
      </trkpt>
      <trkpt lat="47.36931" lon="-1.58553">
        <ele>38</ele>
        <time>2024-02-04T16:39:40Z</time>
      </trkpt>
      <trkpt lat="47.36883" lon="-1.58597">
        <ele>38</ele>
        <time>2024-02-04T16:40:06Z</time>
      </trkpt>
      <trkpt lat="47.36846" lon="-1.58673">
        <ele>38</ele>
      </trkpt>
      <trkpt lat="47.36764" lon="-1.58717">
        <ele>37.5</ele>
      </trkpt>
      <trkpt lat="47.36697" lon="-1.58863">
        <ele>33</ele>
      </trkpt>
      <trkpt lat="47.36652" lon="-1.58837">
        <ele>33.3</ele>
      </trkpt>
      <trkpt lat="47.36569" lon="-1.5875">
        <ele>34.4</ele>
        <time>2024-02-04T16:41:04Z</time>
      </trkpt>
      <trkpt lat="47.36485" lon="-1.58578">
        <ele>37</ele>
        <time>2024-02-04T16:41:28Z</time>
      </trkpt>
      <trkpt lat="47.36385" lon="-1.58394">
        <ele>32.9</ele>
        <time>2024-02-04T16:41:56Z</time>
      </trkpt>
      <trkpt lat="47.36377" lon="-1.58376">
        <ele>32.6</ele>
        <time>2024-02-04T16:42:51Z</time>
      </trkpt>
      <trkpt lat="47.3637" lon="-1.58358">
        <ele>32.3</ele>
        <time>2024-02-04T16:43:19Z</time>
      </trkpt>
      <trkpt lat="47.36362" lon="-1.58342">
        <ele>32</ele>
        <time>2024-02-04T16:43:44Z</time>
      </trkpt>
      <trkpt lat="47.36353" lon="-1.58325">
        <ele>32</ele>
        <time>2024-02-04T16:46:12Z</time>
      </trkpt>
      <trkpt lat="47.36346" lon="-1.58291">
        <ele>32</ele>
        <time>2024-02-04T16:47:12Z</time>
      </trkpt>
      <trkpt lat="47.36335" lon="-1.58254">
        <ele>32</ele>
        <time>2024-02-04T16:48:02Z</time>
      </trkpt>
      <trkpt lat="47.36312" lon="-1.58248">
        <ele>32</ele>
        <time>2024-02-04T16:48:34Z</time>
      </trkpt>
      <trkpt lat="47.36291" lon="-1.58255">
        <ele>32</ele>
        <time>2024-02-04T16:49:02Z</time>
      </trkpt>
      <trkpt lat="47.36272" lon="-1.58268">
        <ele>31</ele>
        <time>2024-02-04T16:49:30Z</time>
      </trkpt>
      <trkpt lat="47.36253" lon="-1.58274">
        <ele>31</ele>
        <time>2024-02-04T16:49:56Z</time>
      </trkpt>
      <trkpt lat="47.36233" lon="-1.58273">
        <ele>31</ele>
        <time>2024-02-04T16:50:23Z</time>
      </trkpt>
      <trkpt lat="47.36215" lon="-1.58256">
        <ele>30</ele>
        <time>2024-02-04T16:50:51Z</time>
      </trkpt>
      <trkpt lat="47.362" lon="-1.58233">
        <ele>29</ele>
        <time>2024-02-04T16:51:20Z</time>
      </trkpt>
      <trkpt lat="47.36167" lon="-1.58199">
        <ele>26</ele>
        <time>2024-02-04T16:52:14Z</time>
      </trkpt>
      <trkpt lat="47.36111" lon="-1.58161">
        <ele>22</ele>
        <time>2024-02-04T16:53:36Z</time>
      </trkpt>
      <trkpt lat="47.36096" lon="-1.58142">
        <ele>22</ele>
        <time>2024-02-04T16:54:03Z</time>
      </trkpt>
      <trkpt lat="47.36085" lon="-1.58117">
        <ele>23</ele>
        <time>2024-02-04T16:54:30Z</time>
      </trkpt>
      <trkpt lat="47.36081" lon="-1.58091">
        <ele>24</ele>
        <time>2024-02-04T16:54:54Z</time>
      </trkpt>
      <trkpt lat="47.36031" lon="-1.57922">
        <ele>21</ele>
        <time>2024-02-04T16:57:40Z</time>
      </trkpt>
      <trkpt lat="47.36011" lon="-1.57874">
        <ele>21</ele>
        <time>2024-02-04T16:58:31Z</time>
      </trkpt>
      <trkpt lat="47.35986" lon="-1.57823">
        <ele>22</ele>
        <time>2024-02-04T16:59:28Z</time>
      </trkpt>
      <trkpt lat="47.35969" lon="-1.57804">
        <ele>22</ele>
        <time>2024-02-04T16:59:57Z</time>
      </trkpt>
      <trkpt lat="47.35942" lon="-1.57756">
        <ele>25</ele>
        <time>2024-02-04T17:00:53Z</time>
      </trkpt>
      <trkpt lat="47.35927" lon="-1.57741">
        <ele>26</ele>
        <time>2024-02-04T17:01:17Z</time>
      </trkpt>
      <trkpt lat="47.3591" lon="-1.57719">
        <ele>26</ele>
        <time>2024-02-04T17:01:47Z</time>
      </trkpt>
      <trkpt lat="47.35892" lon="-1.57705">
        <ele>26</ele>
        <time>2024-02-04T17:02:15Z</time>
      </trkpt>
      <trkpt lat="47.35874" lon="-1.57697">
        <ele>26</ele>
        <time>2024-02-04T17:02:40Z</time>
      </trkpt>
      <trkpt lat="47.35845" lon="-1.5767">
        <ele>29</ele>
        <time>2024-02-04T17:03:25Z</time>
      </trkpt>
      <trkpt lat="47.3584" lon="-1.5764">
        <ele>29</ele>
        <time>2024-02-04T17:03:53Z</time>
      </trkpt>
      <trkpt lat="47.35847" lon="-1.57585">
        <ele>30</ele>
        <time>2024-02-04T17:04:44Z</time>
      </trkpt>
      <trkpt lat="47.35847" lon="-1.57529">
        <ele>28</ele>
        <time>2024-02-04T17:05:35Z</time>
      </trkpt>
      <trkpt lat="47.35829" lon="-1.57517">
        <ele>28</ele>
        <time>2024-02-04T17:06:01Z</time>
      </trkpt>
      <trkpt lat="47.35809" lon="-1.57522">
        <ele>28</ele>
        <time>2024-02-04T17:06:28Z</time>
      </trkpt>
      <trkpt lat="47.35765" lon="-1.57545">
        <ele>27</ele>
        <time>2024-02-04T17:07:30Z</time>
      </trkpt>
      <trkpt lat="47.35744" lon="-1.57548">
        <ele>27</ele>
        <time>2024-02-04T17:07:58Z</time>
      </trkpt>
      <trkpt lat="47.35724" lon="-1.57546">
        <ele>28</ele>
        <time>2024-02-04T17:08:25Z</time>
      </trkpt>
      <trkpt lat="47.35685" lon="-1.57528">
        <ele>28</ele>
        <time>2024-02-04T17:09:20Z</time>
      </trkpt>
      <trkpt lat="47.35649" lon="-1.57507">
        <ele>28</ele>
        <time>2024-02-04T17:10:11Z</time>
      </trkpt>
      <trkpt lat="47.35585" lon="-1.57431">
        <ele>24</ele>
        <time>2024-02-04T17:12:01Z</time>
      </trkpt>
      <trkpt lat="47.35526" lon="-1.57399">
        <ele>20</ele>
        <time>2024-02-04T17:13:25Z</time>
      </trkpt>
      <trkpt lat="47.35503" lon="-1.57392">
        <ele>19</ele>
        <time>2024-02-04T17:13:56Z</time>
      </trkpt>
      <trkpt lat="47.35486" lon="-1.57375">
        <ele>18</ele>
        <time>2024-02-04T17:14:24Z</time>
      </trkpt>
      <trkpt lat="47.35463" lon="-1.57366">
        <ele>17</ele>
        <time>2024-02-04T17:14:55Z</time>
      </trkpt>
      <trkpt lat="47.35443" lon="-1.57371">
        <ele>16</ele>
        <time>2024-02-04T17:15:22Z</time>
      </trkpt>
      <trkpt lat="47.35424" lon="-1.57372">
        <ele>16</ele>
        <time>2024-02-04T17:15:48Z</time>
      </trkpt>
      <trkpt lat="47.35383" lon="-1.57394">
        <ele>14</ele>
        <time>2024-02-04T17:16:46Z</time>
      </trkpt>
      <trkpt lat="47.35363" lon="-1.57408">
        <ele>13</ele>
        <time>2024-02-04T17:17:16Z</time>
      </trkpt>
      <trkpt lat="47.35342" lon="-1.57411">
        <ele>12</ele>
        <time>2024-02-04T17:17:44Z</time>
      </trkpt>
      <trkpt lat="47.35321" lon="-1.57408">
        <ele>12</ele>
        <time>2024-02-04T17:18:12Z</time>
      </trkpt>
      <trkpt lat="47.35262" lon="-1.57417">
        <ele>14</ele>
        <time>2024-02-04T17:19:31Z</time>
      </trkpt>
      <trkpt lat="47.35239" lon="-1.57416">
        <ele>14</ele>
        <time>2024-02-04T17:20:02Z</time>
      </trkpt>
      <trkpt lat="47.35219" lon="-1.57406">
        <ele>14</ele>
        <time>2024-02-04T17:20:30Z</time>
      </trkpt>
      <trkpt lat="47.35202" lon="-1.5739">
        <ele>14</ele>
        <time>2024-02-04T17:20:57Z</time>
      </trkpt>
      <trkpt lat="47.35173" lon="-1.57348">
        <ele>15</ele>
        <time>2024-02-04T17:21:51Z</time>
      </trkpt>
      <trkpt lat="47.35147" lon="-1.573">
        <ele>18</ele>
        <time>2024-02-04T17:22:47Z</time>
      </trkpt>
      <trkpt lat="47.35143" lon="-1.57272">
        <ele>20</ele>
        <time>2024-02-04T17:23:12Z</time>
      </trkpt>
      <trkpt lat="47.3515" lon="-1.57245">
        <ele>21</ele>
        <time>2024-02-04T17:23:39Z</time>
      </trkpt>
      <trkpt lat="47.35154" lon="-1.57215">
        <ele>21</ele>
        <time>2024-02-04T17:24:06Z</time>
      </trkpt>
      <trkpt lat="47.35165" lon="-1.57188">
        <ele>20</ele>
        <time>2024-02-04T17:24:35Z</time>
      </trkpt>
      <trkpt lat="47.35191" lon="-1.5714">
        <ele>17</ele>
        <time>2024-02-04T17:25:30Z</time>
      </trkpt>
      <trkpt lat="47.35195" lon="-1.57114">
        <ele>17</ele>
        <time>2024-02-04T17:25:54Z</time>
      </trkpt>
      <trkpt lat="47.35193" lon="-1.57087">
        <ele>17</ele>
        <time>2024-02-04T17:26:19Z</time>
      </trkpt>
      <trkpt lat="47.35186" lon="-1.57059">
        <ele>17</ele>
        <time>2024-02-04T17:26:46Z</time>
      </trkpt>
      <trkpt lat="47.35163" lon="-1.5691">
        <ele>15</ele>
        <time>2024-02-04T17:29:04Z</time>
      </trkpt>
      <trkpt lat="47.35149" lon="-1.56854">
        <ele>16</ele>
        <time>2024-02-04T17:29:58Z</time>
      </trkpt>
      <trkpt lat="47.35147" lon="-1.56825">
        <ele>16</ele>
        <time>2024-02-04T17:30:24Z</time>
      </trkpt>
      <trkpt lat="47.35152" lon="-1.56797">
        <ele>15</ele>
        <time>2024-02-04T17:30:51Z</time>
      </trkpt>
      <trkpt lat="47.35154" lon="-1.56768">
        <ele>15</ele>
        <time>2024-02-04T17:31:17Z</time>
      </trkpt>
      <trkpt lat="47.35147" lon="-1.56741">
        <ele>16</ele>
        <time>2024-02-04T17:31:43Z</time>
      </trkpt>
      <trkpt lat="47.35144" lon="-1.56714">
        <ele>16</ele>
        <time>2024-02-04T17:32:08Z</time>
      </trkpt>
      <trkpt lat="47.35149" lon="-1.56683">
        <ele>16</ele>
        <time>2024-02-04T17:32:37Z</time>
      </trkpt>
      <trkpt lat="47.35179" lon="-1.56563">
        <ele>30</ele>
        <time>2024-02-04T17:34:32Z</time>
      </trkpt>
      <trkpt lat="47.35169" lon="-1.56507">
        <ele>34</ele>
        <time>2024-02-04T17:35:25Z</time>
      </trkpt>
      <trkpt lat="47.35161" lon="-1.56482">
        <ele>35</ele>
        <time>2024-02-04T17:35:50Z</time>
      </trkpt>
      <trkpt lat="47.35132" lon="-1.56437">
        <ele>36</ele>
        <time>2024-02-04T17:36:46Z</time>
      </trkpt>
      <trkpt lat="47.35104" lon="-1.56362">
        <ele>38</ele>
        <time>2024-02-04T17:38:03Z</time>
      </trkpt>
      <trkpt lat="47.35092" lon="-1.56311">
        <ele>39</ele>
        <time>2024-02-04T17:38:52Z</time>
      </trkpt>
      <trkpt lat="47.35088" lon="-1.56283">
        <ele>40</ele>
        <time>2024-02-04T17:39:18Z</time>
      </trkpt>
      <trkpt lat="47.3508" lon="-1.56163">
        <ele>40</ele>
        <time>2024-02-04T17:41:07Z</time>
      </trkpt>
      <trkpt lat="47.35082" lon="-1.56106">
        <ele>39</ele>
        <time>2024-02-04T17:41:58Z</time>
      </trkpt>
      <trkpt lat="47.35094" lon="-1.56047">
        <ele>37</ele>
        <time>2024-02-04T17:42:54Z</time>
      </trkpt>
      <trkpt lat="47.35118" lon="-1.55993">
        <ele>36</ele>
        <time>2024-02-04T17:43:53Z</time>
      </trkpt>
      <trkpt lat="47.35135" lon="-1.55973">
        <ele>36</ele>
        <time>2024-02-04T17:44:22Z</time>
      </trkpt>
      <trkpt lat="47.35156" lon="-1.55961">
        <ele>36</ele>
        <time>2024-02-04T17:44:52Z</time>
      </trkpt>
      <trkpt lat="47.35146" lon="-1.55934">
        <ele>35</ele>
        <time>2024-02-04T17:45:19Z</time>
      </trkpt>
      <trkpt lat="47.35129" lon="-1.55912">
        <ele>35</ele>
        <time>2024-02-04T17:45:50Z</time>
      </trkpt>
      <trkpt lat="47.35114" lon="-1.55896">
        <ele>34</ele>
        <time>2024-02-04T17:46:14Z</time>
      </trkpt>
      <trkpt lat="47.35094" lon="-1.55888">
        <ele>34</ele>
        <time>2024-02-04T17:46:42Z</time>
      </trkpt>
      <trkpt lat="47.35072" lon="-1.5589">
        <ele>34</ele>
        <time>2024-02-04T17:47:11Z</time>
      </trkpt>
      <trkpt lat="47.35052" lon="-1.55895">
        <ele>34</ele>
        <time>2024-02-04T17:47:38Z</time>
      </trkpt>
      <trkpt lat="47.35031" lon="-1.55905">
        <ele>33</ele>
        <time>2024-02-04T17:48:08Z</time>
      </trkpt>
      <trkpt lat="47.34968" lon="-1.55919">
        <ele>33</ele>
        <time>2024-02-04T17:49:33Z</time>
      </trkpt>
      <trkpt lat="47.34951" lon="-1.55929">
        <ele>33</ele>
        <time>2024-02-04T17:49:57Z</time>
      </trkpt>
      <trkpt lat="47.34933" lon="-1.55914">
        <ele>32</ele>
        <time>2024-02-04T17:50:25Z</time>
      </trkpt>
      <trkpt lat="47.34908" lon="-1.55831">
        <ele>30</ele>
        <time>2024-02-04T17:51:47Z</time>
      </trkpt>
      <trkpt lat="47.34897" lon="-1.55805">
        <ele>29</ele>
        <time>2024-02-04T17:52:15Z</time>
      </trkpt>
      <trkpt lat="47.34832" lon="-1.55681">
        <ele>26</ele>
        <time>2024-02-04T17:54:37Z</time>
      </trkpt>
      <trkpt lat="47.34806" lon="-1.55637">
        <ele>27</ele>
        <time>2024-02-04T17:55:29Z</time>
      </trkpt>
      <trkpt lat="47.34796" lon="-1.55611">
        <ele>28</ele>
        <time>2024-02-04T17:55:56Z</time>
      </trkpt>
      <trkpt lat="47.34764" lon="-1.55501">
        <ele>31</ele>
        <time>2024-02-04T17:57:45Z</time>
      </trkpt>
      <trkpt lat="47.34737" lon="-1.55386">
        <ele>31</ele>
        <time>2024-02-04T17:59:35Z</time>
      </trkpt>
      <trkpt lat="47.34743" lon="-1.5536">
        <ele>30</ele>
        <time>2024-02-04T17:59:59Z</time>
      </trkpt>
      <trkpt lat="47.34761" lon="-1.55356">
        <ele>30</ele>
        <time>2024-02-04T18:00:24Z</time>
      </trkpt>
      <trkpt lat="47.34782" lon="-1.55355">
        <ele>31</ele>
        <time>2024-02-04T18:00:52Z</time>
      </trkpt>
      <trkpt lat="47.34802" lon="-1.55347">
        <ele>31</ele>
        <time>2024-02-04T18:01:19Z</time>
      </trkpt>
      <trkpt lat="47.34858" lon="-1.55301">
        <ele>31</ele>
        <time>2024-02-04T18:02:45Z</time>
      </trkpt>
      <trkpt lat="47.34915" lon="-1.55263">
        <ele>32</ele>
        <time>2024-02-04T18:04:08Z</time>
      </trkpt>
      <trkpt lat="47.35013" lon="-1.55221">
        <ele>34</ele>
        <time>2024-02-04T18:06:25Z</time>
      </trkpt>
      <trkpt lat="47.35071" lon="-1.55185">
        <ele>36</ele>
        <time>2024-02-04T18:07:49Z</time>
      </trkpt>
      <trkpt lat="47.35093" lon="-1.55176">
        <ele>36</ele>
        <time>2024-02-04T18:08:19Z</time>
      </trkpt>
      <trkpt lat="47.35113" lon="-1.5516">
        <ele>37</ele>
        <time>2024-02-04T18:08:49Z</time>
      </trkpt>
      <trkpt lat="47.35128" lon="-1.55107">
        <ele>37</ele>
        <time>2024-02-04T18:09:41Z</time>
      </trkpt>
      <trkpt lat="47.35141" lon="-1.55043">
        <ele>36</ele>
        <time>2024-02-04T18:10:42Z</time>
      </trkpt>
      <trkpt lat="47.35169" lon="-1.54954">
        <ele>35</ele>
        <time>2024-02-04T18:12:10Z</time>
      </trkpt>
      <trkpt lat="47.35179" lon="-1.54928">
        <ele>35</ele>
        <time>2024-02-04T18:12:37Z</time>
      </trkpt>
      <trkpt lat="47.35205" lon="-1.54886">
        <ele>35</ele>
        <time>2024-02-04T18:13:29Z</time>
      </trkpt>
      <trkpt lat="47.35244" lon="-1.54809">
        <ele>34</ele>
        <time>2024-02-04T18:14:56Z</time>
      </trkpt>
      <trkpt lat="47.35252" lon="-1.54782">
        <ele>34</ele>
        <time>2024-02-04T18:15:22Z</time>
      </trkpt>
      <trkpt lat="47.35216" lon="-1.54701">
        <ele>30</ele>
        <time>2024-02-04T18:16:50Z</time>
      </trkpt>
      <trkpt lat="47.35181" lon="-1.54594">
        <ele>29</ele>
        <time>2024-02-04T18:18:37Z</time>
      </trkpt>
      <trkpt lat="47.35162" lon="-1.5458">
        <ele>29</ele>
        <time>2024-02-04T18:19:06Z</time>
      </trkpt>
      <trkpt lat="47.35143" lon="-1.54574">
        <ele>29</ele>
        <time>2024-02-04T18:19:32Z</time>
      </trkpt>
      <trkpt lat="47.35122" lon="-1.54577">
        <ele>29</ele>
        <time>2024-02-04T18:20:00Z</time>
      </trkpt>
      <trkpt lat="47.35103" lon="-1.54573">
        <ele>29</ele>
        <time>2024-02-04T18:20:26Z</time>
      </trkpt>
      <trkpt lat="47.35065" lon="-1.54552">
        <ele>29</ele>
        <time>2024-02-04T18:21:20Z</time>
      </trkpt>
      <trkpt lat="47.35051" lon="-1.54532">
        <ele>29</ele>
        <time>2024-02-04T18:21:46Z</time>
      </trkpt>
      <trkpt lat="47.35035" lon="-1.54515">
        <ele>30</ele>
        <time>2024-02-04T18:22:12Z</time>
      </trkpt>
      <trkpt lat="47.35008" lon="-1.54468">
        <ele>31</ele>
        <time>2024-02-04T18:23:08Z</time>
      </trkpt>
      <trkpt lat="47.34969" lon="-1.54362">
        <ele>34</ele>
        <time>2024-02-04T18:24:57Z</time>
      </trkpt>
      <trkpt lat="47.34961" lon="-1.54332">
        <ele>34</ele>
        <time>2024-02-04T18:25:26Z</time>
      </trkpt>
      <trkpt lat="47.34933" lon="-1.54251">
        <ele>35</ele>
        <time>2024-02-04T18:26:48Z</time>
      </trkpt>
      <trkpt lat="47.34909" lon="-1.54203">
        <ele>34</ele>
        <time>2024-02-04T18:27:42Z</time>
      </trkpt>
      <trkpt lat="47.34892" lon="-1.54148">
        <ele>34</ele>
        <time>2024-02-04T18:28:37Z</time>
      </trkpt>
      <trkpt lat="47.3487" lon="-1.54091">
        <ele>35</ele>
        <time>2024-02-04T18:29:36Z</time>
      </trkpt>
      <trkpt lat="47.34862" lon="-1.54062">
        <ele>35</ele>
        <time>2024-02-04T18:30:04Z</time>
      </trkpt>
      <trkpt lat="47.3485" lon="-1.54037">
        <ele>35</ele>
        <time>2024-02-04T18:30:32Z</time>
      </trkpt>
      <trkpt lat="47.34821" lon="-1.53991">
        <ele>36</ele>
        <time>2024-02-04T18:31:29Z</time>
      </trkpt>
      <trkpt lat="47.3481" lon="-1.53969">
        <ele>36</ele>
        <time>2024-02-04T18:31:54Z</time>
      </trkpt>
      <trkpt lat="47.34765" lon="-1.53907">
        <ele>36</ele>
        <time>2024-02-04T18:33:16Z</time>
      </trkpt>
      <trkpt lat="47.3475" lon="-1.53881">
        <ele>36</ele>
        <time>2024-02-04T18:33:47Z</time>
      </trkpt>
      <trkpt lat="47.34733" lon="-1.53862">
        <ele>36</ele>
        <time>2024-02-04T18:34:15Z</time>
      </trkpt>
      <trkpt lat="47.34689" lon="-1.53796">
        <ele>37</ele>
        <time>2024-02-04T18:35:39Z</time>
      </trkpt>
      <trkpt lat="47.34671" lon="-1.53777">
        <ele>37</ele>
        <time>2024-02-04T18:36:08Z</time>
      </trkpt>
      <trkpt lat="47.34658" lon="-1.53752">
        <ele>37</ele>
        <time>2024-02-04T18:36:37Z</time>
      </trkpt>
      <trkpt lat="47.34614" lon="-1.53684">
        <ele>38</ele>
        <time>2024-02-04T18:38:02Z</time>
      </trkpt>
      <trkpt lat="47.34582" lon="-1.53643">
        <ele>38</ele>
        <time>2024-02-04T18:38:58Z</time>
      </trkpt>
      <trkpt lat="47.34535" lon="-1.53574">
        <ele>35</ele>
        <time>2024-02-04T18:40:27Z</time>
      </trkpt>
      <trkpt lat="47.34507" lon="-1.53525">
        <ele>33</ele>
        <time>2024-02-04T18:41:25Z</time>
      </trkpt>
      <trkpt lat="47.34497" lon="-1.53497">
        <ele>32</ele>
        <time>2024-02-04T18:41:53Z</time>
      </trkpt>
      <trkpt lat="47.34482" lon="-1.53474">
        <ele>31</ele>
        <time>2024-02-04T18:42:22Z</time>
      </trkpt>
      <trkpt lat="47.34471" lon="-1.53448">
        <ele>31</ele>
        <time>2024-02-04T18:42:50Z</time>
      </trkpt>
      <trkpt lat="47.34412" lon="-1.5338">
        <ele>29</ele>
        <time>2024-02-04T18:44:30Z</time>
      </trkpt>
      <trkpt lat="47.34381" lon="-1.53334">
        <ele>29</ele>
        <time>2024-02-04T18:45:29Z</time>
      </trkpt>
      <trkpt lat="47.3434" lon="-1.53262">
        <ele>27</ele>
        <time>2024-02-04T18:46:54Z</time>
      </trkpt>
      <trkpt lat="47.34334" lon="-1.53235">
        <ele>25</ele>
        <time>2024-02-04T18:47:19Z</time>
      </trkpt>
      <trkpt lat="47.34324" lon="-1.53208">
        <ele>24</ele>
        <time>2024-02-04T18:47:47Z</time>
      </trkpt>
      <trkpt lat="47.34308" lon="-1.53191">
        <ele>24</ele>
        <time>2024-02-04T18:48:13Z</time>
      </trkpt>
      <trkpt lat="47.34288" lon="-1.53188">
        <ele>23</ele>
        <time>2024-02-04T18:48:40Z</time>
      </trkpt>
      <trkpt lat="47.34269" lon="-1.53181">
        <ele>23</ele>
        <time>2024-02-04T18:49:06Z</time>
      </trkpt>
      <trkpt lat="47.34258" lon="-1.53154">
        <ele>22</ele>
        <time>2024-02-04T18:49:35Z</time>
      </trkpt>
      <trkpt lat="47.3424" lon="-1.53134">
        <ele>21</ele>
        <time>2024-02-04T18:50:05Z</time>
      </trkpt>
      <trkpt lat="47.34221" lon="-1.53136">
        <ele>20</ele>
        <time>2024-02-04T18:50:30Z</time>
      </trkpt>
    </trkseg>
  </trk>
  <trk>
    <name><![CDATA[Suce_Mazerolles_12.5km-5548821]]></name>
    <extensions>
      <line xmlns="http://www.topografix.com/GPX/gpx_style/0/2">
        <color>800080</color>
        <width>4</width>
      </line>
    </extensions>
    <trkseg>
      <trkpt lat="47.36344" lon="-1.50794">
        <ele>6</ele>
        <time>2023-08-11T14:08:25Z</time>
      </trkpt>
      <trkpt lat="47.36348" lon="-1.50806">
        <ele>6</ele>
        <time>2023-08-11T14:08:37Z</time>
      </trkpt>
      <trkpt lat="47.36464" lon="-1.50725">
        <ele>8</ele>
        <time>2023-08-11T14:11:28Z</time>
      </trkpt>
      <trkpt lat="47.36525" lon="-1.50738">
        <ele>8</ele>
        <time>2023-08-11T14:12:51Z</time>
      </trkpt>
      <trkpt lat="47.36582" lon="-1.50834">
        <ele>5</ele>
        <time>2023-08-11T14:14:46Z</time>
      </trkpt>
      <trkpt lat="47.3676" lon="-1.50884">
        <ele>5</ele>
        <time>2023-08-11T14:18:48Z</time>
      </trkpt>
      <trkpt lat="47.37245" lon="-1.50737">
        <ele>5</ele>
        <time>2023-08-11T14:29:48Z</time>
      </trkpt>
      <trkpt lat="47.37306" lon="-1.50759">
        <ele>6</ele>
        <time>2023-08-11T14:31:12Z</time>
      </trkpt>
      <trkpt lat="47.373" lon="-1.5089">
        <ele>5</ele>
        <time>2023-08-11T14:33:11Z</time>
      </trkpt>
      <trkpt lat="47.37446" lon="-1.50902">
        <ele>6</ele>
        <time>2023-08-11T14:36:26Z</time>
      </trkpt>
      <trkpt lat="47.37499" lon="-1.50861">
        <ele>6</ele>
        <time>2023-08-11T14:37:46Z</time>
      </trkpt>
      <trkpt lat="47.37515" lon="-1.50817">
        <ele>6</ele>
        <time>2023-08-11T14:38:31Z</time>
      </trkpt>
      <trkpt lat="47.37526" lon="-1.50795">
        <ele>6</ele>
        <time>2023-08-11T14:38:56Z</time>
      </trkpt>
      <trkpt lat="47.37552" lon="-1.50751">
        <ele>6</ele>
        <time>2023-08-11T14:39:49Z</time>
      </trkpt>
      <trkpt lat="47.37574" lon="-1.50706">
        <ele>6</ele>
        <time>2023-08-11T14:40:39Z</time>
      </trkpt>
      <trkpt lat="47.37601" lon="-1.50665">
        <ele>7</ele>
        <time>2023-08-11T14:41:30Z</time>
      </trkpt>
      <trkpt lat="47.37616" lon="-1.50638">
        <ele>8</ele>
        <time>2023-08-11T14:42:02Z</time>
      </trkpt>
      <trkpt lat="47.37628" lon="-1.50619">
        <ele>8</ele>
        <time>2023-08-11T14:42:25Z</time>
      </trkpt>
      <trkpt lat="47.37654" lon="-1.50604">
        <ele>9</ele>
        <time>2023-08-11T14:43:03Z</time>
      </trkpt>
      <trkpt lat="47.37647" lon="-1.50636">
        <ele>9</ele>
        <time>2023-08-11T14:43:33Z</time>
      </trkpt>
      <trkpt lat="47.37644" lon="-1.50675">
        <ele>8</ele>
        <time>2023-08-11T14:44:09Z</time>
      </trkpt>
      <trkpt lat="47.37674" lon="-1.5067">
        <ele>9</ele>
        <time>2023-08-11T14:44:49Z</time>
      </trkpt>
      <trkpt lat="47.37692" lon="-1.50666">
        <ele>10</ele>
        <time>2023-08-11T14:45:13Z</time>
      </trkpt>
      <trkpt lat="47.37717" lon="-1.50666">
        <ele>10</ele>
        <time>2023-08-11T14:45:46Z</time>
      </trkpt>
      <trkpt lat="47.37736" lon="-1.50666">
        <ele>11</ele>
        <time>2023-08-11T14:46:12Z</time>
      </trkpt>
      <trkpt lat="47.37754" lon="-1.50661">
        <ele>11</ele>
        <time>2023-08-11T14:46:36Z</time>
      </trkpt>
      <trkpt lat="47.37773" lon="-1.50656">
        <ele>12</ele>
        <time>2023-08-11T14:47:02Z</time>
      </trkpt>
      <trkpt lat="47.37793" lon="-1.50654">
        <ele>13</ele>
        <time>2023-08-11T14:47:29Z</time>
      </trkpt>
      <trkpt lat="47.37811" lon="-1.50655">
        <ele>13</ele>
        <time>2023-08-11T14:47:53Z</time>
      </trkpt>
      <trkpt lat="47.3783" lon="-1.50649">
        <ele>14</ele>
        <time>2023-08-11T14:48:19Z</time>
      </trkpt>
      <trkpt lat="47.37874" lon="-1.50644">
        <ele>13</ele>
        <time>2023-08-11T14:49:18Z</time>
      </trkpt>
      <trkpt lat="47.37902" lon="-1.50649">
        <ele>13</ele>
        <time>2023-08-11T14:49:55Z</time>
      </trkpt>
      <trkpt lat="47.37924" lon="-1.50678">
        <ele>14</ele>
        <time>2023-08-11T14:50:35Z</time>
      </trkpt>
      <trkpt lat="47.37959" lon="-1.50648">
        <ele>10</ele>
        <time>2023-08-11T14:51:29Z</time>
      </trkpt>
      <trkpt lat="47.37973" lon="-1.50666">
        <ele>9</ele>
        <time>2023-08-11T14:51:53Z</time>
      </trkpt>
      <trkpt lat="47.38002" lon="-1.50704">
        <ele>8</ele>
        <time>2023-08-11T14:52:45Z</time>
      </trkpt>
      <trkpt lat="47.38024" lon="-1.50712">
        <ele>7</ele>
        <time>2023-08-11T14:53:15Z</time>
      </trkpt>
      <trkpt lat="47.38042" lon="-1.50716">
        <ele>7</ele>
        <time>2023-08-11T14:53:40Z</time>
      </trkpt>
      <trkpt lat="47.38061" lon="-1.50715">
        <ele>6</ele>
        <time>2023-08-11T14:54:05Z</time>
      </trkpt>
      <trkpt lat="47.38097" lon="-1.50738">
        <ele>5</ele>
        <time>2023-08-11T14:54:57Z</time>
      </trkpt>
      <trkpt lat="47.38127" lon="-1.50767">
        <ele>6</ele>
        <time>2023-08-11T14:55:45Z</time>
      </trkpt>
      <trkpt lat="47.3817" lon="-1.50775">
        <ele>6</ele>
        <time>2023-08-11T14:56:43Z</time>
      </trkpt>
      <trkpt lat="47.38187" lon="-1.50788">
        <ele>6</ele>
        <time>2023-08-11T14:57:09Z</time>
      </trkpt>
      <trkpt lat="47.38217" lon="-1.50824">
        <ele>6</ele>
        <time>2023-08-11T14:58:00Z</time>
      </trkpt>
      <trkpt lat="47.38245" lon="-1.50865">
        <ele>6</ele>
        <time>2023-08-11T14:58:53Z</time>
      </trkpt>
      <trkpt lat="47.38259" lon="-1.50921">
        <ele>6</ele>
        <time>2023-08-11T14:59:47Z</time>
      </trkpt>
      <trkpt lat="47.38273" lon="-1.50978">
        <ele>7</ele>
        <time>2023-08-11T15:00:41Z</time>
      </trkpt>
      <trkpt lat="47.38297" lon="-1.51011">
        <ele>8</ele>
        <time>2023-08-11T15:01:25Z</time>
      </trkpt>
      <trkpt lat="47.38313" lon="-1.5103">
        <ele>8</ele>
        <time>2023-08-11T15:01:53Z</time>
      </trkpt>
      <trkpt lat="47.38338" lon="-1.5104">
        <ele>8</ele>
        <time>2023-08-11T15:02:27Z</time>
      </trkpt>
      <trkpt lat="47.38374" lon="-1.5109">
        <ele>7</ele>
        <time>2023-08-11T15:03:33Z</time>
      </trkpt>
      <trkpt lat="47.38397" lon="-1.5114">
        <ele>6</ele>
        <time>2023-08-11T15:04:28Z</time>
      </trkpt>
      <trkpt lat="47.38416" lon="-1.51188">
        <ele>5</ele>
        <time>2023-08-11T15:05:18Z</time>
      </trkpt>
      <trkpt lat="47.38428" lon="-1.51215">
        <ele>5</ele>
        <time>2023-08-11T15:05:47Z</time>
      </trkpt>
      <trkpt lat="47.38456" lon="-1.51293">
        <ele>6</ele>
        <time>2023-08-11T15:07:07Z</time>
      </trkpt>
      <trkpt lat="47.38497" lon="-1.51335">
        <ele>7</ele>
        <time>2023-08-11T15:08:14Z</time>
      </trkpt>
      <trkpt lat="47.38514" lon="-1.51359">
        <ele>7</ele>
        <time>2023-08-11T15:08:45Z</time>
      </trkpt>
      <trkpt lat="47.38535" lon="-1.51413">
        <ele>7</ele>
        <time>2023-08-11T15:09:41Z</time>
      </trkpt>
      <trkpt lat="47.38548" lon="-1.5145">
        <ele>7</ele>
        <time>2023-08-11T15:10:19Z</time>
      </trkpt>
      <trkpt lat="47.38561" lon="-1.51485">
        <ele>7</ele>
        <time>2023-08-11T15:10:55Z</time>
      </trkpt>
      <trkpt lat="47.3857" lon="-1.5151">
        <ele>6</ele>
        <time>2023-08-11T15:11:21Z</time>
      </trkpt>
      <trkpt lat="47.38587" lon="-1.51557">
        <ele>7</ele>
        <time>2023-08-11T15:12:09Z</time>
      </trkpt>
      <trkpt lat="47.38595" lon="-1.5158">
        <ele>7</ele>
        <time>2023-08-11T15:12:32Z</time>
      </trkpt>
      <trkpt lat="47.38604" lon="-1.51608">
        <ele>7</ele>
        <time>2023-08-11T15:13:00Z</time>
      </trkpt>
      <trkpt lat="47.38614" lon="-1.51633">
        <ele>8</ele>
        <time>2023-08-11T15:13:26Z</time>
      </trkpt>
      <trkpt lat="47.3863" lon="-1.51675">
        <ele>8</ele>
        <time>2023-08-11T15:14:10Z</time>
      </trkpt>
      <trkpt lat="47.38644" lon="-1.51716">
        <ele>8</ele>
        <time>2023-08-11T15:14:51Z</time>
      </trkpt>
      <trkpt lat="47.38653" lon="-1.5172">
        <ele>8</ele>
        <time>2023-08-11T15:15:04Z</time>
      </trkpt>
      <trkpt lat="47.38657" lon="-1.51747">
        <ele>8</ele>
        <time>2023-08-11T15:15:29Z</time>
      </trkpt>
      <trkpt lat="47.38666" lon="-1.51774">
        <ele>8</ele>
        <time>2023-08-11T15:15:56Z</time>
      </trkpt>
      <trkpt lat="47.38677" lon="-1.51805">
        <ele>8</ele>
        <time>2023-08-11T15:16:28Z</time>
      </trkpt>
      <trkpt lat="47.38688" lon="-1.51831">
        <ele>8</ele>
        <time>2023-08-11T15:16:55Z</time>
      </trkpt>
      <trkpt lat="47.38711" lon="-1.51895">
        <ele>8</ele>
        <time>2023-08-11T15:18:01Z</time>
      </trkpt>
      <trkpt lat="47.38724" lon="-1.51929">
        <ele>8</ele>
        <time>2023-08-11T15:18:36Z</time>
      </trkpt>
      <trkpt lat="47.38743" lon="-1.51986">
        <ele>7</ele>
        <time>2023-08-11T15:19:33Z</time>
      </trkpt>
      <trkpt lat="47.38754" lon="-1.52023">
        <ele>7</ele>
        <time>2023-08-11T15:20:10Z</time>
      </trkpt>
      <trkpt lat="47.38762" lon="-1.52053">
        <ele>8</ele>
        <time>2023-08-11T15:20:39Z</time>
      </trkpt>
      <trkpt lat="47.38774" lon="-1.52116">
        <ele>8</ele>
        <time>2023-08-11T15:21:38Z</time>
      </trkpt>
      <trkpt lat="47.38778" lon="-1.52143">
        <ele>8</ele>
        <time>2023-08-11T15:22:03Z</time>
      </trkpt>
      <trkpt lat="47.38789" lon="-1.52206">
        <ele>8</ele>
        <time>2023-08-11T15:23:02Z</time>
      </trkpt>
      <trkpt lat="47.38794" lon="-1.52229">
        <ele>8</ele>
        <time>2023-08-11T15:23:24Z</time>
      </trkpt>
      <trkpt lat="47.38798" lon="-1.52256">
        <ele>8</ele>
        <time>2023-08-11T15:23:49Z</time>
      </trkpt>
      <trkpt lat="47.38802" lon="-1.52281">
        <ele>9</ele>
        <time>2023-08-11T15:24:12Z</time>
      </trkpt>
      <trkpt lat="47.38807" lon="-1.52306">
        <ele>9</ele>
        <time>2023-08-11T15:24:36Z</time>
      </trkpt>
      <trkpt lat="47.38811" lon="-1.52338">
        <ele>9</ele>
        <time>2023-08-11T15:25:05Z</time>
      </trkpt>
      <trkpt lat="47.38816" lon="-1.52365">
        <ele>10</ele>
        <time>2023-08-11T15:25:30Z</time>
      </trkpt>
      <trkpt lat="47.3882" lon="-1.52391">
        <ele>10</ele>
        <time>2023-08-11T15:25:54Z</time>
      </trkpt>
      <trkpt lat="47.38823" lon="-1.52416">
        <ele>10</ele>
        <time>2023-08-11T15:26:17Z</time>
      </trkpt>
      <trkpt lat="47.38829" lon="-1.52446">
        <ele>10</ele>
        <time>2023-08-11T15:26:46Z</time>
      </trkpt>
      <trkpt lat="47.38834" lon="-1.52473">
        <ele>11</ele>
        <time>2023-08-11T15:27:11Z</time>
      </trkpt>
      <trkpt lat="47.38844" lon="-1.52532">
        <ele>11</ele>
        <time>2023-08-11T15:28:06Z</time>
      </trkpt>
      <trkpt lat="47.38847" lon="-1.5256">
        <ele>10</ele>
        <time>2023-08-11T15:28:31Z</time>
      </trkpt>
      <trkpt lat="47.38847" lon="-1.52587">
        <ele>10</ele>
        <time>2023-08-11T15:28:56Z</time>
      </trkpt>
      <trkpt lat="47.38851" lon="-1.52634">
        <ele>11</ele>
        <time>2023-08-11T15:29:39Z</time>
      </trkpt>
      <trkpt lat="47.3887" lon="-1.52689">
        <ele>12</ele>
        <time>2023-08-11T15:30:34Z</time>
      </trkpt>
      <trkpt lat="47.38874" lon="-1.52719">
        <ele>13</ele>
        <time>2023-08-11T15:31:02Z</time>
      </trkpt>
      <trkpt lat="47.38873" lon="-1.52748">
        <ele>14</ele>
        <time>2023-08-11T15:31:28Z</time>
      </trkpt>
      <trkpt lat="47.3885" lon="-1.52748">
        <ele>14</ele>
        <time>2023-08-11T15:31:59Z</time>
      </trkpt>
      <trkpt lat="47.38828" lon="-1.52744">
        <ele>15</ele>
        <time>2023-08-11T15:32:28Z</time>
      </trkpt>
      <trkpt lat="47.38808" lon="-1.52748">
        <ele>16</ele>
        <time>2023-08-11T15:32:55Z</time>
      </trkpt>
      <trkpt lat="47.38789" lon="-1.5275">
        <ele>18</ele>
        <time>2023-08-11T15:33:21Z</time>
      </trkpt>
      <trkpt lat="47.38771" lon="-1.52754">
        <ele>19</ele>
        <time>2023-08-11T15:33:45Z</time>
      </trkpt>
      <trkpt lat="47.38743" lon="-1.5275">
        <ele>20</ele>
        <time>2023-08-11T15:34:23Z</time>
      </trkpt>
      <trkpt lat="47.38725" lon="-1.5275">
        <ele>21</ele>
        <time>2023-08-11T15:34:47Z</time>
      </trkpt>
      <trkpt lat="47.38707" lon="-1.52752">
        <ele>21</ele>
        <time>2023-08-11T15:35:11Z</time>
      </trkpt>
      <trkpt lat="47.38686" lon="-1.52757">
        <ele>21</ele>
        <time>2023-08-11T15:35:39Z</time>
      </trkpt>
      <trkpt lat="47.3862" lon="-1.52765">
        <ele>23</ele>
        <time>2023-08-11T15:37:08Z</time>
      </trkpt>
      <trkpt lat="47.38578" lon="-1.52768">
        <ele>24</ele>
        <time>2023-08-11T15:38:04Z</time>
      </trkpt>
      <trkpt lat="47.38499" lon="-1.52768">
        <ele>24</ele>
        <time>2023-08-11T15:39:49Z</time>
      </trkpt>
      <trkpt lat="47.3848" lon="-1.52771">
        <ele>24</ele>
        <time>2023-08-11T15:40:15Z</time>
      </trkpt>
      <trkpt lat="47.38461" lon="-1.52772">
        <ele>24</ele>
        <time>2023-08-11T15:40:40Z</time>
      </trkpt>
      <trkpt lat="47.38409" lon="-1.52772">
        <ele>24</ele>
        <time>2023-08-11T15:41:49Z</time>
      </trkpt>
      <trkpt lat="47.38367" lon="-1.52775">
        <ele>24</ele>
        <time>2023-08-11T15:42:45Z</time>
      </trkpt>
      <trkpt lat="47.38328" lon="-1.52772">
        <ele>24</ele>
        <time>2023-08-11T15:43:38Z</time>
      </trkpt>
      <trkpt lat="47.38283" lon="-1.52768">
        <ele>23</ele>
        <time>2023-08-11T15:44:38Z</time>
      </trkpt>
      <trkpt lat="47.38265" lon="-1.52769">
        <ele>23</ele>
        <time>2023-08-11T15:45:02Z</time>
      </trkpt>
      <trkpt lat="47.38245" lon="-1.52768">
        <ele>23</ele>
        <time>2023-08-11T15:45:28Z</time>
      </trkpt>
      <trkpt lat="47.38227" lon="-1.52773">
        <ele>22</ele>
        <time>2023-08-11T15:45:53Z</time>
      </trkpt>
      <trkpt lat="47.38209" lon="-1.52777">
        <ele>21</ele>
        <time>2023-08-11T15:46:17Z</time>
      </trkpt>
      <trkpt lat="47.3819" lon="-1.52785">
        <ele>21</ele>
        <time>2023-08-11T15:46:44Z</time>
      </trkpt>
      <trkpt lat="47.3813" lon="-1.52837">
        <ele>20</ele>
        <time>2023-08-11T15:48:16Z</time>
      </trkpt>
      <trkpt lat="47.38104" lon="-1.52862">
        <ele>20</ele>
        <time>2023-08-11T15:48:58Z</time>
      </trkpt>
      <trkpt lat="47.38087" lon="-1.52877">
        <ele>20</ele>
        <time>2023-08-11T15:49:24Z</time>
      </trkpt>
      <trkpt lat="47.3807" lon="-1.5289">
        <ele>21</ele>
        <time>2023-08-11T15:49:50Z</time>
      </trkpt>
      <trkpt lat="47.38048" lon="-1.52899">
        <ele>21</ele>
        <time>2023-08-11T15:50:20Z</time>
      </trkpt>
      <trkpt lat="47.3803" lon="-1.52907">
        <ele>21</ele>
        <time>2023-08-11T15:50:45Z</time>
      </trkpt>
      <trkpt lat="47.38012" lon="-1.52902">
        <ele>22</ele>
        <time>2023-08-11T15:51:10Z</time>
      </trkpt>
      <trkpt lat="47.3802" lon="-1.52848">
        <ele>21</ele>
        <time>2023-08-11T15:52:00Z</time>
      </trkpt>
      <trkpt lat="47.38023" lon="-1.52821">
        <ele>20</ele>
        <time>2023-08-11T15:52:24Z</time>
      </trkpt>
      <trkpt lat="47.38025" lon="-1.52792">
        <ele>20</ele>
        <time>2023-08-11T15:52:51Z</time>
      </trkpt>
      <trkpt lat="47.38004" lon="-1.52784">
        <ele>20</ele>
        <time>2023-08-11T15:53:20Z</time>
      </trkpt>
      <trkpt lat="47.37984" lon="-1.52785">
        <ele>20</ele>
        <time>2023-08-11T15:53:46Z</time>
      </trkpt>
      <trkpt lat="47.37964" lon="-1.52786">
        <ele>20</ele>
        <time>2023-08-11T15:54:13Z</time>
      </trkpt>
      <trkpt lat="47.37935" lon="-1.52786">
        <ele>20</ele>
        <time>2023-08-11T15:54:52Z</time>
      </trkpt>
      <trkpt lat="47.37916" lon="-1.52788">
        <ele>19</ele>
        <time>2023-08-11T15:55:17Z</time>
      </trkpt>
      <trkpt lat="47.37897" lon="-1.52787">
        <ele>20</ele>
        <time>2023-08-11T15:55:43Z</time>
      </trkpt>
      <trkpt lat="47.37805" lon="-1.52791">
        <ele>20</ele>
        <time>2023-08-11T15:57:45Z</time>
      </trkpt>
      <trkpt lat="47.37784" lon="-1.52796">
        <ele>20</ele>
        <time>2023-08-11T15:58:14Z</time>
      </trkpt>
      <trkpt lat="47.37764" lon="-1.52798">
        <ele>21</ele>
        <time>2023-08-11T15:58:41Z</time>
      </trkpt>
      <trkpt lat="47.37729" lon="-1.52804">
        <ele>21</ele>
        <time>2023-08-11T15:59:28Z</time>
      </trkpt>
      <trkpt lat="47.37686" lon="-1.52838">
        <ele>22</ele>
        <time>2023-08-11T16:00:33Z</time>
      </trkpt>
      <trkpt lat="47.37657" lon="-1.52867">
        <ele>23</ele>
        <time>2023-08-11T16:01:19Z</time>
      </trkpt>
      <trkpt lat="47.37644" lon="-1.52887">
        <ele>23</ele>
        <time>2023-08-11T16:01:44Z</time>
      </trkpt>
      <trkpt lat="47.3763" lon="-1.52916">
        <ele>24</ele>
        <time>2023-08-11T16:02:17Z</time>
      </trkpt>
      <trkpt lat="47.37597" lon="-1.52978">
        <ele>21</ele>
        <time>2023-08-11T16:03:28Z</time>
      </trkpt>
      <trkpt lat="47.37581" lon="-1.53012">
        <ele>20</ele>
        <time>2023-08-11T16:04:05Z</time>
      </trkpt>
      <trkpt lat="47.37571" lon="-1.53034">
        <ele>19</ele>
        <time>2023-08-11T16:04:29Z</time>
      </trkpt>
      <trkpt lat="47.37554" lon="-1.53078">
        <ele>18</ele>
        <time>2023-08-11T16:05:15Z</time>
      </trkpt>
      <trkpt lat="47.37543" lon="-1.53107">
        <ele>18</ele>
        <time>2023-08-11T16:05:45Z</time>
      </trkpt>
      <trkpt lat="47.37522" lon="-1.53153">
        <ele>17</ele>
        <time>2023-08-11T16:06:35Z</time>
      </trkpt>
      <trkpt lat="47.37505" lon="-1.53194">
        <ele>16</ele>
        <time>2023-08-11T16:07:19Z</time>
      </trkpt>
      <trkpt lat="47.37492" lon="-1.5322">
        <ele>16</ele>
        <time>2023-08-11T16:07:48Z</time>
      </trkpt>
      <trkpt lat="47.37467" lon="-1.53275">
        <ele>15</ele>
        <time>2023-08-11T16:08:48Z</time>
      </trkpt>
      <trkpt lat="47.37429" lon="-1.5336">
        <ele>14</ele>
        <time>2023-08-11T16:10:20Z</time>
      </trkpt>
      <trkpt lat="47.37422" lon="-1.53397">
        <ele>15</ele>
        <time>2023-08-11T16:10:54Z</time>
      </trkpt>
      <trkpt lat="47.37456" lon="-1.53427">
        <ele>15</ele>
        <time>2023-08-11T16:11:47Z</time>
      </trkpt>
      <trkpt lat="47.37492" lon="-1.53453">
        <ele>15</ele>
        <time>2023-08-11T16:12:41Z</time>
      </trkpt>
      <trkpt lat="47.37518" lon="-1.53494">
        <ele>16</ele>
        <time>2023-08-11T16:13:32Z</time>
      </trkpt>
      <trkpt lat="47.37542" lon="-1.53542">
        <ele>18</ele>
        <time>2023-08-11T16:14:26Z</time>
      </trkpt>
      <trkpt lat="47.37597" lon="-1.5363">
        <ele>22</ele>
        <time>2023-08-11T16:16:14Z</time>
      </trkpt>
      <trkpt lat="47.37632" lon="-1.53679">
        <ele>24</ele>
        <time>2023-08-11T16:17:18Z</time>
      </trkpt>
      <trkpt lat="47.37646" lon="-1.53707">
        <ele>25</ele>
        <time>2023-08-11T16:17:50Z</time>
      </trkpt>
      <trkpt lat="47.37594" lon="-1.53774">
        <ele>25</ele>
        <time>2023-08-11T16:19:22Z</time>
      </trkpt>
      <trkpt lat="47.37601" lon="-1.53812">
        <ele>26</ele>
        <time>2023-08-11T16:19:57Z</time>
      </trkpt>
      <trkpt lat="47.3763" lon="-1.53858">
        <ele>28</ele>
        <time>2023-08-11T16:20:54Z</time>
      </trkpt>
      <trkpt lat="47.37641" lon="-1.53931">
        <ele>30</ele>
        <time>2023-08-11T16:22:02Z</time>
      </trkpt>
      <trkpt lat="47.37672" lon="-1.53994">
        <ele>31</ele>
        <time>2023-08-11T16:23:12Z</time>
      </trkpt>
      <trkpt lat="47.37634" lon="-1.54043">
        <ele>30</ele>
        <time>2023-08-11T16:24:19Z</time>
      </trkpt>
      <trkpt lat="47.37593" lon="-1.54065">
        <ele>31</ele>
        <time>2023-08-11T16:25:18Z</time>
      </trkpt>
      <trkpt lat="47.37553" lon="-1.54062">
        <ele>30</ele>
        <time>2023-08-11T16:26:11Z</time>
      </trkpt>
      <trkpt lat="47.3751" lon="-1.54053">
        <ele>29</ele>
        <time>2023-08-11T16:27:09Z</time>
      </trkpt>
      <trkpt lat="47.37464" lon="-1.54047">
        <ele>27</ele>
        <time>2023-08-11T16:28:11Z</time>
      </trkpt>
      <trkpt lat="47.37418" lon="-1.54045">
        <ele>25</ele>
        <time>2023-08-11T16:29:12Z</time>
      </trkpt>
      <trkpt lat="47.37383" lon="-1.54059">
        <ele>25</ele>
        <time>2023-08-11T16:30:00Z</time>
      </trkpt>
      <trkpt lat="47.37365" lon="-1.54065">
        <ele>24</ele>
        <time>2023-08-11T16:30:25Z</time>
      </trkpt>
      <trkpt lat="47.37346" lon="-1.5407">
        <ele>24</ele>
        <time>2023-08-11T16:30:51Z</time>
      </trkpt>
      <trkpt lat="47.37328" lon="-1.54075">
        <ele>24</ele>
        <time>2023-08-11T16:31:15Z</time>
      </trkpt>
      <trkpt lat="47.37309" lon="-1.54079">
        <ele>23</ele>
        <time>2023-08-11T16:31:41Z</time>
      </trkpt>
      <trkpt lat="47.37284" lon="-1.54081">
        <ele>22</ele>
        <time>2023-08-11T16:32:14Z</time>
      </trkpt>
      <trkpt lat="47.37275" lon="-1.5406">
        <ele>22</ele>
        <time>2023-08-11T16:32:37Z</time>
      </trkpt>
      <trkpt lat="47.37259" lon="-1.54044">
        <ele>21</ele>
        <time>2023-08-11T16:33:02Z</time>
      </trkpt>
      <trkpt lat="47.3724" lon="-1.54048">
        <ele>21</ele>
        <time>2023-08-11T16:33:28Z</time>
      </trkpt>
      <trkpt lat="47.37222" lon="-1.54052">
        <ele>21</ele>
        <time>2023-08-11T16:33:52Z</time>
      </trkpt>
      <trkpt lat="47.37203" lon="-1.5406">
        <ele>21</ele>
        <time>2023-08-11T16:34:19Z</time>
      </trkpt>
      <trkpt lat="47.37166" lon="-1.54067">
        <ele>20</ele>
        <time>2023-08-11T16:35:08Z</time>
      </trkpt>
      <trkpt lat="47.37149" lon="-1.54079">
        <ele>20</ele>
        <time>2023-08-11T16:35:34Z</time>
      </trkpt>
      <trkpt lat="47.37137" lon="-1.54099">
        <ele>20</ele>
        <time>2023-08-11T16:35:58Z</time>
      </trkpt>
      <trkpt lat="47.37121" lon="-1.54115">
        <ele>19</ele>
        <time>2023-08-11T16:36:24Z</time>
      </trkpt>
      <trkpt lat="47.37117" lon="-1.54142">
        <ele>19</ele>
        <time>2023-08-11T16:36:49Z</time>
      </trkpt>
      <trkpt lat="47.37103" lon="-1.54159">
        <ele>19</ele>
        <time>2023-08-11T16:37:13Z</time>
      </trkpt>
      <trkpt lat="47.37085" lon="-1.5416">
        <ele>19</ele>
        <time>2023-08-11T16:37:37Z</time>
      </trkpt>
      <trkpt lat="47.37066" lon="-1.54151">
        <ele>19</ele>
        <time>2023-08-11T16:38:03Z</time>
      </trkpt>
      <trkpt lat="47.37049" lon="-1.54141">
        <ele>18</ele>
        <time>2023-08-11T16:38:28Z</time>
      </trkpt>
      <trkpt lat="47.3703" lon="-1.5414">
        <ele>18</ele>
        <time>2023-08-11T16:38:53Z</time>
      </trkpt>
      <trkpt lat="47.37012" lon="-1.54147">
        <ele>18</ele>
        <time>2023-08-11T16:39:18Z</time>
      </trkpt>
      <trkpt lat="47.36995" lon="-1.54156">
        <ele>18</ele>
        <time>2023-08-11T16:39:42Z</time>
      </trkpt>
      <trkpt lat="47.36977" lon="-1.54165">
        <ele>19</ele>
        <time>2023-08-11T16:40:07Z</time>
      </trkpt>
      <trkpt lat="47.3696" lon="-1.54172">
        <ele>19</ele>
        <time>2023-08-11T16:40:31Z</time>
      </trkpt>
      <trkpt lat="47.36941" lon="-1.54177">
        <ele>20</ele>
        <time>2023-08-11T16:40:57Z</time>
      </trkpt>
      <trkpt lat="47.36924" lon="-1.54187">
        <ele>20</ele>
        <time>2023-08-11T16:41:21Z</time>
      </trkpt>
      <trkpt lat="47.36907" lon="-1.54199">
        <ele>20</ele>
        <time>2023-08-11T16:41:46Z</time>
      </trkpt>
      <trkpt lat="47.3689" lon="-1.54211">
        <ele>20</ele>
        <time>2023-08-11T16:42:11Z</time>
      </trkpt>
      <trkpt lat="47.36873" lon="-1.54221">
        <ele>20</ele>
        <time>2023-08-11T16:42:36Z</time>
      </trkpt>
      <trkpt lat="47.36856" lon="-1.54234">
        <ele>19</ele>
        <time>2023-08-11T16:43:01Z</time>
      </trkpt>
      <trkpt lat="47.36839" lon="-1.54244">
        <ele>19</ele>
        <time>2023-08-11T16:43:26Z</time>
      </trkpt>
      <trkpt lat="47.36822" lon="-1.54258">
        <ele>19</ele>
        <time>2023-08-11T16:43:52Z</time>
      </trkpt>
      <trkpt lat="47.36808" lon="-1.54276">
        <ele>20</ele>
        <time>2023-08-11T16:44:17Z</time>
      </trkpt>
      <trkpt lat="47.3679" lon="-1.54286">
        <ele>20</ele>
        <time>2023-08-11T16:44:42Z</time>
      </trkpt>
      <trkpt lat="47.36773" lon="-1.54298">
        <ele>20</ele>
        <time>2023-08-11T16:45:07Z</time>
      </trkpt>
      <trkpt lat="47.36756" lon="-1.54309">
        <ele>20</ele>
        <time>2023-08-11T16:45:32Z</time>
      </trkpt>
      <trkpt lat="47.36737" lon="-1.54314">
        <ele>20</ele>
        <time>2023-08-11T16:45:58Z</time>
      </trkpt>
      <trkpt lat="47.36719" lon="-1.54322">
        <ele>19</ele>
        <time>2023-08-11T16:46:23Z</time>
      </trkpt>
      <trkpt lat="47.36702" lon="-1.54329">
        <ele>19</ele>
        <time>2023-08-11T16:46:47Z</time>
      </trkpt>
      <trkpt lat="47.36684" lon="-1.54338">
        <ele>19</ele>
        <time>2023-08-11T16:47:12Z</time>
      </trkpt>
      <trkpt lat="47.36666" lon="-1.54341">
        <ele>19</ele>
        <time>2023-08-11T16:47:36Z</time>
      </trkpt>
      <trkpt lat="47.3663" lon="-1.54345">
        <ele>19</ele>
        <time>2023-08-11T16:48:24Z</time>
      </trkpt>
      <trkpt lat="47.36612" lon="-1.54348">
        <ele>19</ele>
        <time>2023-08-11T16:48:48Z</time>
      </trkpt>
      <trkpt lat="47.36593" lon="-1.54349">
        <ele>19</ele>
        <time>2023-08-11T16:49:14Z</time>
      </trkpt>
      <trkpt lat="47.36574" lon="-1.54347">
        <ele>19</ele>
        <time>2023-08-11T16:49:39Z</time>
      </trkpt>
      <trkpt lat="47.36555" lon="-1.54347">
        <ele>19</ele>
        <time>2023-08-11T16:50:05Z</time>
      </trkpt>
      <trkpt lat="47.36536" lon="-1.54343">
        <ele>20</ele>
        <time>2023-08-11T16:50:30Z</time>
      </trkpt>
      <trkpt lat="47.36519" lon="-1.54337">
        <ele>20</ele>
        <time>2023-08-11T16:50:54Z</time>
      </trkpt>
      <trkpt lat="47.36503" lon="-1.54325">
        <ele>20</ele>
        <time>2023-08-11T16:51:18Z</time>
      </trkpt>
      <trkpt lat="47.36486" lon="-1.54314">
        <ele>20</ele>
        <time>2023-08-11T16:51:42Z</time>
      </trkpt>
      <trkpt lat="47.36472" lon="-1.54296">
        <ele>20</ele>
        <time>2023-08-11T16:52:07Z</time>
      </trkpt>
      <trkpt lat="47.36455" lon="-1.54286">
        <ele>20</ele>
        <time>2023-08-11T16:52:31Z</time>
      </trkpt>
      <trkpt lat="47.36437" lon="-1.54279">
        <ele>20</ele>
        <time>2023-08-11T16:52:56Z</time>
      </trkpt>
      <trkpt lat="47.36418" lon="-1.54277">
        <ele>20</ele>
        <time>2023-08-11T16:53:22Z</time>
      </trkpt>
      <trkpt lat="47.364" lon="-1.54272">
        <ele>20</ele>
        <time>2023-08-11T16:53:46Z</time>
      </trkpt>
      <trkpt lat="47.36381" lon="-1.54266">
        <ele>21</ele>
        <time>2023-08-11T16:54:12Z</time>
      </trkpt>
      <trkpt lat="47.36363" lon="-1.54262">
        <ele>21</ele>
        <time>2023-08-11T16:54:36Z</time>
      </trkpt>
      <trkpt lat="47.36327" lon="-1.54254">
        <ele>22</ele>
        <time>2023-08-11T16:55:25Z</time>
      </trkpt>
      <trkpt lat="47.36309" lon="-1.5425">
        <ele>23</ele>
        <time>2023-08-11T16:55:49Z</time>
      </trkpt>
      <trkpt lat="47.3629" lon="-1.54245">
        <ele>24</ele>
        <time>2023-08-11T16:56:15Z</time>
      </trkpt>
      <trkpt lat="47.36272" lon="-1.5424">
        <ele>24</ele>
        <time>2023-08-11T16:56:39Z</time>
      </trkpt>
      <trkpt lat="47.36255" lon="-1.54228">
        <ele>25</ele>
        <time>2023-08-11T16:57:05Z</time>
      </trkpt>
      <trkpt lat="47.36238" lon="-1.54217">
        <ele>25</ele>
        <time>2023-08-11T16:57:29Z</time>
      </trkpt>
      <trkpt lat="47.3622" lon="-1.5421">
        <ele>26</ele>
        <time>2023-08-11T16:57:54Z</time>
      </trkpt>
      <trkpt lat="47.36203" lon="-1.54197">
        <ele>26</ele>
        <time>2023-08-11T16:58:20Z</time>
      </trkpt>
      <trkpt lat="47.36187" lon="-1.54184">
        <ele>26</ele>
        <time>2023-08-11T16:58:44Z</time>
      </trkpt>
      <trkpt lat="47.36178" lon="-1.54161">
        <ele>27</ele>
        <time>2023-08-11T16:59:08Z</time>
      </trkpt>
      <trkpt lat="47.36179" lon="-1.54133">
        <ele>27</ele>
        <time>2023-08-11T16:59:33Z</time>
      </trkpt>
      <trkpt lat="47.36178" lon="-1.54106">
        <ele>27</ele>
        <time>2023-08-11T16:59:58Z</time>
      </trkpt>
      <trkpt lat="47.3618" lon="-1.5408">
        <ele>27</ele>
        <time>2023-08-11T17:00:22Z</time>
      </trkpt>
      <trkpt lat="47.3618" lon="-1.54051">
        <ele>26</ele>
        <time>2023-08-11T17:00:48Z</time>
      </trkpt>
      <trkpt lat="47.36186" lon="-1.54025">
        <ele>26</ele>
        <time>2023-08-11T17:01:13Z</time>
      </trkpt>
      <trkpt lat="47.36186" lon="-1.53999">
        <ele>26</ele>
        <time>2023-08-11T17:01:36Z</time>
      </trkpt>
      <trkpt lat="47.36183" lon="-1.53972">
        <ele>26</ele>
        <time>2023-08-11T17:02:01Z</time>
      </trkpt>
      <trkpt lat="47.36182" lon="-1.53944">
        <ele>26</ele>
        <time>2023-08-11T17:02:26Z</time>
      </trkpt>
      <trkpt lat="47.36177" lon="-1.53917">
        <ele>26</ele>
        <time>2023-08-11T17:02:52Z</time>
      </trkpt>
      <trkpt lat="47.36176" lon="-1.53889">
        <ele>26</ele>
        <time>2023-08-11T17:03:17Z</time>
      </trkpt>
      <trkpt lat="47.36178" lon="-1.53834">
        <ele>27</ele>
        <time>2023-08-11T17:04:07Z</time>
      </trkpt>
      <trkpt lat="47.3618" lon="-1.53807">
        <ele>27</ele>
        <time>2023-08-11T17:04:31Z</time>
      </trkpt>
      <trkpt lat="47.3619" lon="-1.53782">
        <ele>27</ele>
        <time>2023-08-11T17:04:57Z</time>
      </trkpt>
      <trkpt lat="47.36205" lon="-1.53764">
        <ele>27</ele>
        <time>2023-08-11T17:05:23Z</time>
      </trkpt>
      <trkpt lat="47.36221" lon="-1.53752">
        <ele>27</ele>
        <time>2023-08-11T17:05:47Z</time>
      </trkpt>
      <trkpt lat="47.36238" lon="-1.53741">
        <ele>27</ele>
        <time>2023-08-11T17:06:12Z</time>
      </trkpt>
      <trkpt lat="47.36254" lon="-1.53729">
        <ele>27</ele>
        <time>2023-08-11T17:06:36Z</time>
      </trkpt>
      <trkpt lat="47.36262" lon="-1.53704">
        <ele>27</ele>
        <time>2023-08-11T17:07:01Z</time>
      </trkpt>
      <trkpt lat="47.36272" lon="-1.53681">
        <ele>27</ele>
        <time>2023-08-11T17:07:26Z</time>
      </trkpt>
      <trkpt lat="47.36284" lon="-1.53659">
        <ele>26</ele>
        <time>2023-08-11T17:07:51Z</time>
      </trkpt>
      <trkpt lat="47.36289" lon="-1.53632">
        <ele>26</ele>
        <time>2023-08-11T17:08:16Z</time>
      </trkpt>
      <trkpt lat="47.36288" lon="-1.53603">
        <ele>25</ele>
        <time>2023-08-11T17:08:43Z</time>
      </trkpt>
      <trkpt lat="47.3629" lon="-1.53575">
        <ele>25</ele>
        <time>2023-08-11T17:09:08Z</time>
      </trkpt>
      <trkpt lat="47.36287" lon="-1.53548">
        <ele>24</ele>
        <time>2023-08-11T17:09:33Z</time>
      </trkpt>
      <trkpt lat="47.36286" lon="-1.53521">
        <ele>24</ele>
        <time>2023-08-11T17:09:57Z</time>
      </trkpt>
      <trkpt lat="47.36288" lon="-1.53493">
        <ele>23</ele>
        <time>2023-08-11T17:10:23Z</time>
      </trkpt>
      <trkpt lat="47.36287" lon="-1.53466">
        <ele>22</ele>
        <time>2023-08-11T17:10:47Z</time>
      </trkpt>
      <trkpt lat="47.36288" lon="-1.53438">
        <ele>21</ele>
        <time>2023-08-11T17:11:13Z</time>
      </trkpt>
      <trkpt lat="47.3629" lon="-1.53411">
        <ele>20</ele>
        <time>2023-08-11T17:11:37Z</time>
      </trkpt>
      <trkpt lat="47.36289" lon="-1.53384">
        <ele>19</ele>
        <time>2023-08-11T17:12:02Z</time>
      </trkpt>
      <trkpt lat="47.36295" lon="-1.53356">
        <ele>18</ele>
        <time>2023-08-11T17:12:28Z</time>
      </trkpt>
      <trkpt lat="47.36296" lon="-1.53328">
        <ele>18</ele>
        <time>2023-08-11T17:12:53Z</time>
      </trkpt>
      <trkpt lat="47.36294" lon="-1.533">
        <ele>18</ele>
        <time>2023-08-11T17:13:19Z</time>
      </trkpt>
      <trkpt lat="47.36293" lon="-1.53271">
        <ele>18</ele>
        <time>2023-08-11T17:13:45Z</time>
      </trkpt>
      <trkpt lat="47.36278" lon="-1.53255">
        <ele>17</ele>
        <time>2023-08-11T17:14:10Z</time>
      </trkpt>
      <trkpt lat="47.36259" lon="-1.53249">
        <ele>17</ele>
        <time>2023-08-11T17:14:36Z</time>
      </trkpt>
      <trkpt lat="47.36242" lon="-1.53241">
        <ele>17</ele>
        <time>2023-08-11T17:15:00Z</time>
      </trkpt>
      <trkpt lat="47.36224" lon="-1.53234">
        <ele>17</ele>
        <time>2023-08-11T17:15:24Z</time>
      </trkpt>
      <trkpt lat="47.36205" lon="-1.53228">
        <ele>17</ele>
        <time>2023-08-11T17:15:50Z</time>
      </trkpt>
      <trkpt lat="47.36187" lon="-1.5322">
        <ele>17</ele>
        <time>2023-08-11T17:16:15Z</time>
      </trkpt>
      <trkpt lat="47.36169" lon="-1.53216">
        <ele>17</ele>
        <time>2023-08-11T17:16:40Z</time>
      </trkpt>
      <trkpt lat="47.3615" lon="-1.53218">
        <ele>18</ele>
        <time>2023-08-11T17:17:05Z</time>
      </trkpt>
      <trkpt lat="47.36112" lon="-1.53221">
        <ele>18</ele>
        <time>2023-08-11T17:17:56Z</time>
      </trkpt>
      <trkpt lat="47.36094" lon="-1.5322">
        <ele>19</ele>
        <time>2023-08-11T17:18:20Z</time>
      </trkpt>
      <trkpt lat="47.36039" lon="-1.53223">
        <ele>20</ele>
        <time>2023-08-11T17:19:33Z</time>
      </trkpt>
      <trkpt lat="47.36029" lon="-1.532">
        <ele>20</ele>
        <time>2023-08-11T17:19:58Z</time>
      </trkpt>
      <trkpt lat="47.36026" lon="-1.53174">
        <ele>20</ele>
        <time>2023-08-11T17:20:22Z</time>
      </trkpt>
      <trkpt lat="47.36027" lon="-1.53143">
        <ele>20</ele>
        <time>2023-08-11T17:20:50Z</time>
      </trkpt>
      <trkpt lat="47.36025" lon="-1.53114">
        <ele>20</ele>
        <time>2023-08-11T17:21:16Z</time>
      </trkpt>
      <trkpt lat="47.36018" lon="-1.53091">
        <ele>21</ele>
        <time>2023-08-11T17:21:39Z</time>
      </trkpt>
      <trkpt lat="47.36011" lon="-1.53071">
        <ele>21</ele>
        <time>2023-08-11T17:21:59Z</time>
      </trkpt>
      <trkpt lat="47.36007" lon="-1.53039">
        <ele>21</ele>
        <time>2023-08-11T17:22:29Z</time>
      </trkpt>
      <trkpt lat="47.36007" lon="-1.53016">
        <ele>21</ele>
        <time>2023-08-11T17:22:50Z</time>
      </trkpt>
      <trkpt lat="47.35992" lon="-1.52965">
        <ele>21</ele>
        <time>2023-08-11T17:23:40Z</time>
      </trkpt>
      <trkpt lat="47.35989" lon="-1.52938">
        <ele>20</ele>
        <time>2023-08-11T17:24:05Z</time>
      </trkpt>
      <trkpt lat="47.35989" lon="-1.52911">
        <ele>20</ele>
        <time>2023-08-11T17:24:29Z</time>
      </trkpt>
      <trkpt lat="47.36004" lon="-1.52894">
        <ele>20</ele>
        <time>2023-08-11T17:24:54Z</time>
      </trkpt>
      <trkpt lat="47.3604" lon="-1.52891">
        <ele>20</ele>
        <time>2023-08-11T17:25:42Z</time>
      </trkpt>
      <trkpt lat="47.36058" lon="-1.52887">
        <ele>19</ele>
        <time>2023-08-11T17:26:07Z</time>
      </trkpt>
      <trkpt lat="47.36077" lon="-1.52885">
        <ele>19</ele>
        <time>2023-08-11T17:26:32Z</time>
      </trkpt>
      <trkpt lat="47.36096" lon="-1.52886">
        <ele>19</ele>
        <time>2023-08-11T17:26:58Z</time>
      </trkpt>
      <trkpt lat="47.36132" lon="-1.5289">
        <ele>18</ele>
        <time>2023-08-11T17:27:46Z</time>
      </trkpt>
      <trkpt lat="47.36151" lon="-1.52889">
        <ele>17</ele>
        <time>2023-08-11T17:28:11Z</time>
      </trkpt>
      <trkpt lat="47.36169" lon="-1.52891">
        <ele>17</ele>
        <time>2023-08-11T17:28:35Z</time>
      </trkpt>
      <trkpt lat="47.36186" lon="-1.52879">
        <ele>16</ele>
        <time>2023-08-11T17:29:00Z</time>
      </trkpt>
      <trkpt lat="47.36191" lon="-1.52825">
        <ele>16</ele>
        <time>2023-08-11T17:29:50Z</time>
      </trkpt>
      <trkpt lat="47.36191" lon="-1.52798">
        <ele>17</ele>
        <time>2023-08-11T17:30:14Z</time>
      </trkpt>
      <trkpt lat="47.36193" lon="-1.52771">
        <ele>17</ele>
        <time>2023-08-11T17:30:39Z</time>
      </trkpt>
      <trkpt lat="47.3619" lon="-1.52718">
        <ele>17</ele>
        <time>2023-08-11T17:31:27Z</time>
      </trkpt>
      <trkpt lat="47.36202" lon="-1.52698">
        <ele>17</ele>
        <time>2023-08-11T17:31:51Z</time>
      </trkpt>
      <trkpt lat="47.36246" lon="-1.52646">
        <ele>15</ele>
        <time>2023-08-11T17:33:06Z</time>
      </trkpt>
      <trkpt lat="47.36262" lon="-1.52631">
        <ele>14</ele>
        <time>2023-08-11T17:33:31Z</time>
      </trkpt>
      <trkpt lat="47.36277" lon="-1.52615">
        <ele>13</ele>
        <time>2023-08-11T17:33:56Z</time>
      </trkpt>
      <trkpt lat="47.36292" lon="-1.52599">
        <ele>12</ele>
        <time>2023-08-11T17:34:21Z</time>
      </trkpt>
      <trkpt lat="47.36304" lon="-1.52577">
        <ele>12</ele>
        <time>2023-08-11T17:34:46Z</time>
      </trkpt>
      <trkpt lat="47.3631" lon="-1.52551">
        <ele>11</ele>
        <time>2023-08-11T17:35:11Z</time>
      </trkpt>
      <trkpt lat="47.36314" lon="-1.52525">
        <ele>11</ele>
        <time>2023-08-11T17:35:35Z</time>
      </trkpt>
      <trkpt lat="47.36332" lon="-1.5252">
        <ele>10</ele>
        <time>2023-08-11T17:36:00Z</time>
      </trkpt>
      <trkpt lat="47.36348" lon="-1.52536">
        <ele>10</ele>
        <time>2023-08-11T17:36:25Z</time>
      </trkpt>
      <trkpt lat="47.36363" lon="-1.52554">
        <ele>9</ele>
        <time>2023-08-11T17:36:51Z</time>
      </trkpt>
      <trkpt lat="47.36386" lon="-1.52598">
        <ele>9</ele>
        <time>2023-08-11T17:37:41Z</time>
      </trkpt>
      <trkpt lat="47.36399" lon="-1.52616">
        <ele>8</ele>
        <time>2023-08-11T17:38:05Z</time>
      </trkpt>
      <trkpt lat="47.36416" lon="-1.5263">
        <ele>8</ele>
        <time>2023-08-11T17:38:31Z</time>
      </trkpt>
      <trkpt lat="47.36433" lon="-1.5264">
        <ele>8</ele>
        <time>2023-08-11T17:38:56Z</time>
      </trkpt>
      <trkpt lat="47.36452" lon="-1.52636">
        <ele>8</ele>
        <time>2023-08-11T17:39:21Z</time>
      </trkpt>
      <trkpt lat="47.3647" lon="-1.52632">
        <ele>8</ele>
        <time>2023-08-11T17:39:45Z</time>
      </trkpt>
      <trkpt lat="47.36488" lon="-1.52627">
        <ele>8</ele>
        <time>2023-08-11T17:40:10Z</time>
      </trkpt>
      <trkpt lat="47.36505" lon="-1.52619">
        <ele>9</ele>
        <time>2023-08-11T17:40:34Z</time>
      </trkpt>
      <trkpt lat="47.36523" lon="-1.52611">
        <ele>9</ele>
        <time>2023-08-11T17:40:59Z</time>
      </trkpt>
      <trkpt lat="47.36555" lon="-1.52586">
        <ele>11</ele>
        <time>2023-08-11T17:41:47Z</time>
      </trkpt>
      <trkpt lat="47.36568" lon="-1.52565">
        <ele>11</ele>
        <time>2023-08-11T17:42:13Z</time>
      </trkpt>
      <trkpt lat="47.36579" lon="-1.52544">
        <ele>11</ele>
        <time>2023-08-11T17:42:37Z</time>
      </trkpt>
      <trkpt lat="47.36593" lon="-1.52525">
        <ele>11</ele>
        <time>2023-08-11T17:43:02Z</time>
      </trkpt>
      <trkpt lat="47.36605" lon="-1.52504">
        <ele>11</ele>
        <time>2023-08-11T17:43:27Z</time>
      </trkpt>
      <trkpt lat="47.36612" lon="-1.52478">
        <ele>10</ele>
        <time>2023-08-11T17:43:52Z</time>
      </trkpt>
      <trkpt lat="47.36622" lon="-1.52455">
        <ele>10</ele>
        <time>2023-08-11T17:44:17Z</time>
      </trkpt>
      <trkpt lat="47.36633" lon="-1.52403">
        <ele>10</ele>
        <time>2023-08-11T17:45:06Z</time>
      </trkpt>
      <trkpt lat="47.36637" lon="-1.52349">
        <ele>11</ele>
        <time>2023-08-11T17:45:55Z</time>
      </trkpt>
      <trkpt lat="47.3664" lon="-1.52323">
        <ele>11</ele>
        <time>2023-08-11T17:46:19Z</time>
      </trkpt>
      <trkpt lat="47.36642" lon="-1.52295">
        <ele>11</ele>
        <time>2023-08-11T17:46:45Z</time>
      </trkpt>
      <trkpt lat="47.36645" lon="-1.52267">
        <ele>11</ele>
        <time>2023-08-11T17:47:10Z</time>
      </trkpt>
      <trkpt lat="47.3665" lon="-1.52241">
        <ele>11</ele>
        <time>2023-08-11T17:47:35Z</time>
      </trkpt>
      <trkpt lat="47.36656" lon="-1.52216">
        <ele>11</ele>
        <time>2023-08-11T17:47:59Z</time>
      </trkpt>
      <trkpt lat="47.36667" lon="-1.52194">
        <ele>11</ele>
        <time>2023-08-11T17:48:23Z</time>
      </trkpt>
      <trkpt lat="47.36676" lon="-1.52171">
        <ele>11</ele>
        <time>2023-08-11T17:48:47Z</time>
      </trkpt>
      <trkpt lat="47.36685" lon="-1.52148">
        <ele>11</ele>
        <time>2023-08-11T17:49:11Z</time>
      </trkpt>
      <trkpt lat="47.36696" lon="-1.52124">
        <ele>10</ele>
        <time>2023-08-11T17:49:38Z</time>
      </trkpt>
      <trkpt lat="47.36723" lon="-1.52052">
        <ele>9</ele>
        <time>2023-08-11T17:50:52Z</time>
      </trkpt>
      <trkpt lat="47.3673" lon="-1.52026">
        <ele>9</ele>
        <time>2023-08-11T17:51:17Z</time>
      </trkpt>
      <trkpt lat="47.36742" lon="-1.52006">
        <ele>8</ele>
        <time>2023-08-11T17:51:41Z</time>
      </trkpt>
      <trkpt lat="47.36751" lon="-1.51981">
        <ele>8</ele>
        <time>2023-08-11T17:52:07Z</time>
      </trkpt>
      <trkpt lat="47.36762" lon="-1.51959">
        <ele>8</ele>
        <time>2023-08-11T17:52:32Z</time>
      </trkpt>
      <trkpt lat="47.36772" lon="-1.51936">
        <ele>8</ele>
        <time>2023-08-11T17:52:56Z</time>
      </trkpt>
      <trkpt lat="47.36777" lon="-1.51909">
        <ele>8</ele>
        <time>2023-08-11T17:53:22Z</time>
      </trkpt>
      <trkpt lat="47.36787" lon="-1.51887">
        <ele>8</ele>
        <time>2023-08-11T17:53:46Z</time>
      </trkpt>
      <trkpt lat="47.36796" lon="-1.51863">
        <ele>9</ele>
        <time>2023-08-11T17:54:10Z</time>
      </trkpt>
      <trkpt lat="47.36803" lon="-1.51836">
        <ele>9</ele>
        <time>2023-08-11T17:54:37Z</time>
      </trkpt>
      <trkpt lat="47.36805" lon="-1.51809">
        <ele>9</ele>
        <time>2023-08-11T17:55:01Z</time>
      </trkpt>
      <trkpt lat="47.36803" lon="-1.51781">
        <ele>8</ele>
        <time>2023-08-11T17:55:27Z</time>
      </trkpt>
      <trkpt lat="47.36796" lon="-1.51725">
        <ele>9</ele>
        <time>2023-08-11T17:56:18Z</time>
      </trkpt>
      <trkpt lat="47.36796" lon="-1.51698">
        <ele>9</ele>
        <time>2023-08-11T17:56:42Z</time>
      </trkpt>
      <trkpt lat="47.36749" lon="-1.51533">
        <ele>11</ele>
        <time>2023-08-11T17:59:24Z</time>
      </trkpt>
      <trkpt lat="47.36705" lon="-1.51356">
        <ele>8</ele>
        <time>2023-08-11T18:02:15Z</time>
      </trkpt>
      <trkpt lat="47.36718" lon="-1.51208">
        <ele>7</ele>
        <time>2023-08-11T18:04:30Z</time>
      </trkpt>
      <trkpt lat="47.36577" lon="-1.50814">
        <ele>6</ele>
        <time>2023-08-11T18:11:12Z</time>
      </trkpt>
      <trkpt lat="47.36599" lon="-1.50671">
        <ele>8</ele>
        <time>2023-08-11T18:13:25Z</time>
      </trkpt>
      <trkpt lat="47.36589" lon="-1.50542">
        <ele>8</ele>
        <time>2023-08-11T18:15:22Z</time>
      </trkpt>
      <trkpt lat="47.36522" lon="-1.50457">
        <ele>8</ele>
        <time>2023-08-11T18:17:20Z</time>
      </trkpt>
      <trkpt lat="47.36433" lon="-1.50575">
        <ele>8</ele>
        <time>2023-08-11T18:20:00Z</time>
      </trkpt>
      <trkpt lat="47.36457" lon="-1.50716">
        <ele>8</ele>
        <time>2023-08-11T18:22:11Z</time>
      </trkpt>
      <trkpt lat="47.36372" lon="-1.50781">
        <ele>6</ele>
        <time>2023-08-11T18:24:19Z</time>
      </trkpt>
      <trkpt lat="47.36329" lon="-1.50813">
        <ele>6</ele>
        <time>2023-08-11T18:25:23Z</time>
      </trkpt>
    </trkseg>
  </trk>
  <trk>
    <name><![CDATA[Casson_CheminsCreuxVariante_13.7km-10502565]]></name>
    <extensions>
      <line xmlns="http://www.topografix.com/GPX/gpx_style/0/2">
        <color>00FF00</color>
        <width>4</width>
      </line>
    </extensions>
    <trkseg>
      <trkpt lat="47.40209" lon="-1.53676">
        <ele>10</ele>
        <time>2023-10-31T20:22:00Z</time>
      </trkpt>
      <trkpt lat="47.40208" lon="-1.53677">
        <ele>10</ele>
        <time>2023-10-31T20:22:02Z</time>
      </trkpt>
      <trkpt lat="47.4021" lon="-1.53676">
        <ele>10</ele>
        <time>2023-10-31T20:22:04Z</time>
      </trkpt>
      <trkpt lat="47.4021" lon="-1.53679">
        <ele>10</ele>
        <time>2023-10-31T20:22:07Z</time>
      </trkpt>
      <trkpt lat="47.40208" lon="-1.53667">
        <ele>10</ele>
        <time>2023-10-31T20:22:18Z</time>
      </trkpt>
      <trkpt lat="47.40212" lon="-1.53691">
        <ele>10</ele>
        <time>2023-10-31T20:22:41Z</time>
      </trkpt>
      <trkpt lat="47.40213" lon="-1.53731">
        <ele>11</ele>
        <time>2023-10-31T20:23:17Z</time>
      </trkpt>
      <trkpt lat="47.40224" lon="-1.53771">
        <ele>11</ele>
        <time>2023-10-31T20:23:56Z</time>
      </trkpt>
      <trkpt lat="47.40228" lon="-1.53798">
        <ele>11</ele>
        <time>2023-10-31T20:24:21Z</time>
      </trkpt>
      <trkpt lat="47.40225" lon="-1.53804">
        <ele>11</ele>
        <time>2023-10-31T20:24:27Z</time>
      </trkpt>
      <trkpt lat="47.40217" lon="-1.53712">
        <ele>10</ele>
        <time>2023-10-31T20:25:51Z</time>
      </trkpt>
      <trkpt lat="47.40207" lon="-1.53672">
        <ele>10</ele>
        <time>2023-10-31T20:26:30Z</time>
      </trkpt>
      <trkpt lat="47.40207" lon="-1.53653">
        <ele>10</ele>
        <time>2023-10-31T20:26:47Z</time>
      </trkpt>
      <trkpt lat="47.40215" lon="-1.53636">
        <ele>9</ele>
        <time>2023-10-31T20:27:06Z</time>
      </trkpt>
      <trkpt lat="47.40219" lon="-1.53635">
        <ele>9</ele>
        <time>2023-10-31T20:27:11Z</time>
      </trkpt>
      <trkpt lat="47.40225" lon="-1.53642">
        <ele>9</ele>
        <time>2023-10-31T20:27:21Z</time>
      </trkpt>
      <trkpt lat="47.4023" lon="-1.53681">
        <ele>9</ele>
        <time>2023-10-31T20:27:57Z</time>
      </trkpt>
      <trkpt lat="47.40242" lon="-1.53722">
        <ele>10</ele>
        <time>2023-10-31T20:28:37Z</time>
      </trkpt>
      <trkpt lat="47.40251" lon="-1.53747">
        <ele>10</ele>
        <time>2023-10-31T20:29:03Z</time>
      </trkpt>
      <trkpt lat="47.40254" lon="-1.5375">
        <ele>10</ele>
        <time>2023-10-31T20:29:08Z</time>
      </trkpt>
      <trkpt lat="47.40267" lon="-1.53793">
        <ele>10</ele>
        <time>2023-10-31T20:29:50Z</time>
      </trkpt>
      <trkpt lat="47.40275" lon="-1.53802">
        <ele>10</ele>
        <time>2023-10-31T20:30:04Z</time>
      </trkpt>
      <trkpt lat="47.40277" lon="-1.53827">
        <ele>10</ele>
        <time>2023-10-31T20:30:27Z</time>
      </trkpt>
      <trkpt lat="47.4027" lon="-1.53831">
        <ele>10</ele>
        <time>2023-10-31T20:30:37Z</time>
      </trkpt>
      <trkpt lat="47.40268" lon="-1.53842">
        <ele>10</ele>
        <time>2023-10-31T20:30:47Z</time>
      </trkpt>
      <trkpt lat="47.40281" lon="-1.53833">
        <ele>10</ele>
        <time>2023-10-31T20:31:06Z</time>
      </trkpt>
      <trkpt lat="47.40293" lon="-1.53831">
        <ele>11</ele>
        <time>2023-10-31T20:31:22Z</time>
      </trkpt>
      <trkpt lat="47.40315" lon="-1.53835">
        <ele>11</ele>
        <time>2023-10-31T20:31:52Z</time>
      </trkpt>
      <trkpt lat="47.40318" lon="-1.53837">
        <ele>11</ele>
        <time>2023-10-31T20:31:56Z</time>
      </trkpt>
      <trkpt lat="47.40352" lon="-1.53841">
        <ele>11</ele>
        <time>2023-10-31T20:32:42Z</time>
      </trkpt>
      <trkpt lat="47.40357" lon="-1.53859">
        <ele>11</ele>
        <time>2023-10-31T20:32:59Z</time>
      </trkpt>
      <trkpt lat="47.40354" lon="-1.54013">
        <ele>15</ele>
        <time>2023-10-31T20:35:18Z</time>
      </trkpt>
      <trkpt lat="47.40361" lon="-1.54037">
        <ele>15</ele>
        <time>2023-10-31T20:35:42Z</time>
      </trkpt>
      <trkpt lat="47.40373" lon="-1.54056">
        <ele>16</ele>
        <time>2023-10-31T20:36:05Z</time>
      </trkpt>
      <trkpt lat="47.40387" lon="-1.54071">
        <ele>17</ele>
        <time>2023-10-31T20:36:28Z</time>
      </trkpt>
      <trkpt lat="47.40392" lon="-1.54102">
        <ele>18</ele>
        <time>2023-10-31T20:36:57Z</time>
      </trkpt>
      <trkpt lat="47.40366" lon="-1.54362">
        <ele>18</ele>
        <time>2023-10-31T20:40:55Z</time>
      </trkpt>
      <trkpt lat="47.40365" lon="-1.54403">
        <ele>16</ele>
        <time>2023-10-31T20:41:32Z</time>
      </trkpt>
      <trkpt lat="47.40379" lon="-1.54435">
        <ele>16</ele>
        <time>2023-10-31T20:42:06Z</time>
      </trkpt>
      <trkpt lat="47.40403" lon="-1.54471">
        <ele>15</ele>
        <time>2023-10-31T20:42:52Z</time>
      </trkpt>
      <trkpt lat="47.40467" lon="-1.54561">
        <ele>15</ele>
        <time>2023-10-31T20:44:50Z</time>
      </trkpt>
      <trkpt lat="47.405" lon="-1.54609">
        <ele>16</ele>
        <time>2023-10-31T20:45:51Z</time>
      </trkpt>
      <trkpt lat="47.40519" lon="-1.54633">
        <ele>16</ele>
        <time>2023-10-31T20:46:25Z</time>
      </trkpt>
      <trkpt lat="47.40531" lon="-1.54657">
        <ele>15</ele>
        <time>2023-10-31T20:46:52Z</time>
      </trkpt>
      <trkpt lat="47.40538" lon="-1.54685">
        <ele>15</ele>
        <time>2023-10-31T20:47:19Z</time>
      </trkpt>
      <trkpt lat="47.40544" lon="-1.54718">
        <ele>15</ele>
        <time>2023-10-31T20:47:50Z</time>
      </trkpt>
      <trkpt lat="47.40559" lon="-1.5476">
        <ele>14</ele>
        <time>2023-10-31T20:48:32Z</time>
      </trkpt>
      <trkpt lat="47.40583" lon="-1.54821">
        <ele>15</ele>
        <time>2023-10-31T20:49:36Z</time>
      </trkpt>
      <trkpt lat="47.4059" lon="-1.5488">
        <ele>15</ele>
        <time>2023-10-31T20:50:30Z</time>
      </trkpt>
      <trkpt lat="47.40605" lon="-1.5494">
        <ele>16</ele>
        <time>2023-10-31T20:51:28Z</time>
      </trkpt>
      <trkpt lat="47.40624" lon="-1.55037">
        <ele>16</ele>
        <time>2023-10-31T20:52:59Z</time>
      </trkpt>
      <trkpt lat="47.40636" lon="-1.55124">
        <ele>17</ele>
        <time>2023-10-31T20:54:19Z</time>
      </trkpt>
      <trkpt lat="47.40636" lon="-1.55148">
        <ele>18</ele>
        <time>2023-10-31T20:54:41Z</time>
      </trkpt>
      <trkpt lat="47.40645" lon="-1.55202">
        <ele>19</ele>
        <time>2023-10-31T20:55:31Z</time>
      </trkpt>
      <trkpt lat="47.40653" lon="-1.55263">
        <ele>21</ele>
        <time>2023-10-31T20:56:27Z</time>
      </trkpt>
      <trkpt lat="47.40673" lon="-1.55351">
        <ele>23</ele>
        <time>2023-10-31T20:57:51Z</time>
      </trkpt>
      <trkpt lat="47.40685" lon="-1.55399">
        <ele>24</ele>
        <time>2023-10-31T20:58:38Z</time>
      </trkpt>
      <trkpt lat="47.40703" lon="-1.55459">
        <ele>25</ele>
        <time>2023-10-31T20:59:37Z</time>
      </trkpt>
      <trkpt lat="47.40709" lon="-1.555">
        <ele>24</ele>
        <time>2023-10-31T21:00:15Z</time>
      </trkpt>
      <trkpt lat="47.40737" lon="-1.55558">
        <ele>23</ele>
        <time>2023-10-31T21:01:19Z</time>
      </trkpt>
      <trkpt lat="47.40753" lon="-1.55586">
        <ele>23</ele>
        <time>2023-10-31T21:01:52Z</time>
      </trkpt>
      <trkpt lat="47.40772" lon="-1.55597">
        <ele>24</ele>
        <time>2023-10-31T21:02:19Z</time>
      </trkpt>
      <trkpt lat="47.4078" lon="-1.55608">
        <ele>24</ele>
        <time>2023-10-31T21:02:34Z</time>
      </trkpt>
      <trkpt lat="47.40795" lon="-1.55665">
        <ele>23</ele>
        <time>2023-10-31T21:03:29Z</time>
      </trkpt>
      <trkpt lat="47.40799" lon="-1.55719">
        <ele>22</ele>
        <time>2023-10-31T21:04:18Z</time>
      </trkpt>
      <trkpt lat="47.40811" lon="-1.55823">
        <ele>23</ele>
        <time>2023-10-31T21:05:54Z</time>
      </trkpt>
      <trkpt lat="47.40823" lon="-1.55871">
        <ele>25</ele>
        <time>2023-10-31T21:06:40Z</time>
      </trkpt>
      <trkpt lat="47.40825" lon="-1.55899">
        <ele>26</ele>
        <time>2023-10-31T21:07:05Z</time>
      </trkpt>
      <trkpt lat="47.40839" lon="-1.55956">
        <ele>27</ele>
        <time>2023-10-31T21:08:00Z</time>
      </trkpt>
      <trkpt lat="47.40854" lon="-1.56013">
        <ele>26</ele>
        <time>2023-10-31T21:08:55Z</time>
      </trkpt>
      <trkpt lat="47.40876" lon="-1.56073">
        <ele>24</ele>
        <time>2023-10-31T21:09:57Z</time>
      </trkpt>
      <trkpt lat="47.40892" lon="-1.56104">
        <ele>24</ele>
        <time>2023-10-31T21:10:32Z</time>
      </trkpt>
      <trkpt lat="47.40903" lon="-1.56126">
        <ele>23</ele>
        <time>2023-10-31T21:10:57Z</time>
      </trkpt>
      <trkpt lat="47.40903" lon="-1.56134">
        <ele>23</ele>
        <time>2023-10-31T21:11:04Z</time>
      </trkpt>
      <trkpt lat="47.40916" lon="-1.56154">
        <ele>22</ele>
        <time>2023-10-31T21:11:29Z</time>
      </trkpt>
      <trkpt lat="47.4092" lon="-1.56185">
        <ele>21</ele>
        <time>2023-10-31T21:11:57Z</time>
      </trkpt>
      <trkpt lat="47.40928" lon="-1.56253">
        <ele>19</ele>
        <time>2023-10-31T21:13:00Z</time>
      </trkpt>
      <trkpt lat="47.40941" lon="-1.5629">
        <ele>19</ele>
        <time>2023-10-31T21:13:37Z</time>
      </trkpt>
      <trkpt lat="47.4096" lon="-1.56317">
        <ele>20</ele>
        <time>2023-10-31T21:14:13Z</time>
      </trkpt>
      <trkpt lat="47.40979" lon="-1.56338">
        <ele>21</ele>
        <time>2023-10-31T21:14:44Z</time>
      </trkpt>
      <trkpt lat="47.40988" lon="-1.56337">
        <ele>21</ele>
        <time>2023-10-31T21:14:56Z</time>
      </trkpt>
      <trkpt lat="47.41" lon="-1.56343">
        <ele>22</ele>
        <time>2023-10-31T21:15:13Z</time>
      </trkpt>
      <trkpt lat="47.41036" lon="-1.56346">
        <ele>22</ele>
        <time>2023-10-31T21:16:01Z</time>
      </trkpt>
      <trkpt lat="47.41059" lon="-1.56352">
        <ele>22</ele>
        <time>2023-10-31T21:16:33Z</time>
      </trkpt>
      <trkpt lat="47.41067" lon="-1.56347">
        <ele>22</ele>
        <time>2023-10-31T21:16:44Z</time>
      </trkpt>
      <trkpt lat="47.41086" lon="-1.56381">
        <ele>22</ele>
        <time>2023-10-31T21:17:24Z</time>
      </trkpt>
      <trkpt lat="47.4111" lon="-1.5641">
        <ele>23</ele>
        <time>2023-10-31T21:18:05Z</time>
      </trkpt>
      <trkpt lat="47.41115" lon="-1.56399">
        <ele>24</ele>
        <time>2023-10-31T21:18:17Z</time>
      </trkpt>
      <trkpt lat="47.4113" lon="-1.56381">
        <ele>24</ele>
        <time>2023-10-31T21:18:43Z</time>
      </trkpt>
      <trkpt lat="47.4113" lon="-1.56402">
        <ele>24</ele>
        <time>2023-10-31T21:19:02Z</time>
      </trkpt>
      <trkpt lat="47.41134" lon="-1.56404">
        <ele>25</ele>
        <time>2023-10-31T21:19:08Z</time>
      </trkpt>
      <trkpt lat="47.41149" lon="-1.56428">
        <ele>25</ele>
        <time>2023-10-31T21:19:37Z</time>
      </trkpt>
      <trkpt lat="47.41169" lon="-1.56504">
        <ele>27</ele>
        <time>2023-10-31T21:20:51Z</time>
      </trkpt>
      <trkpt lat="47.41167" lon="-1.56516">
        <ele>27</ele>
        <time>2023-10-31T21:21:02Z</time>
      </trkpt>
      <trkpt lat="47.41177" lon="-1.56595">
        <ele>29</ele>
        <time>2023-10-31T21:22:15Z</time>
      </trkpt>
      <trkpt lat="47.41183" lon="-1.56615">
        <ele>29</ele>
        <time>2023-10-31T21:22:34Z</time>
      </trkpt>
      <trkpt lat="47.41182" lon="-1.56623">
        <ele>29</ele>
        <time>2023-10-31T21:22:42Z</time>
      </trkpt>
      <trkpt lat="47.41185" lon="-1.56644">
        <ele>29</ele>
        <time>2023-10-31T21:23:01Z</time>
      </trkpt>
      <trkpt lat="47.41185" lon="-1.5667">
        <ele>29</ele>
        <time>2023-10-31T21:23:25Z</time>
      </trkpt>
      <trkpt lat="47.41196" lon="-1.56708">
        <ele>29</ele>
        <time>2023-10-31T21:24:02Z</time>
      </trkpt>
      <trkpt lat="47.4121" lon="-1.56732">
        <ele>29</ele>
        <time>2023-10-31T21:24:30Z</time>
      </trkpt>
      <trkpt lat="47.4122" lon="-1.56761">
        <ele>29</ele>
        <time>2023-10-31T21:25:00Z</time>
      </trkpt>
      <trkpt lat="47.41241" lon="-1.56829">
        <ele>29</ele>
        <time>2023-10-31T21:26:07Z</time>
      </trkpt>
      <trkpt lat="47.41243" lon="-1.56884">
        <ele>26</ele>
        <time>2023-10-31T21:26:57Z</time>
      </trkpt>
      <trkpt lat="47.41251" lon="-1.5693">
        <ele>25</ele>
        <time>2023-10-31T21:27:40Z</time>
      </trkpt>
      <trkpt lat="47.41253" lon="-1.56953">
        <ele>24</ele>
        <time>2023-10-31T21:28:01Z</time>
      </trkpt>
      <trkpt lat="47.41266" lon="-1.5701">
        <ele>23</ele>
        <time>2023-10-31T21:28:55Z</time>
      </trkpt>
      <trkpt lat="47.4126" lon="-1.57029">
        <ele>23</ele>
        <time>2023-10-31T21:29:14Z</time>
      </trkpt>
      <trkpt lat="47.41237" lon="-1.57048">
        <ele>23</ele>
        <time>2023-10-31T21:29:49Z</time>
      </trkpt>
      <trkpt lat="47.41209" lon="-1.57075">
        <ele>23</ele>
        <time>2023-10-31T21:30:34Z</time>
      </trkpt>
      <trkpt lat="47.41196" lon="-1.57096">
        <ele>23</ele>
        <time>2023-10-31T21:31:00Z</time>
      </trkpt>
      <trkpt lat="47.41164" lon="-1.5714">
        <ele>23</ele>
        <time>2023-10-31T21:31:58Z</time>
      </trkpt>
      <trkpt lat="47.41148" lon="-1.57159">
        <ele>24</ele>
        <time>2023-10-31T21:32:25Z</time>
      </trkpt>
      <trkpt lat="47.41124" lon="-1.5718">
        <ele>25</ele>
        <time>2023-10-31T21:33:03Z</time>
      </trkpt>
      <trkpt lat="47.41085" lon="-1.57185">
        <ele>27</ele>
        <time>2023-10-31T21:33:55Z</time>
      </trkpt>
      <trkpt lat="47.41044" lon="-1.57198">
        <ele>27</ele>
        <time>2023-10-31T21:34:51Z</time>
      </trkpt>
      <trkpt lat="47.41026" lon="-1.57209">
        <ele>28</ele>
        <time>2023-10-31T21:35:17Z</time>
      </trkpt>
      <trkpt lat="47.40992" lon="-1.57219">
        <ele>27</ele>
        <time>2023-10-31T21:36:03Z</time>
      </trkpt>
      <trkpt lat="47.40972" lon="-1.57234">
        <ele>27</ele>
        <time>2023-10-31T21:36:33Z</time>
      </trkpt>
      <trkpt lat="47.40937" lon="-1.57243">
        <ele>27</ele>
        <time>2023-10-31T21:37:20Z</time>
      </trkpt>
      <trkpt lat="47.40931" lon="-1.57242">
        <ele>27</ele>
        <time>2023-10-31T21:37:28Z</time>
      </trkpt>
      <trkpt lat="47.40922" lon="-1.57244">
        <ele>27</ele>
        <time>2023-10-31T21:37:41Z</time>
      </trkpt>
      <trkpt lat="47.4092" lon="-1.57244">
        <ele>27</ele>
        <time>2023-10-31T21:37:43Z</time>
      </trkpt>
      <trkpt lat="47.40882" lon="-1.5726">
        <ele>27</ele>
        <time>2023-10-31T21:38:36Z</time>
      </trkpt>
      <trkpt lat="47.40811" lon="-1.57283">
        <ele>28</ele>
        <time>2023-10-31T21:40:13Z</time>
      </trkpt>
      <trkpt lat="47.40705" lon="-1.57306">
        <ele>29</ele>
        <time>2023-10-31T21:42:36Z</time>
      </trkpt>
      <trkpt lat="47.4065" lon="-1.57315">
        <ele>29</ele>
        <time>2023-10-31T21:43:50Z</time>
      </trkpt>
      <trkpt lat="47.40647" lon="-1.57319">
        <ele>29</ele>
        <time>2023-10-31T21:43:55Z</time>
      </trkpt>
      <trkpt lat="47.40641" lon="-1.5735">
        <ele>30</ele>
        <time>2023-10-31T21:44:24Z</time>
      </trkpt>
      <trkpt lat="47.40627" lon="-1.57391">
        <ele>31</ele>
        <time>2023-10-31T21:45:06Z</time>
      </trkpt>
      <trkpt lat="47.4062" lon="-1.57404">
        <ele>31</ele>
        <time>2023-10-31T21:45:21Z</time>
      </trkpt>
      <trkpt lat="47.40594" lon="-1.57467">
        <ele>31</ele>
        <time>2023-10-31T21:46:27Z</time>
      </trkpt>
      <trkpt lat="47.40593" lon="-1.57473">
        <ele>32</ele>
        <time>2023-10-31T21:46:33Z</time>
      </trkpt>
      <trkpt lat="47.40578" lon="-1.57496">
        <ele>32</ele>
        <time>2023-10-31T21:47:02Z</time>
      </trkpt>
      <trkpt lat="47.4057" lon="-1.57516">
        <ele>32</ele>
        <time>2023-10-31T21:47:23Z</time>
      </trkpt>
      <trkpt lat="47.40537" lon="-1.57567">
        <ele>31</ele>
        <time>2023-10-31T21:48:27Z</time>
      </trkpt>
      <trkpt lat="47.40514" lon="-1.57622">
        <ele>32</ele>
        <time>2023-10-31T21:49:25Z</time>
      </trkpt>
      <trkpt lat="47.40498" lon="-1.57651">
        <ele>32</ele>
        <time>2023-10-31T21:49:59Z</time>
      </trkpt>
      <trkpt lat="47.40482" lon="-1.57659">
        <ele>32</ele>
        <time>2023-10-31T21:50:21Z</time>
      </trkpt>
      <trkpt lat="47.40446" lon="-1.57652">
        <ele>33</ele>
        <time>2023-10-31T21:51:10Z</time>
      </trkpt>
      <trkpt lat="47.40408" lon="-1.57632">
        <ele>33</ele>
        <time>2023-10-31T21:52:04Z</time>
      </trkpt>
      <trkpt lat="47.4034" lon="-1.57609">
        <ele>33</ele>
        <time>2023-10-31T21:53:37Z</time>
      </trkpt>
      <trkpt lat="47.40337" lon="-1.57605">
        <ele>33</ele>
        <time>2023-10-31T21:53:42Z</time>
      </trkpt>
      <trkpt lat="47.40319" lon="-1.57597">
        <ele>33</ele>
        <time>2023-10-31T21:54:07Z</time>
      </trkpt>
      <trkpt lat="47.40316" lon="-1.57598">
        <ele>33</ele>
        <time>2023-10-31T21:54:11Z</time>
      </trkpt>
      <trkpt lat="47.40308" lon="-1.57597">
        <ele>33</ele>
        <time>2023-10-31T21:54:22Z</time>
      </trkpt>
      <trkpt lat="47.40303" lon="-1.57591">
        <ele>33</ele>
        <time>2023-10-31T21:54:31Z</time>
      </trkpt>
      <trkpt lat="47.40284" lon="-1.57586">
        <ele>34</ele>
        <time>2023-10-31T21:54:56Z</time>
      </trkpt>
      <trkpt lat="47.40267" lon="-1.57576">
        <ele>34</ele>
        <time>2023-10-31T21:55:21Z</time>
      </trkpt>
      <trkpt lat="47.40237" lon="-1.57568">
        <ele>34</ele>
        <time>2023-10-31T21:56:01Z</time>
      </trkpt>
      <trkpt lat="47.40192" lon="-1.57548">
        <ele>34</ele>
        <time>2023-10-31T21:57:04Z</time>
      </trkpt>
      <trkpt lat="47.40161" lon="-1.57542">
        <ele>34</ele>
        <time>2023-10-31T21:57:46Z</time>
      </trkpt>
      <trkpt lat="47.40143" lon="-1.5754">
        <ele>35</ele>
        <time>2023-10-31T21:58:10Z</time>
      </trkpt>
      <trkpt lat="47.40121" lon="-1.57543">
        <ele>35</ele>
        <time>2023-10-31T21:58:39Z</time>
      </trkpt>
      <trkpt lat="47.40091" lon="-1.5754">
        <ele>36</ele>
        <time>2023-10-31T21:59:20Z</time>
      </trkpt>
      <trkpt lat="47.40083" lon="-1.57536">
        <ele>37</ele>
        <time>2023-10-31T21:59:31Z</time>
      </trkpt>
      <trkpt lat="47.40072" lon="-1.57537">
        <ele>36</ele>
        <time>2023-10-31T21:59:46Z</time>
      </trkpt>
      <trkpt lat="47.40036" lon="-1.5753">
        <ele>35</ele>
        <time>2023-10-31T22:00:34Z</time>
      </trkpt>
      <trkpt lat="47.4002" lon="-1.57532">
        <ele>35</ele>
        <time>2023-10-31T22:00:55Z</time>
      </trkpt>
      <trkpt lat="47.39995" lon="-1.57548">
        <ele>34</ele>
        <time>2023-10-31T22:01:32Z</time>
      </trkpt>
      <trkpt lat="47.39963" lon="-1.57551">
        <ele>32</ele>
        <time>2023-10-31T22:02:15Z</time>
      </trkpt>
      <trkpt lat="47.39931" lon="-1.57565">
        <ele>31</ele>
        <time>2023-10-31T22:02:59Z</time>
      </trkpt>
      <trkpt lat="47.39911" lon="-1.5758">
        <ele>30</ele>
        <time>2023-10-31T22:03:29Z</time>
      </trkpt>
      <trkpt lat="47.39892" lon="-1.57583">
        <ele>29</ele>
        <time>2023-10-31T22:03:55Z</time>
      </trkpt>
      <trkpt lat="47.39862" lon="-1.57591">
        <ele>27</ele>
        <time>2023-10-31T22:04:35Z</time>
      </trkpt>
      <trkpt lat="47.39851" lon="-1.57597">
        <ele>26</ele>
        <time>2023-10-31T22:04:51Z</time>
      </trkpt>
      <trkpt lat="47.39834" lon="-1.57601">
        <ele>25</ele>
        <time>2023-10-31T22:05:14Z</time>
      </trkpt>
      <trkpt lat="47.39799" lon="-1.57594">
        <ele>24</ele>
        <time>2023-10-31T22:06:01Z</time>
      </trkpt>
      <trkpt lat="47.39794" lon="-1.57587">
        <ele>24</ele>
        <time>2023-10-31T22:06:10Z</time>
      </trkpt>
      <trkpt lat="47.39771" lon="-1.57579">
        <ele>23</ele>
        <time>2023-10-31T22:06:42Z</time>
      </trkpt>
      <trkpt lat="47.3975" lon="-1.57579">
        <ele>22</ele>
        <time>2023-10-31T22:07:10Z</time>
      </trkpt>
      <trkpt lat="47.3973" lon="-1.57584">
        <ele>22</ele>
        <time>2023-10-31T22:07:37Z</time>
      </trkpt>
      <trkpt lat="47.39695" lon="-1.576">
        <ele>21</ele>
        <time>2023-10-31T22:08:26Z</time>
      </trkpt>
      <trkpt lat="47.39675" lon="-1.57605">
        <ele>20</ele>
        <time>2023-10-31T22:08:53Z</time>
      </trkpt>
      <trkpt lat="47.39639" lon="-1.5762">
        <ele>20</ele>
        <time>2023-10-31T22:09:43Z</time>
      </trkpt>
      <trkpt lat="47.39619" lon="-1.57627">
        <ele>20</ele>
        <time>2023-10-31T22:10:10Z</time>
      </trkpt>
      <trkpt lat="47.39602" lon="-1.57629">
        <ele>20</ele>
        <time>2023-10-31T22:10:33Z</time>
      </trkpt>
      <trkpt lat="47.39581" lon="-1.57626">
        <ele>21</ele>
        <time>2023-10-31T22:11:01Z</time>
      </trkpt>
      <trkpt lat="47.39537" lon="-1.57629">
        <ele>20</ele>
        <time>2023-10-31T22:12:00Z</time>
      </trkpt>
      <trkpt lat="47.3948" lon="-1.57628">
        <ele>20</ele>
        <time>2023-10-31T22:13:16Z</time>
      </trkpt>
      <trkpt lat="47.39443" lon="-1.57635">
        <ele>21</ele>
        <time>2023-10-31T22:14:06Z</time>
      </trkpt>
      <trkpt lat="47.39406" lon="-1.57635">
        <ele>21</ele>
        <time>2023-10-31T22:14:55Z</time>
      </trkpt>
      <trkpt lat="47.39396" lon="-1.57637">
        <ele>21</ele>
        <time>2023-10-31T22:15:08Z</time>
      </trkpt>
      <trkpt lat="47.39374" lon="-1.57632">
        <ele>22</ele>
        <time>2023-10-31T22:15:38Z</time>
      </trkpt>
      <trkpt lat="47.39362" lon="-1.57634">
        <ele>22</ele>
        <time>2023-10-31T22:15:54Z</time>
      </trkpt>
      <trkpt lat="47.39324" lon="-1.57634">
        <ele>23</ele>
        <time>2023-10-31T22:16:45Z</time>
      </trkpt>
      <trkpt lat="47.39299" lon="-1.57638">
        <ele>24</ele>
        <time>2023-10-31T22:17:19Z</time>
      </trkpt>
      <trkpt lat="47.39276" lon="-1.5764">
        <ele>25</ele>
        <time>2023-10-31T22:17:49Z</time>
      </trkpt>
      <trkpt lat="47.39269" lon="-1.57645">
        <ele>26</ele>
        <time>2023-10-31T22:18:00Z</time>
      </trkpt>
      <trkpt lat="47.39263" lon="-1.57643">
        <ele>26</ele>
        <time>2023-10-31T22:18:08Z</time>
      </trkpt>
      <trkpt lat="47.39262" lon="-1.5764">
        <ele>26</ele>
        <time>2023-10-31T22:18:11Z</time>
      </trkpt>
      <trkpt lat="47.39263" lon="-1.57645">
        <ele>26</ele>
        <time>2023-10-31T22:18:16Z</time>
      </trkpt>
      <trkpt lat="47.39257" lon="-1.57632">
        <ele>26</ele>
        <time>2023-10-31T22:18:30Z</time>
      </trkpt>
      <trkpt lat="47.39245" lon="-1.57618">
        <ele>25</ele>
        <time>2023-10-31T22:18:50Z</time>
      </trkpt>
      <trkpt lat="47.39216" lon="-1.576">
        <ele>26</ele>
        <time>2023-10-31T22:19:32Z</time>
      </trkpt>
      <trkpt lat="47.39171" lon="-1.57587">
        <ele>27</ele>
        <time>2023-10-31T22:20:33Z</time>
      </trkpt>
      <trkpt lat="47.39159" lon="-1.57582">
        <ele>27</ele>
        <time>2023-10-31T22:20:50Z</time>
      </trkpt>
      <trkpt lat="47.39126" lon="-1.57575">
        <ele>28</ele>
        <time>2023-10-31T22:21:35Z</time>
      </trkpt>
      <trkpt lat="47.3909" lon="-1.5758">
        <ele>29</ele>
        <time>2023-10-31T22:22:23Z</time>
      </trkpt>
      <trkpt lat="47.3907" lon="-1.57587">
        <ele>29</ele>
        <time>2023-10-31T22:22:50Z</time>
      </trkpt>
      <trkpt lat="47.39024" lon="-1.57598">
        <ele>30</ele>
        <time>2023-10-31T22:23:52Z</time>
      </trkpt>
      <trkpt lat="47.38975" lon="-1.57602">
        <ele>30</ele>
        <time>2023-10-31T22:24:58Z</time>
      </trkpt>
      <trkpt lat="47.38926" lon="-1.57613">
        <ele>31</ele>
        <time>2023-10-31T22:26:04Z</time>
      </trkpt>
      <trkpt lat="47.38915" lon="-1.57613">
        <ele>31</ele>
        <time>2023-10-31T22:26:19Z</time>
      </trkpt>
      <trkpt lat="47.389" lon="-1.57619">
        <ele>31</ele>
        <time>2023-10-31T22:26:39Z</time>
      </trkpt>
      <trkpt lat="47.38861" lon="-1.57619">
        <ele>31</ele>
        <time>2023-10-31T22:27:31Z</time>
      </trkpt>
      <trkpt lat="47.38843" lon="-1.57607">
        <ele>31</ele>
        <time>2023-10-31T22:27:58Z</time>
      </trkpt>
      <trkpt lat="47.38839" lon="-1.5761">
        <ele>31</ele>
        <time>2023-10-31T22:28:04Z</time>
      </trkpt>
      <trkpt lat="47.38848" lon="-1.5766">
        <ele>31</ele>
        <time>2023-10-31T22:28:51Z</time>
      </trkpt>
      <trkpt lat="47.38847" lon="-1.57674">
        <ele>31</ele>
        <time>2023-10-31T22:29:03Z</time>
      </trkpt>
      <trkpt lat="47.38851" lon="-1.57694">
        <ele>32</ele>
        <time>2023-10-31T22:29:22Z</time>
      </trkpt>
      <trkpt lat="47.38842" lon="-1.57706">
        <ele>32</ele>
        <time>2023-10-31T22:29:38Z</time>
      </trkpt>
      <trkpt lat="47.38806" lon="-1.57742">
        <ele>32</ele>
        <time>2023-10-31T22:30:36Z</time>
      </trkpt>
      <trkpt lat="47.38788" lon="-1.57762">
        <ele>32</ele>
        <time>2023-10-31T22:31:06Z</time>
      </trkpt>
      <trkpt lat="47.38745" lon="-1.57798">
        <ele>32</ele>
        <time>2023-10-31T22:32:12Z</time>
      </trkpt>
      <trkpt lat="47.38725" lon="-1.57809">
        <ele>31</ele>
        <time>2023-10-31T22:32:41Z</time>
      </trkpt>
      <trkpt lat="47.38704" lon="-1.57828">
        <ele>31</ele>
        <time>2023-10-31T22:33:14Z</time>
      </trkpt>
      <trkpt lat="47.38698" lon="-1.5783">
        <ele>31</ele>
        <time>2023-10-31T22:33:22Z</time>
      </trkpt>
      <trkpt lat="47.38664" lon="-1.57858">
        <ele>32</ele>
        <time>2023-10-31T22:34:14Z</time>
      </trkpt>
      <trkpt lat="47.38613" lon="-1.57888">
        <ele>33</ele>
        <time>2023-10-31T22:35:27Z</time>
      </trkpt>
      <trkpt lat="47.38551" lon="-1.57883">
        <ele>33</ele>
        <time>2023-10-31T22:36:50Z</time>
      </trkpt>
      <trkpt lat="47.3853" lon="-1.57883">
        <ele>34</ele>
        <time>2023-10-31T22:37:18Z</time>
      </trkpt>
      <trkpt lat="47.3853" lon="-1.57877">
        <ele>34</ele>
        <time>2023-10-31T22:37:23Z</time>
      </trkpt>
      <trkpt lat="47.38489" lon="-1.57874">
        <ele>34</ele>
        <time>2023-10-31T22:38:18Z</time>
      </trkpt>
      <trkpt lat="47.38477" lon="-1.57876">
        <ele>34</ele>
        <time>2023-10-31T22:38:34Z</time>
      </trkpt>
      <trkpt lat="47.38454" lon="-1.57871">
        <ele>34</ele>
        <time>2023-10-31T22:39:05Z</time>
      </trkpt>
      <trkpt lat="47.38451" lon="-1.57868">
        <ele>34</ele>
        <time>2023-10-31T22:39:10Z</time>
      </trkpt>
      <trkpt lat="47.38426" lon="-1.57864">
        <ele>34</ele>
        <time>2023-10-31T22:39:44Z</time>
      </trkpt>
      <trkpt lat="47.38418" lon="-1.57858">
        <ele>34</ele>
        <time>2023-10-31T22:39:56Z</time>
      </trkpt>
      <trkpt lat="47.38376" lon="-1.57842">
        <ele>34</ele>
        <time>2023-10-31T22:40:54Z</time>
      </trkpt>
      <trkpt lat="47.38289" lon="-1.57797">
        <ele>35</ele>
        <time>2023-10-31T22:42:57Z</time>
      </trkpt>
      <trkpt lat="47.38222" lon="-1.57784">
        <ele>36</ele>
        <time>2023-10-31T22:44:27Z</time>
      </trkpt>
      <trkpt lat="47.38198" lon="-1.5776">
        <ele>36</ele>
        <time>2023-10-31T22:45:05Z</time>
      </trkpt>
      <trkpt lat="47.38187" lon="-1.57743">
        <ele>36</ele>
        <time>2023-10-31T22:45:27Z</time>
      </trkpt>
      <trkpt lat="47.38172" lon="-1.57728">
        <ele>36</ele>
        <time>2023-10-31T22:45:51Z</time>
      </trkpt>
      <trkpt lat="47.38162" lon="-1.57722">
        <ele>36</ele>
        <time>2023-10-31T22:46:05Z</time>
      </trkpt>
      <trkpt lat="47.3815" lon="-1.57709">
        <ele>37</ele>
        <time>2023-10-31T22:46:25Z</time>
      </trkpt>
      <trkpt lat="47.38144" lon="-1.57707">
        <ele>37</ele>
        <time>2023-10-31T22:46:33Z</time>
      </trkpt>
      <trkpt lat="47.38122" lon="-1.57673">
        <ele>37</ele>
        <time>2023-10-31T22:47:16Z</time>
      </trkpt>
      <trkpt lat="47.38106" lon="-1.57656">
        <ele>37</ele>
        <time>2023-10-31T22:47:42Z</time>
      </trkpt>
      <trkpt lat="47.38087" lon="-1.57629">
        <ele>38</ele>
        <time>2023-10-31T22:48:17Z</time>
      </trkpt>
      <trkpt lat="47.38071" lon="-1.57619">
        <ele>38</ele>
        <time>2023-10-31T22:48:40Z</time>
      </trkpt>
      <trkpt lat="47.38067" lon="-1.57612">
        <ele>38</ele>
        <time>2023-10-31T22:48:49Z</time>
      </trkpt>
      <trkpt lat="47.38011" lon="-1.57559">
        <ele>39</ele>
        <time>2023-10-31T22:50:18Z</time>
      </trkpt>
      <trkpt lat="47.37929" lon="-1.57503">
        <ele>39</ele>
        <time>2023-10-31T22:52:18Z</time>
      </trkpt>
      <trkpt lat="47.37903" lon="-1.57481">
        <ele>39</ele>
        <time>2023-10-31T22:52:58Z</time>
      </trkpt>
      <trkpt lat="47.37883" lon="-1.57472">
        <ele>38</ele>
        <time>2023-10-31T22:53:26Z</time>
      </trkpt>
      <trkpt lat="47.37858" lon="-1.57449">
        <ele>37</ele>
        <time>2023-10-31T22:54:05Z</time>
      </trkpt>
      <trkpt lat="47.37845" lon="-1.57442">
        <ele>37</ele>
        <time>2023-10-31T22:54:24Z</time>
      </trkpt>
      <trkpt lat="47.37825" lon="-1.57422">
        <ele>36</ele>
        <time>2023-10-31T22:54:56Z</time>
      </trkpt>
      <trkpt lat="47.37807" lon="-1.57417">
        <ele>36</ele>
        <time>2023-10-31T22:55:20Z</time>
      </trkpt>
      <trkpt lat="47.37806" lon="-1.57413">
        <ele>36</ele>
        <time>2023-10-31T22:55:24Z</time>
      </trkpt>
      <trkpt lat="47.37761" lon="-1.57371">
        <ele>35</ele>
        <time>2023-10-31T22:56:35Z</time>
      </trkpt>
      <trkpt lat="47.37682" lon="-1.5732">
        <ele>33</ele>
        <time>2023-10-31T22:58:30Z</time>
      </trkpt>
      <trkpt lat="47.37664" lon="-1.57295">
        <ele>32</ele>
        <time>2023-10-31T22:59:03Z</time>
      </trkpt>
      <trkpt lat="47.37642" lon="-1.57282">
        <ele>32</ele>
        <time>2023-10-31T22:59:35Z</time>
      </trkpt>
      <trkpt lat="47.37604" lon="-1.57244">
        <ele>32</ele>
        <time>2023-10-31T23:00:36Z</time>
      </trkpt>
      <trkpt lat="47.37567" lon="-1.57218">
        <ele>33</ele>
        <time>2023-10-31T23:01:31Z</time>
      </trkpt>
      <trkpt lat="47.37525" lon="-1.57177">
        <ele>33</ele>
        <time>2023-10-31T23:02:38Z</time>
      </trkpt>
      <trkpt lat="47.37486" lon="-1.57151">
        <ele>32</ele>
        <time>2023-10-31T23:03:35Z</time>
      </trkpt>
      <trkpt lat="47.37472" lon="-1.57138">
        <ele>32</ele>
        <time>2023-10-31T23:03:57Z</time>
      </trkpt>
      <trkpt lat="47.37413" lon="-1.57104">
        <ele>31</ele>
        <time>2023-10-31T23:05:22Z</time>
      </trkpt>
      <trkpt lat="47.3738" lon="-1.57097">
        <ele>33</ele>
        <time>2023-10-31T23:06:06Z</time>
      </trkpt>
      <trkpt lat="47.37363" lon="-1.57089">
        <ele>34</ele>
        <time>2023-10-31T23:06:30Z</time>
      </trkpt>
      <trkpt lat="47.37362" lon="-1.57103">
        <ele>34</ele>
        <time>2023-10-31T23:06:43Z</time>
      </trkpt>
      <trkpt lat="47.37364" lon="-1.57101">
        <ele>34</ele>
        <time>2023-10-31T23:06:46Z</time>
      </trkpt>
      <trkpt lat="47.37363" lon="-1.57091">
        <ele>34</ele>
        <time>2023-10-31T23:06:55Z</time>
      </trkpt>
      <trkpt lat="47.37365" lon="-1.57074">
        <ele>34</ele>
        <time>2023-10-31T23:07:11Z</time>
      </trkpt>
      <trkpt lat="47.3737" lon="-1.57056">
        <ele>34</ele>
        <time>2023-10-31T23:07:28Z</time>
      </trkpt>
      <trkpt lat="47.37386" lon="-1.57018">
        <ele>33</ele>
        <time>2023-10-31T23:08:09Z</time>
      </trkpt>
      <trkpt lat="47.37391" lon="-1.57014">
        <ele>33</ele>
        <time>2023-10-31T23:08:16Z</time>
      </trkpt>
      <trkpt lat="47.37416" lon="-1.56966">
        <ele>33</ele>
        <time>2023-10-31T23:09:11Z</time>
      </trkpt>
      <trkpt lat="47.37472" lon="-1.56878">
        <ele>32</ele>
        <time>2023-10-31T23:11:00Z</time>
      </trkpt>
      <trkpt lat="47.37486" lon="-1.56821">
        <ele>32</ele>
        <time>2023-10-31T23:11:55Z</time>
      </trkpt>
      <trkpt lat="47.37507" lon="-1.56762">
        <ele>32</ele>
        <time>2023-10-31T23:12:55Z</time>
      </trkpt>
      <trkpt lat="47.37508" lon="-1.56719">
        <ele>32</ele>
        <time>2023-10-31T23:13:34Z</time>
      </trkpt>
      <trkpt lat="47.37514" lon="-1.56688">
        <ele>33</ele>
        <time>2023-10-31T23:14:03Z</time>
      </trkpt>
      <trkpt lat="47.37511" lon="-1.56665">
        <ele>33</ele>
        <time>2023-10-31T23:14:24Z</time>
      </trkpt>
      <trkpt lat="47.37513" lon="-1.56647">
        <ele>33</ele>
        <time>2023-10-31T23:14:41Z</time>
      </trkpt>
      <trkpt lat="47.37519" lon="-1.56612">
        <ele>33</ele>
        <time>2023-10-31T23:15:14Z</time>
      </trkpt>
      <trkpt lat="47.37517" lon="-1.56605">
        <ele>33</ele>
        <time>2023-10-31T23:15:20Z</time>
      </trkpt>
      <trkpt lat="47.37524" lon="-1.56547">
        <ele>33</ele>
        <time>2023-10-31T23:16:14Z</time>
      </trkpt>
      <trkpt lat="47.37524" lon="-1.56528">
        <ele>33</ele>
        <time>2023-10-31T23:16:31Z</time>
      </trkpt>
      <trkpt lat="47.37532" lon="-1.56507">
        <ele>33</ele>
        <time>2023-10-31T23:16:53Z</time>
      </trkpt>
      <trkpt lat="47.37532" lon="-1.56499">
        <ele>33</ele>
        <time>2023-10-31T23:17:00Z</time>
      </trkpt>
      <trkpt lat="47.37538" lon="-1.56484">
        <ele>33</ele>
        <time>2023-10-31T23:17:16Z</time>
      </trkpt>
      <trkpt lat="47.3754" lon="-1.56455">
        <ele>34</ele>
        <time>2023-10-31T23:17:42Z</time>
      </trkpt>
      <trkpt lat="47.37554" lon="-1.56399">
        <ele>34</ele>
        <time>2023-10-31T23:18:36Z</time>
      </trkpt>
      <trkpt lat="47.37565" lon="-1.56368">
        <ele>34</ele>
        <time>2023-10-31T23:19:07Z</time>
      </trkpt>
      <trkpt lat="47.3757" lon="-1.56365">
        <ele>35</ele>
        <time>2023-10-31T23:19:15Z</time>
      </trkpt>
      <trkpt lat="47.37571" lon="-1.56353">
        <ele>35</ele>
        <time>2023-10-31T23:19:26Z</time>
      </trkpt>
      <trkpt lat="47.37578" lon="-1.56339">
        <ele>35</ele>
        <time>2023-10-31T23:19:41Z</time>
      </trkpt>
      <trkpt lat="47.37578" lon="-1.56331">
        <ele>35</ele>
        <time>2023-10-31T23:19:49Z</time>
      </trkpt>
      <trkpt lat="47.37592" lon="-1.5631">
        <ele>35</ele>
        <time>2023-10-31T23:20:15Z</time>
      </trkpt>
      <trkpt lat="47.376" lon="-1.56291">
        <ele>35</ele>
        <time>2023-10-31T23:20:35Z</time>
      </trkpt>
      <trkpt lat="47.37624" lon="-1.56211">
        <ele>36</ele>
        <time>2023-10-31T23:21:54Z</time>
      </trkpt>
      <trkpt lat="47.37635" lon="-1.56165">
        <ele>36</ele>
        <time>2023-10-31T23:22:39Z</time>
      </trkpt>
      <trkpt lat="47.37637" lon="-1.56131">
        <ele>37</ele>
        <time>2023-10-31T23:23:09Z</time>
      </trkpt>
      <trkpt lat="47.37658" lon="-1.56122">
        <ele>37</ele>
        <time>2023-10-31T23:23:39Z</time>
      </trkpt>
      <trkpt lat="47.37695" lon="-1.56113">
        <ele>37</ele>
        <time>2023-10-31T23:24:29Z</time>
      </trkpt>
      <trkpt lat="47.37703" lon="-1.56091">
        <ele>37</ele>
        <time>2023-10-31T23:24:51Z</time>
      </trkpt>
      <trkpt lat="47.3773" lon="-1.56047">
        <ele>37</ele>
        <time>2023-10-31T23:25:45Z</time>
      </trkpt>
      <trkpt lat="47.37736" lon="-1.56042">
        <ele>37</ele>
        <time>2023-10-31T23:25:54Z</time>
      </trkpt>
      <trkpt lat="47.37741" lon="-1.56016">
        <ele>38</ele>
        <time>2023-10-31T23:26:18Z</time>
      </trkpt>
      <trkpt lat="47.3775" lon="-1.55993">
        <ele>38</ele>
        <time>2023-10-31T23:26:42Z</time>
      </trkpt>
      <trkpt lat="47.37759" lon="-1.55975">
        <ele>38</ele>
        <time>2023-10-31T23:27:03Z</time>
      </trkpt>
      <trkpt lat="47.37765" lon="-1.5596">
        <ele>38</ele>
        <time>2023-10-31T23:27:18Z</time>
      </trkpt>
      <trkpt lat="47.37782" lon="-1.55951">
        <ele>37</ele>
        <time>2023-10-31T23:27:43Z</time>
      </trkpt>
      <trkpt lat="47.378" lon="-1.55923">
        <ele>37</ele>
        <time>2023-10-31T23:28:17Z</time>
      </trkpt>
      <trkpt lat="47.37832" lon="-1.55842">
        <ele>37</ele>
        <time>2023-10-31T23:29:42Z</time>
      </trkpt>
      <trkpt lat="47.37853" lon="-1.55799">
        <ele>36</ele>
        <time>2023-10-31T23:30:30Z</time>
      </trkpt>
      <trkpt lat="47.37855" lon="-1.55788">
        <ele>36</ele>
        <time>2023-10-31T23:30:40Z</time>
      </trkpt>
      <trkpt lat="47.37865" lon="-1.5578">
        <ele>35</ele>
        <time>2023-10-31T23:30:56Z</time>
      </trkpt>
      <trkpt lat="47.37864" lon="-1.55775">
        <ele>35</ele>
        <time>2023-10-31T23:31:00Z</time>
      </trkpt>
      <trkpt lat="47.37842" lon="-1.55766">
        <ele>35</ele>
        <time>2023-10-31T23:31:31Z</time>
      </trkpt>
      <trkpt lat="47.37826" lon="-1.55751">
        <ele>35</ele>
        <time>2023-10-31T23:31:56Z</time>
      </trkpt>
      <trkpt lat="47.37805" lon="-1.55738">
        <ele>34</ele>
        <time>2023-10-31T23:32:26Z</time>
      </trkpt>
      <trkpt lat="47.37789" lon="-1.55724">
        <ele>34</ele>
        <time>2023-10-31T23:32:51Z</time>
      </trkpt>
      <trkpt lat="47.37792" lon="-1.55689">
        <ele>32</ele>
        <time>2023-10-31T23:33:23Z</time>
      </trkpt>
      <trkpt lat="47.37803" lon="-1.55651">
        <ele>31</ele>
        <time>2023-10-31T23:34:00Z</time>
      </trkpt>
      <trkpt lat="47.37821" lon="-1.55559">
        <ele>31</ele>
        <time>2023-10-31T23:35:27Z</time>
      </trkpt>
      <trkpt lat="47.37829" lon="-1.55533">
        <ele>31</ele>
        <time>2023-10-31T23:35:53Z</time>
      </trkpt>
      <trkpt lat="47.37831" lon="-1.55512">
        <ele>31</ele>
        <time>2023-10-31T23:36:12Z</time>
      </trkpt>
      <trkpt lat="47.37847" lon="-1.55434">
        <ele>32</ele>
        <time>2023-10-31T23:37:26Z</time>
      </trkpt>
      <trkpt lat="47.37832" lon="-1.55388">
        <ele>33</ele>
        <time>2023-10-31T23:38:12Z</time>
      </trkpt>
      <trkpt lat="47.37817" lon="-1.55355">
        <ele>33</ele>
        <time>2023-10-31T23:38:48Z</time>
      </trkpt>
      <trkpt lat="47.37793" lon="-1.55274">
        <ele>33</ele>
        <time>2023-10-31T23:40:08Z</time>
      </trkpt>
      <trkpt lat="47.37786" lon="-1.55259">
        <ele>33</ele>
        <time>2023-10-31T23:40:24Z</time>
      </trkpt>
      <trkpt lat="47.37763" lon="-1.55248">
        <ele>33</ele>
        <time>2023-10-31T23:40:56Z</time>
      </trkpt>
      <trkpt lat="47.37761" lon="-1.55233">
        <ele>33</ele>
        <time>2023-10-31T23:41:10Z</time>
      </trkpt>
      <trkpt lat="47.37763" lon="-1.55155">
        <ele>33</ele>
        <time>2023-10-31T23:42:21Z</time>
      </trkpt>
      <trkpt lat="47.37781" lon="-1.55023">
        <ele>33</ele>
        <time>2023-10-31T23:44:22Z</time>
      </trkpt>
      <trkpt lat="47.37779" lon="-1.5501">
        <ele>33</ele>
        <time>2023-10-31T23:44:34Z</time>
      </trkpt>
      <trkpt lat="47.3779" lon="-1.54859">
        <ele>32</ele>
        <time>2023-10-31T23:46:52Z</time>
      </trkpt>
      <trkpt lat="47.37784" lon="-1.5484">
        <ele>32</ele>
        <time>2023-10-31T23:47:10Z</time>
      </trkpt>
      <trkpt lat="47.37786" lon="-1.54819">
        <ele>31</ele>
        <time>2023-10-31T23:47:30Z</time>
      </trkpt>
      <trkpt lat="47.37785" lon="-1.54773">
        <ele>31</ele>
        <time>2023-10-31T23:48:11Z</time>
      </trkpt>
      <trkpt lat="47.37781" lon="-1.5476">
        <ele>30</ele>
        <time>2023-10-31T23:48:24Z</time>
      </trkpt>
      <trkpt lat="47.37782" lon="-1.54752">
        <ele>30</ele>
        <time>2023-10-31T23:48:32Z</time>
      </trkpt>
      <trkpt lat="47.37775" lon="-1.54715">
        <ele>29</ele>
        <time>2023-10-31T23:49:06Z</time>
      </trkpt>
      <trkpt lat="47.37775" lon="-1.54694">
        <ele>29</ele>
        <time>2023-10-31T23:49:25Z</time>
      </trkpt>
      <trkpt lat="47.37783" lon="-1.54663">
        <ele>28</ele>
        <time>2023-10-31T23:49:55Z</time>
      </trkpt>
      <trkpt lat="47.37784" lon="-1.54632">
        <ele>28</ele>
        <time>2023-10-31T23:50:23Z</time>
      </trkpt>
      <trkpt lat="47.37811" lon="-1.54559">
        <ele>28</ele>
        <time>2023-10-31T23:51:38Z</time>
      </trkpt>
      <trkpt lat="47.37812" lon="-1.54535">
        <ele>27</ele>
        <time>2023-10-31T23:52:00Z</time>
      </trkpt>
      <trkpt lat="47.37816" lon="-1.54517">
        <ele>27</ele>
        <time>2023-10-31T23:52:17Z</time>
      </trkpt>
      <trkpt lat="47.37828" lon="-1.54483">
        <ele>27</ele>
        <time>2023-10-31T23:52:52Z</time>
      </trkpt>
      <trkpt lat="47.37852" lon="-1.54382">
        <ele>27</ele>
        <time>2023-10-31T23:54:29Z</time>
      </trkpt>
      <trkpt lat="47.37861" lon="-1.54363">
        <ele>28</ele>
        <time>2023-10-31T23:54:50Z</time>
      </trkpt>
      <trkpt lat="47.37863" lon="-1.54341">
        <ele>28</ele>
        <time>2023-10-31T23:55:10Z</time>
      </trkpt>
      <trkpt lat="47.37878" lon="-1.54312">
        <ele>29</ele>
        <time>2023-10-31T23:55:43Z</time>
      </trkpt>
      <trkpt lat="47.37887" lon="-1.54283">
        <ele>30</ele>
        <time>2023-10-31T23:56:11Z</time>
      </trkpt>
      <trkpt lat="47.37891" lon="-1.54243">
        <ele>30</ele>
        <time>2023-10-31T23:56:48Z</time>
      </trkpt>
      <trkpt lat="47.37891" lon="-1.54213">
        <ele>29</ele>
        <time>2023-10-31T23:57:15Z</time>
      </trkpt>
      <trkpt lat="47.37896" lon="-1.54171">
        <ele>29</ele>
        <time>2023-10-31T23:57:54Z</time>
      </trkpt>
      <trkpt lat="47.37902" lon="-1.54119">
        <ele>28</ele>
        <time>2023-10-31T23:58:41Z</time>
      </trkpt>
      <trkpt lat="47.37908" lon="-1.54092">
        <ele>28</ele>
        <time>2023-10-31T23:59:07Z</time>
      </trkpt>
      <trkpt lat="47.37923" lon="-1.5397">
        <ele>29</ele>
        <time>2023-11-01T00:00:59Z</time>
      </trkpt>
      <trkpt lat="47.37926" lon="-1.5393">
        <ele>29</ele>
        <time>2023-11-01T00:01:35Z</time>
      </trkpt>
      <trkpt lat="47.37938" lon="-1.53919">
        <ele>29</ele>
        <time>2023-11-01T00:01:54Z</time>
      </trkpt>
      <trkpt lat="47.3795" lon="-1.5392">
        <ele>29</ele>
        <time>2023-11-01T00:02:10Z</time>
      </trkpt>
      <trkpt lat="47.37956" lon="-1.53923">
        <ele>29</ele>
        <time>2023-11-01T00:02:19Z</time>
      </trkpt>
      <trkpt lat="47.37983" lon="-1.53925">
        <ele>28</ele>
        <time>2023-11-01T00:02:55Z</time>
      </trkpt>
      <trkpt lat="47.38025" lon="-1.53912">
        <ele>29</ele>
        <time>2023-11-01T00:03:52Z</time>
      </trkpt>
      <trkpt lat="47.38067" lon="-1.53896">
        <ele>30</ele>
        <time>2023-11-01T00:04:50Z</time>
      </trkpt>
      <trkpt lat="47.38108" lon="-1.53886">
        <ele>30</ele>
        <time>2023-11-01T00:05:45Z</time>
      </trkpt>
      <trkpt lat="47.38196" lon="-1.53835">
        <ele>30</ele>
        <time>2023-11-01T00:07:52Z</time>
      </trkpt>
      <trkpt lat="47.38217" lon="-1.53818">
        <ele>29</ele>
        <time>2023-11-01T00:08:23Z</time>
      </trkpt>
      <trkpt lat="47.38252" lon="-1.53784">
        <ele>28</ele>
        <time>2023-11-01T00:09:19Z</time>
      </trkpt>
      <trkpt lat="47.38337" lon="-1.53732">
        <ele>27</ele>
        <time>2023-11-01T00:11:22Z</time>
      </trkpt>
      <trkpt lat="47.38374" lon="-1.53703">
        <ele>25</ele>
        <time>2023-11-01T00:12:18Z</time>
      </trkpt>
      <trkpt lat="47.38433" lon="-1.53693">
        <ele>24</ele>
        <time>2023-11-01T00:13:37Z</time>
      </trkpt>
      <trkpt lat="47.38492" lon="-1.53674">
        <ele>24</ele>
        <time>2023-11-01T00:14:58Z</time>
      </trkpt>
      <trkpt lat="47.38543" lon="-1.53662">
        <ele>24</ele>
        <time>2023-11-01T00:16:07Z</time>
      </trkpt>
      <trkpt lat="47.38587" lon="-1.53658">
        <ele>25</ele>
        <time>2023-11-01T00:17:06Z</time>
      </trkpt>
      <trkpt lat="47.38601" lon="-1.53651">
        <ele>25</ele>
        <time>2023-11-01T00:17:25Z</time>
      </trkpt>
      <trkpt lat="47.38623" lon="-1.53657">
        <ele>26</ele>
        <time>2023-11-01T00:17:55Z</time>
      </trkpt>
      <trkpt lat="47.38649" lon="-1.53658">
        <ele>26</ele>
        <time>2023-11-01T00:18:30Z</time>
      </trkpt>
      <trkpt lat="47.38677" lon="-1.53657">
        <ele>27</ele>
        <time>2023-11-01T00:19:07Z</time>
      </trkpt>
      <trkpt lat="47.38731" lon="-1.53644">
        <ele>27</ele>
        <time>2023-11-01T00:20:20Z</time>
      </trkpt>
      <trkpt lat="47.38757" lon="-1.53632">
        <ele>26</ele>
        <time>2023-11-01T00:20:57Z</time>
      </trkpt>
      <trkpt lat="47.38801" lon="-1.53627">
        <ele>24</ele>
        <time>2023-11-01T00:21:56Z</time>
      </trkpt>
      <trkpt lat="47.38837" lon="-1.53627">
        <ele>23</ele>
        <time>2023-11-01T00:22:44Z</time>
      </trkpt>
      <trkpt lat="47.3886" lon="-1.5363">
        <ele>22</ele>
        <time>2023-11-01T00:23:14Z</time>
      </trkpt>
      <trkpt lat="47.38913" lon="-1.53616">
        <ele>21</ele>
        <time>2023-11-01T00:24:26Z</time>
      </trkpt>
      <trkpt lat="47.38949" lon="-1.53611">
        <ele>20</ele>
        <time>2023-11-01T00:25:15Z</time>
      </trkpt>
      <trkpt lat="47.38981" lon="-1.53602">
        <ele>19</ele>
        <time>2023-11-01T00:25:58Z</time>
      </trkpt>
      <trkpt lat="47.38985" lon="-1.53604">
        <ele>18</ele>
        <time>2023-11-01T00:26:04Z</time>
      </trkpt>
      <trkpt lat="47.39008" lon="-1.53592">
        <ele>18</ele>
        <time>2023-11-01T00:26:36Z</time>
      </trkpt>
      <trkpt lat="47.39024" lon="-1.53592">
        <ele>18</ele>
        <time>2023-11-01T00:26:58Z</time>
      </trkpt>
      <trkpt lat="47.39134" lon="-1.53566">
        <ele>19</ele>
        <time>2023-11-01T00:29:26Z</time>
      </trkpt>
      <trkpt lat="47.39183" lon="-1.53553">
        <ele>19</ele>
        <time>2023-11-01T00:30:33Z</time>
      </trkpt>
      <trkpt lat="47.39256" lon="-1.5352">
        <ele>19</ele>
        <time>2023-11-01T00:32:14Z</time>
      </trkpt>
      <trkpt lat="47.393" lon="-1.53502">
        <ele>18</ele>
        <time>2023-11-01T00:33:15Z</time>
      </trkpt>
      <trkpt lat="47.39337" lon="-1.53497">
        <ele>16</ele>
        <time>2023-11-01T00:34:05Z</time>
      </trkpt>
      <trkpt lat="47.39354" lon="-1.53496">
        <ele>15</ele>
        <time>2023-11-01T00:34:28Z</time>
      </trkpt>
      <trkpt lat="47.39421" lon="-1.53514">
        <ele>12</ele>
        <time>2023-11-01T00:35:59Z</time>
      </trkpt>
      <trkpt lat="47.39443" lon="-1.53513">
        <ele>12</ele>
        <time>2023-11-01T00:36:28Z</time>
      </trkpt>
      <trkpt lat="47.39452" lon="-1.53515">
        <ele>12</ele>
        <time>2023-11-01T00:36:40Z</time>
      </trkpt>
      <trkpt lat="47.39455" lon="-1.5352">
        <ele>12</ele>
        <time>2023-11-01T00:36:46Z</time>
      </trkpt>
      <trkpt lat="47.39469" lon="-1.53529">
        <ele>11</ele>
        <time>2023-11-01T00:37:06Z</time>
      </trkpt>
      <trkpt lat="47.39528" lon="-1.53585">
        <ele>13</ele>
        <time>2023-11-01T00:38:40Z</time>
      </trkpt>
      <trkpt lat="47.39554" lon="-1.53597">
        <ele>14</ele>
        <time>2023-11-01T00:39:16Z</time>
      </trkpt>
      <trkpt lat="47.39574" lon="-1.53603">
        <ele>15</ele>
        <time>2023-11-01T00:39:44Z</time>
      </trkpt>
      <trkpt lat="47.39588" lon="-1.53603">
        <ele>16</ele>
        <time>2023-11-01T00:40:02Z</time>
      </trkpt>
      <trkpt lat="47.39607" lon="-1.53611">
        <ele>16</ele>
        <time>2023-11-01T00:40:29Z</time>
      </trkpt>
      <trkpt lat="47.39621" lon="-1.53613">
        <ele>17</ele>
        <time>2023-11-01T00:40:47Z</time>
      </trkpt>
      <trkpt lat="47.39632" lon="-1.53625">
        <ele>17</ele>
        <time>2023-11-01T00:41:06Z</time>
      </trkpt>
      <trkpt lat="47.39656" lon="-1.53637">
        <ele>19</ele>
        <time>2023-11-01T00:41:40Z</time>
      </trkpt>
      <trkpt lat="47.39698" lon="-1.53677">
        <ele>20</ele>
        <time>2023-11-01T00:42:46Z</time>
      </trkpt>
      <trkpt lat="47.39703" lon="-1.53685">
        <ele>21</ele>
        <time>2023-11-01T00:42:56Z</time>
      </trkpt>
      <trkpt lat="47.39713" lon="-1.53696">
        <ele>21</ele>
        <time>2023-11-01T00:43:13Z</time>
      </trkpt>
      <trkpt lat="47.39724" lon="-1.53713">
        <ele>21</ele>
        <time>2023-11-01T00:43:34Z</time>
      </trkpt>
      <trkpt lat="47.39723" lon="-1.53722">
        <ele>22</ele>
        <time>2023-11-01T00:43:42Z</time>
      </trkpt>
      <trkpt lat="47.39718" lon="-1.53734">
        <ele>22</ele>
        <time>2023-11-01T00:43:55Z</time>
      </trkpt>
      <trkpt lat="47.39739" lon="-1.53704">
        <ele>22</ele>
        <time>2023-11-01T00:44:34Z</time>
      </trkpt>
      <trkpt lat="47.3976" lon="-1.53701">
        <ele>22</ele>
        <time>2023-11-01T00:45:02Z</time>
      </trkpt>
      <trkpt lat="47.39775" lon="-1.537">
        <ele>21</ele>
        <time>2023-11-01T00:45:22Z</time>
      </trkpt>
      <trkpt lat="47.398" lon="-1.53704">
        <ele>21</ele>
        <time>2023-11-01T00:45:56Z</time>
      </trkpt>
      <trkpt lat="47.39804" lon="-1.53702">
        <ele>21</ele>
        <time>2023-11-01T00:46:01Z</time>
      </trkpt>
      <trkpt lat="47.39844" lon="-1.53706">
        <ele>20</ele>
        <time>2023-11-01T00:46:55Z</time>
      </trkpt>
      <trkpt lat="47.39849" lon="-1.53709">
        <ele>20</ele>
        <time>2023-11-01T00:47:02Z</time>
      </trkpt>
      <trkpt lat="47.39885" lon="-1.53713">
        <ele>19</ele>
        <time>2023-11-01T00:47:50Z</time>
      </trkpt>
      <trkpt lat="47.39903" lon="-1.53712">
        <ele>18</ele>
        <time>2023-11-01T00:48:14Z</time>
      </trkpt>
      <trkpt lat="47.39938" lon="-1.53716">
        <ele>18</ele>
        <time>2023-11-01T00:49:01Z</time>
      </trkpt>
      <trkpt lat="47.39956" lon="-1.53723">
        <ele>18</ele>
        <time>2023-11-01T00:49:26Z</time>
      </trkpt>
      <trkpt lat="47.39971" lon="-1.53724">
        <ele>18</ele>
        <time>2023-11-01T00:49:46Z</time>
      </trkpt>
      <trkpt lat="47.39978" lon="-1.53704">
        <ele>18</ele>
        <time>2023-11-01T00:50:06Z</time>
      </trkpt>
      <trkpt lat="47.39977" lon="-1.53699">
        <ele>18</ele>
        <time>2023-11-01T00:50:11Z</time>
      </trkpt>
      <trkpt lat="47.3998" lon="-1.53688">
        <ele>17</ele>
        <time>2023-11-01T00:50:22Z</time>
      </trkpt>
      <trkpt lat="47.39979" lon="-1.5368">
        <ele>17</ele>
        <time>2023-11-01T00:50:29Z</time>
      </trkpt>
      <trkpt lat="47.40025" lon="-1.53686">
        <ele>17</ele>
        <time>2023-11-01T00:51:31Z</time>
      </trkpt>
      <trkpt lat="47.40055" lon="-1.53695">
        <ele>17</ele>
        <time>2023-11-01T00:52:11Z</time>
      </trkpt>
      <trkpt lat="47.40104" lon="-1.53696">
        <ele>15</ele>
        <time>2023-11-01T00:53:17Z</time>
      </trkpt>
      <trkpt lat="47.40121" lon="-1.53667">
        <ele>13</ele>
        <time>2023-11-01T00:53:52Z</time>
      </trkpt>
      <trkpt lat="47.40148" lon="-1.53662">
        <ele>12</ele>
        <time>2023-11-01T00:54:28Z</time>
      </trkpt>
      <trkpt lat="47.40176" lon="-1.53664">
        <ele>11</ele>
        <time>2023-11-01T00:55:05Z</time>
      </trkpt>
      <trkpt lat="47.40203" lon="-1.53664">
        <ele>10</ele>
        <time>2023-11-01T00:55:41Z</time>
      </trkpt>
      <trkpt lat="47.40202" lon="-1.53668">
        <ele>10</ele>
        <time>2023-11-01T00:55:45Z</time>
      </trkpt>
    </trkseg>
  </trk>
  <trk>
    <name><![CDATA[Suce_VoiettesVariante_11.7km-5646865]]></name>
    <extensions>
      <line xmlns="http://www.topografix.com/GPX/gpx_style/0/2">
        <color>008080</color>
        <width>4</width>
      </line>
    </extensions>
    <trkseg>
      <trkpt lat="47.34451" lon="-1.52846">
        <ele>21</ele>
        <time>2023-08-11T13:31:18Z</time>
      </trkpt>
      <trkpt lat="47.34444" lon="-1.52868">
        <ele>21</ele>
        <time>2023-08-11T13:31:40Z</time>
      </trkpt>
      <trkpt lat="47.34476" lon="-1.529">
        <ele>23</ele>
        <time>2023-08-11T13:32:32Z</time>
      </trkpt>
      <trkpt lat="47.34458" lon="-1.52931">
        <ele>22</ele>
        <time>2023-08-11T13:33:08Z</time>
      </trkpt>
      <trkpt lat="47.34364" lon="-1.53024">
        <ele>22</ele>
        <time>2023-08-11T13:35:39Z</time>
      </trkpt>
      <trkpt lat="47.34257" lon="-1.53141">
        <ele>21</ele>
        <time>2023-08-11T13:38:37Z</time>
      </trkpt>
      <trkpt lat="47.34262" lon="-1.53171">
        <ele>22</ele>
        <time>2023-08-11T13:39:05Z</time>
      </trkpt>
      <trkpt lat="47.34273" lon="-1.5318">
        <ele>23</ele>
        <time>2023-08-11T13:39:22Z</time>
      </trkpt>
      <trkpt lat="47.34306" lon="-1.53184">
        <ele>23</ele>
        <time>2023-08-11T13:40:06Z</time>
      </trkpt>
      <trkpt lat="47.34332" lon="-1.53233">
        <ele>25</ele>
        <time>2023-08-11T13:41:02Z</time>
      </trkpt>
      <trkpt lat="47.3434" lon="-1.5326">
        <ele>26</ele>
        <time>2023-08-11T13:41:29Z</time>
      </trkpt>
      <trkpt lat="47.34405" lon="-1.53368">
        <ele>29</ele>
        <time>2023-08-11T13:43:40Z</time>
      </trkpt>
      <trkpt lat="47.34464" lon="-1.53435">
        <ele>30</ele>
        <time>2023-08-11T13:45:19Z</time>
      </trkpt>
      <trkpt lat="47.34479" lon="-1.53455">
        <ele>31</ele>
        <time>2023-08-11T13:45:46Z</time>
      </trkpt>
      <trkpt lat="47.34489" lon="-1.53472">
        <ele>31</ele>
        <time>2023-08-11T13:46:06Z</time>
      </trkpt>
      <trkpt lat="47.3449" lon="-1.53488">
        <ele>32</ele>
        <time>2023-08-11T13:46:21Z</time>
      </trkpt>
      <trkpt lat="47.34504" lon="-1.53502">
        <ele>32</ele>
        <time>2023-08-11T13:46:43Z</time>
      </trkpt>
      <trkpt lat="47.34517" lon="-1.53534">
        <ele>34</ele>
        <time>2023-08-11T13:47:17Z</time>
      </trkpt>
      <trkpt lat="47.34586" lon="-1.53646">
        <ele>38</ele>
        <time>2023-08-11T13:49:34Z</time>
      </trkpt>
      <trkpt lat="47.34621" lon="-1.53695">
        <ele>37</ele>
        <time>2023-08-11T13:50:38Z</time>
      </trkpt>
      <trkpt lat="47.34642" lon="-1.53719">
        <ele>37</ele>
        <time>2023-08-11T13:51:14Z</time>
      </trkpt>
      <trkpt lat="47.34666" lon="-1.53756">
        <ele>37</ele>
        <time>2023-08-11T13:52:00Z</time>
      </trkpt>
      <trkpt lat="47.34723" lon="-1.53835">
        <ele>36</ele>
        <time>2023-08-11T13:53:45Z</time>
      </trkpt>
      <trkpt lat="47.34852" lon="-1.54031">
        <ele>35</ele>
        <time>2023-08-11T13:57:52Z</time>
      </trkpt>
      <trkpt lat="47.34873" lon="-1.54086">
        <ele>35</ele>
        <time>2023-08-11T13:58:49Z</time>
      </trkpt>
      <trkpt lat="47.34874" lon="-1.54094">
        <ele>35</ele>
        <time>2023-08-11T13:58:56Z</time>
      </trkpt>
      <trkpt lat="47.34895" lon="-1.54153">
        <ele>34</ele>
        <time>2023-08-11T13:59:56Z</time>
      </trkpt>
      <trkpt lat="47.34906" lon="-1.54174">
        <ele>34</ele>
        <time>2023-08-11T14:00:20Z</time>
      </trkpt>
      <trkpt lat="47.34909" lon="-1.54191">
        <ele>34</ele>
        <time>2023-08-11T14:00:36Z</time>
      </trkpt>
      <trkpt lat="47.34923" lon="-1.54227">
        <ele>35</ele>
        <time>2023-08-11T14:01:14Z</time>
      </trkpt>
      <trkpt lat="47.34935" lon="-1.5425">
        <ele>35</ele>
        <time>2023-08-11T14:01:40Z</time>
      </trkpt>
      <trkpt lat="47.34979" lon="-1.54394">
        <ele>33</ele>
        <time>2023-08-11T14:04:03Z</time>
      </trkpt>
      <trkpt lat="47.35013" lon="-1.54484">
        <ele>31</ele>
        <time>2023-08-11T14:05:36Z</time>
      </trkpt>
      <trkpt lat="47.35045" lon="-1.54531">
        <ele>29</ele>
        <time>2023-08-11T14:06:36Z</time>
      </trkpt>
      <trkpt lat="47.35084" lon="-1.54568">
        <ele>29</ele>
        <time>2023-08-11T14:07:38Z</time>
      </trkpt>
      <trkpt lat="47.35125" lon="-1.5457">
        <ele>29</ele>
        <time>2023-08-11T14:08:33Z</time>
      </trkpt>
      <trkpt lat="47.35175" lon="-1.54577">
        <ele>29</ele>
        <time>2023-08-11T14:09:40Z</time>
      </trkpt>
      <trkpt lat="47.35245" lon="-1.54753">
        <ele>33</ele>
        <time>2023-08-11T14:12:44Z</time>
      </trkpt>
      <trkpt lat="47.35254" lon="-1.54789">
        <ele>34</ele>
        <time>2023-08-11T14:13:19Z</time>
      </trkpt>
      <trkpt lat="47.3525" lon="-1.5481">
        <ele>34</ele>
        <time>2023-08-11T14:13:39Z</time>
      </trkpt>
      <trkpt lat="47.35211" lon="-1.54878">
        <ele>35</ele>
        <time>2023-08-11T14:14:59Z</time>
      </trkpt>
      <trkpt lat="47.35163" lon="-1.54976">
        <ele>36</ele>
        <time>2023-08-11T14:16:49Z</time>
      </trkpt>
      <trkpt lat="47.35142" lon="-1.55043">
        <ele>36</ele>
        <time>2023-08-11T14:17:55Z</time>
      </trkpt>
      <trkpt lat="47.35143" lon="-1.55062">
        <ele>37</ele>
        <time>2023-08-11T14:18:13Z</time>
      </trkpt>
      <trkpt lat="47.35138" lon="-1.55096">
        <ele>37</ele>
        <time>2023-08-11T14:18:44Z</time>
      </trkpt>
      <trkpt lat="47.3513" lon="-1.5511">
        <ele>37</ele>
        <time>2023-08-11T14:19:01Z</time>
      </trkpt>
      <trkpt lat="47.35121" lon="-1.55156">
        <ele>37</ele>
        <time>2023-08-11T14:19:44Z</time>
      </trkpt>
      <trkpt lat="47.35111" lon="-1.55173">
        <ele>37</ele>
        <time>2023-08-11T14:20:04Z</time>
      </trkpt>
      <trkpt lat="47.35019" lon="-1.55226">
        <ele>34</ele>
        <time>2023-08-11T14:22:16Z</time>
      </trkpt>
      <trkpt lat="47.34924" lon="-1.55267">
        <ele>32</ele>
        <time>2023-08-11T14:24:28Z</time>
      </trkpt>
      <trkpt lat="47.34892" lon="-1.55284">
        <ele>31</ele>
        <time>2023-08-11T14:25:13Z</time>
      </trkpt>
      <trkpt lat="47.34838" lon="-1.55324">
        <ele>31</ele>
        <time>2023-08-11T14:26:34Z</time>
      </trkpt>
      <trkpt lat="47.34804" lon="-1.55354">
        <ele>31</ele>
        <time>2023-08-11T14:27:27Z</time>
      </trkpt>
      <trkpt lat="47.34792" lon="-1.5536">
        <ele>31</ele>
        <time>2023-08-11T14:27:44Z</time>
      </trkpt>
      <trkpt lat="47.34742" lon="-1.55368">
        <ele>30</ele>
        <time>2023-08-11T14:28:51Z</time>
      </trkpt>
      <trkpt lat="47.34737" lon="-1.55374">
        <ele>30</ele>
        <time>2023-08-11T14:29:00Z</time>
      </trkpt>
      <trkpt lat="47.3474" lon="-1.55398">
        <ele>31</ele>
        <time>2023-08-11T14:29:22Z</time>
      </trkpt>
      <trkpt lat="47.34757" lon="-1.55457">
        <ele>31</ele>
        <time>2023-08-11T14:30:20Z</time>
      </trkpt>
      <trkpt lat="47.34792" lon="-1.5561">
        <ele>28</ele>
        <time>2023-08-11T14:32:46Z</time>
      </trkpt>
      <trkpt lat="47.34809" lon="-1.55642">
        <ele>27</ele>
        <time>2023-08-11T14:33:22Z</time>
      </trkpt>
      <trkpt lat="47.3482" lon="-1.55653">
        <ele>27</ele>
        <time>2023-08-11T14:33:40Z</time>
      </trkpt>
      <trkpt lat="47.34834" lon="-1.55674">
        <ele>26</ele>
        <time>2023-08-11T14:34:07Z</time>
      </trkpt>
      <trkpt lat="47.34839" lon="-1.5569">
        <ele>26</ele>
        <time>2023-08-11T14:34:23Z</time>
      </trkpt>
      <trkpt lat="47.34857" lon="-1.55722">
        <ele>27</ele>
        <time>2023-08-11T14:35:00Z</time>
      </trkpt>
      <trkpt lat="47.34871" lon="-1.55741">
        <ele>27</ele>
        <time>2023-08-11T14:35:26Z</time>
      </trkpt>
      <trkpt lat="47.34888" lon="-1.55782">
        <ele>28</ele>
        <time>2023-08-11T14:36:09Z</time>
      </trkpt>
      <trkpt lat="47.34903" lon="-1.55808">
        <ele>29</ele>
        <time>2023-08-11T14:36:40Z</time>
      </trkpt>
      <trkpt lat="47.3491" lon="-1.55824">
        <ele>30</ele>
        <time>2023-08-11T14:36:57Z</time>
      </trkpt>
      <trkpt lat="47.34914" lon="-1.55854">
        <ele>30</ele>
        <time>2023-08-11T14:37:25Z</time>
      </trkpt>
      <trkpt lat="47.34922" lon="-1.55869">
        <ele>31</ele>
        <time>2023-08-11T14:37:42Z</time>
      </trkpt>
      <trkpt lat="47.34935" lon="-1.55906">
        <ele>32</ele>
        <time>2023-08-11T14:38:20Z</time>
      </trkpt>
      <trkpt lat="47.34941" lon="-1.5593">
        <ele>32</ele>
        <time>2023-08-11T14:38:43Z</time>
      </trkpt>
      <trkpt lat="47.34935" lon="-1.5593">
        <ele>32</ele>
        <time>2023-08-11T14:38:51Z</time>
      </trkpt>
      <trkpt lat="47.34946" lon="-1.55934">
        <ele>33</ele>
        <time>2023-08-11T14:39:06Z</time>
      </trkpt>
      <trkpt lat="47.34962" lon="-1.55924">
        <ele>33</ele>
        <time>2023-08-11T14:39:29Z</time>
      </trkpt>
      <trkpt lat="47.34977" lon="-1.55918">
        <ele>33</ele>
        <time>2023-08-11T14:39:50Z</time>
      </trkpt>
      <trkpt lat="47.35084" lon="-1.55884">
        <ele>34</ele>
        <time>2023-08-11T14:42:16Z</time>
      </trkpt>
      <trkpt lat="47.35091" lon="-1.55884">
        <ele>34</ele>
        <time>2023-08-11T14:42:25Z</time>
      </trkpt>
      <trkpt lat="47.35098" lon="-1.55885">
        <ele>34</ele>
        <time>2023-08-11T14:42:35Z</time>
      </trkpt>
      <trkpt lat="47.35117" lon="-1.55894">
        <ele>34</ele>
        <time>2023-08-11T14:43:01Z</time>
      </trkpt>
      <trkpt lat="47.3513" lon="-1.55905">
        <ele>34</ele>
        <time>2023-08-11T14:43:21Z</time>
      </trkpt>
      <trkpt lat="47.35153" lon="-1.55935">
        <ele>35</ele>
        <time>2023-08-11T14:44:02Z</time>
      </trkpt>
      <trkpt lat="47.35171" lon="-1.55945">
        <ele>35</ele>
        <time>2023-08-11T14:44:28Z</time>
      </trkpt>
      <trkpt lat="47.35184" lon="-1.55945">
        <ele>35</ele>
        <time>2023-08-11T14:44:45Z</time>
      </trkpt>
      <trkpt lat="47.35281" lon="-1.55909">
        <ele>34</ele>
        <time>2023-08-11T14:46:59Z</time>
      </trkpt>
      <trkpt lat="47.35343" lon="-1.5588">
        <ele>34</ele>
        <time>2023-08-11T14:48:26Z</time>
      </trkpt>
      <trkpt lat="47.35363" lon="-1.55875">
        <ele>34</ele>
        <time>2023-08-11T14:48:53Z</time>
      </trkpt>
      <trkpt lat="47.35374" lon="-1.55868">
        <ele>34</ele>
        <time>2023-08-11T14:49:09Z</time>
      </trkpt>
      <trkpt lat="47.35422" lon="-1.55849">
        <ele>34</ele>
        <time>2023-08-11T14:50:15Z</time>
      </trkpt>
      <trkpt lat="47.35426" lon="-1.55845">
        <ele>34</ele>
        <time>2023-08-11T14:50:21Z</time>
      </trkpt>
      <trkpt lat="47.3543" lon="-1.55831">
        <ele>35</ele>
        <time>2023-08-11T14:50:35Z</time>
      </trkpt>
      <trkpt lat="47.3542" lon="-1.55727">
        <ele>35</ele>
        <time>2023-08-11T14:52:10Z</time>
      </trkpt>
      <trkpt lat="47.35417" lon="-1.55641">
        <ele>36</ele>
        <time>2023-08-11T14:53:28Z</time>
      </trkpt>
      <trkpt lat="47.35425" lon="-1.55629">
        <ele>36</ele>
        <time>2023-08-11T14:53:43Z</time>
      </trkpt>
      <trkpt lat="47.35456" lon="-1.55617">
        <ele>36</ele>
        <time>2023-08-11T14:54:26Z</time>
      </trkpt>
      <trkpt lat="47.35498" lon="-1.55596">
        <ele>37</ele>
        <time>2023-08-11T14:55:25Z</time>
      </trkpt>
      <trkpt lat="47.35536" lon="-1.55585">
        <ele>38</ele>
        <time>2023-08-11T14:56:17Z</time>
      </trkpt>
      <trkpt lat="47.35586" lon="-1.55563">
        <ele>38</ele>
        <time>2023-08-11T14:57:26Z</time>
      </trkpt>
      <trkpt lat="47.35623" lon="-1.5555">
        <ele>38</ele>
        <time>2023-08-11T14:58:17Z</time>
      </trkpt>
      <trkpt lat="47.35649" lon="-1.55535">
        <ele>39</ele>
        <time>2023-08-11T14:58:54Z</time>
      </trkpt>
      <trkpt lat="47.3565" lon="-1.55538">
        <ele>39</ele>
        <time>2023-08-11T14:58:58Z</time>
      </trkpt>
      <trkpt lat="47.3566" lon="-1.55534">
        <ele>39</ele>
        <time>2023-08-11T14:59:11Z</time>
      </trkpt>
      <trkpt lat="47.35665" lon="-1.55536">
        <ele>39</ele>
        <time>2023-08-11T14:59:18Z</time>
      </trkpt>
      <trkpt lat="47.35672" lon="-1.55549">
        <ele>39</ele>
        <time>2023-08-11T14:59:33Z</time>
      </trkpt>
      <trkpt lat="47.35677" lon="-1.55569">
        <ele>39</ele>
        <time>2023-08-11T14:59:53Z</time>
      </trkpt>
      <trkpt lat="47.35695" lon="-1.55598">
        <ele>38</ele>
        <time>2023-08-11T15:00:28Z</time>
      </trkpt>
      <trkpt lat="47.35732" lon="-1.55674">
        <ele>38</ele>
        <time>2023-08-11T15:01:53Z</time>
      </trkpt>
      <trkpt lat="47.35759" lon="-1.55714">
        <ele>38</ele>
        <time>2023-08-11T15:02:44Z</time>
      </trkpt>
      <trkpt lat="47.35772" lon="-1.5571">
        <ele>38</ele>
        <time>2023-08-11T15:03:01Z</time>
      </trkpt>
      <trkpt lat="47.35802" lon="-1.55689">
        <ele>37</ele>
        <time>2023-08-11T15:03:46Z</time>
      </trkpt>
      <trkpt lat="47.35833" lon="-1.55674">
        <ele>37</ele>
        <time>2023-08-11T15:04:29Z</time>
      </trkpt>
      <trkpt lat="47.35888" lon="-1.55665">
        <ele>37</ele>
        <time>2023-08-11T15:05:43Z</time>
      </trkpt>
      <trkpt lat="47.35954" lon="-1.5566">
        <ele>36</ele>
        <time>2023-08-11T15:07:11Z</time>
      </trkpt>
      <trkpt lat="47.3602" lon="-1.55659">
        <ele>36</ele>
        <time>2023-08-11T15:08:39Z</time>
      </trkpt>
      <trkpt lat="47.3609" lon="-1.55654">
        <ele>36</ele>
        <time>2023-08-11T15:10:13Z</time>
      </trkpt>
      <trkpt lat="47.36089" lon="-1.55656">
        <ele>36</ele>
        <time>2023-08-11T15:10:15Z</time>
      </trkpt>
      <trkpt lat="47.36092" lon="-1.55656">
        <ele>36</ele>
        <time>2023-08-11T15:10:19Z</time>
      </trkpt>
      <trkpt lat="47.3609" lon="-1.55657">
        <ele>36</ele>
        <time>2023-08-11T15:10:22Z</time>
      </trkpt>
      <trkpt lat="47.36093" lon="-1.55655">
        <ele>36</ele>
        <time>2023-08-11T15:10:26Z</time>
      </trkpt>
      <trkpt lat="47.36097" lon="-1.55657">
        <ele>36</ele>
        <time>2023-08-11T15:10:32Z</time>
      </trkpt>
      <trkpt lat="47.36097" lon="-1.5566">
        <ele>36</ele>
        <time>2023-08-11T15:10:35Z</time>
      </trkpt>
      <trkpt lat="47.36095" lon="-1.5566">
        <ele>36</ele>
        <time>2023-08-11T15:10:37Z</time>
      </trkpt>
      <trkpt lat="47.36093" lon="-1.55656">
        <ele>36</ele>
        <time>2023-08-11T15:10:42Z</time>
      </trkpt>
      <trkpt lat="47.36089" lon="-1.55659">
        <ele>36</ele>
        <time>2023-08-11T15:10:48Z</time>
      </trkpt>
      <trkpt lat="47.3609" lon="-1.55657">
        <ele>36</ele>
        <time>2023-08-11T15:10:50Z</time>
      </trkpt>
      <trkpt lat="47.36094" lon="-1.55659">
        <ele>36</ele>
        <time>2023-08-11T15:10:56Z</time>
      </trkpt>
      <trkpt lat="47.36089" lon="-1.55656">
        <ele>36</ele>
        <time>2023-08-11T15:11:03Z</time>
      </trkpt>
      <trkpt lat="47.36089" lon="-1.55661">
        <ele>36</ele>
        <time>2023-08-11T15:11:08Z</time>
      </trkpt>
      <trkpt lat="47.36092" lon="-1.55663">
        <ele>36</ele>
        <time>2023-08-11T15:11:12Z</time>
      </trkpt>
      <trkpt lat="47.36091" lon="-1.55656">
        <ele>36</ele>
        <time>2023-08-11T15:11:18Z</time>
      </trkpt>
      <trkpt lat="47.36093" lon="-1.55654">
        <ele>36</ele>
        <time>2023-08-11T15:11:22Z</time>
      </trkpt>
      <trkpt lat="47.36118" lon="-1.55653">
        <ele>36</ele>
        <time>2023-08-11T15:11:55Z</time>
      </trkpt>
      <trkpt lat="47.36237" lon="-1.5566">
        <ele>35</ele>
        <time>2023-08-11T15:14:34Z</time>
      </trkpt>
      <trkpt lat="47.36287" lon="-1.55668">
        <ele>35</ele>
        <time>2023-08-11T15:15:41Z</time>
      </trkpt>
      <trkpt lat="47.36334" lon="-1.55669">
        <ele>36</ele>
        <time>2023-08-11T15:16:44Z</time>
      </trkpt>
      <trkpt lat="47.36346" lon="-1.55672">
        <ele>36</ele>
        <time>2023-08-11T15:17:00Z</time>
      </trkpt>
      <trkpt lat="47.36358" lon="-1.55671">
        <ele>36</ele>
        <time>2023-08-11T15:17:16Z</time>
      </trkpt>
      <trkpt lat="47.36404" lon="-1.55677">
        <ele>36</ele>
        <time>2023-08-11T15:18:18Z</time>
      </trkpt>
      <trkpt lat="47.36464" lon="-1.55696">
        <ele>36</ele>
        <time>2023-08-11T15:19:40Z</time>
      </trkpt>
      <trkpt lat="47.36501" lon="-1.5572">
        <ele>35</ele>
        <time>2023-08-11T15:20:33Z</time>
      </trkpt>
      <trkpt lat="47.36526" lon="-1.5574">
        <ele>34</ele>
        <time>2023-08-11T15:21:11Z</time>
      </trkpt>
      <trkpt lat="47.36589" lon="-1.55776">
        <ele>33</ele>
        <time>2023-08-11T15:22:42Z</time>
      </trkpt>
      <trkpt lat="47.366" lon="-1.55785">
        <ele>32</ele>
        <time>2023-08-11T15:22:58Z</time>
      </trkpt>
      <trkpt lat="47.36709" lon="-1.55834">
        <ele>30</ele>
        <time>2023-08-11T15:25:30Z</time>
      </trkpt>
      <trkpt lat="47.36832" lon="-1.55893">
        <ele>30</ele>
        <time>2023-08-11T15:28:23Z</time>
      </trkpt>
      <trkpt lat="47.36858" lon="-1.55904">
        <ele>30</ele>
        <time>2023-08-11T15:28:59Z</time>
      </trkpt>
      <trkpt lat="47.36877" lon="-1.55905">
        <ele>30</ele>
        <time>2023-08-11T15:29:24Z</time>
      </trkpt>
      <trkpt lat="47.36889" lon="-1.55909">
        <ele>30</ele>
        <time>2023-08-11T15:29:41Z</time>
      </trkpt>
      <trkpt lat="47.37032" lon="-1.55966">
        <ele>30</ele>
        <time>2023-08-11T15:32:59Z</time>
      </trkpt>
      <trkpt lat="47.37081" lon="-1.55989">
        <ele>31</ele>
        <time>2023-08-11T15:34:07Z</time>
      </trkpt>
      <trkpt lat="47.37088" lon="-1.55989">
        <ele>31</ele>
        <time>2023-08-11T15:34:16Z</time>
      </trkpt>
      <trkpt lat="47.37125" lon="-1.55921">
        <ele>31</ele>
        <time>2023-08-11T15:35:35Z</time>
      </trkpt>
      <trkpt lat="47.37153" lon="-1.55879">
        <ele>32</ele>
        <time>2023-08-11T15:36:29Z</time>
      </trkpt>
      <trkpt lat="47.37165" lon="-1.55778">
        <ele>32</ele>
        <time>2023-08-11T15:38:01Z</time>
      </trkpt>
      <trkpt lat="47.37178" lon="-1.55708">
        <ele>31</ele>
        <time>2023-08-11T15:39:07Z</time>
      </trkpt>
      <trkpt lat="47.37184" lon="-1.55654">
        <ele>30</ele>
        <time>2023-08-11T15:39:56Z</time>
      </trkpt>
      <trkpt lat="47.37188" lon="-1.55637">
        <ele>30</ele>
        <time>2023-08-11T15:40:13Z</time>
      </trkpt>
      <trkpt lat="47.37189" lon="-1.55616">
        <ele>30</ele>
        <time>2023-08-11T15:40:32Z</time>
      </trkpt>
      <trkpt lat="47.372" lon="-1.5557">
        <ele>29</ele>
        <time>2023-08-11T15:41:16Z</time>
      </trkpt>
      <trkpt lat="47.37205" lon="-1.55553">
        <ele>29</ele>
        <time>2023-08-11T15:41:32Z</time>
      </trkpt>
      <trkpt lat="47.37232" lon="-1.55494">
        <ele>29</ele>
        <time>2023-08-11T15:42:37Z</time>
      </trkpt>
      <trkpt lat="47.37292" lon="-1.55405">
        <ele>29</ele>
        <time>2023-08-11T15:44:30Z</time>
      </trkpt>
      <trkpt lat="47.373" lon="-1.55389">
        <ele>29</ele>
        <time>2023-08-11T15:44:48Z</time>
      </trkpt>
      <trkpt lat="47.37313" lon="-1.55314">
        <ele>30</ele>
        <time>2023-08-11T15:45:58Z</time>
      </trkpt>
      <trkpt lat="47.37324" lon="-1.55209">
        <ele>30</ele>
        <time>2023-08-11T15:47:34Z</time>
      </trkpt>
      <trkpt lat="47.3733" lon="-1.55205">
        <ele>30</ele>
        <time>2023-08-11T15:47:43Z</time>
      </trkpt>
      <trkpt lat="47.37343" lon="-1.55203">
        <ele>29</ele>
        <time>2023-08-11T15:48:00Z</time>
      </trkpt>
      <trkpt lat="47.37348" lon="-1.55198">
        <ele>29</ele>
        <time>2023-08-11T15:48:08Z</time>
      </trkpt>
      <trkpt lat="47.37355" lon="-1.55183">
        <ele>29</ele>
        <time>2023-08-11T15:48:25Z</time>
      </trkpt>
      <trkpt lat="47.3736" lon="-1.55129">
        <ele>30</ele>
        <time>2023-08-11T15:49:14Z</time>
      </trkpt>
      <trkpt lat="47.37357" lon="-1.55095">
        <ele>30</ele>
        <time>2023-08-11T15:49:45Z</time>
      </trkpt>
      <trkpt lat="47.37359" lon="-1.55046">
        <ele>30</ele>
        <time>2023-08-11T15:50:30Z</time>
      </trkpt>
      <trkpt lat="47.37357" lon="-1.55">
        <ele>30</ele>
        <time>2023-08-11T15:51:11Z</time>
      </trkpt>
      <trkpt lat="47.37371" lon="-1.54937">
        <ele>31</ele>
        <time>2023-08-11T15:52:11Z</time>
      </trkpt>
      <trkpt lat="47.37373" lon="-1.54907">
        <ele>31</ele>
        <time>2023-08-11T15:52:38Z</time>
      </trkpt>
      <trkpt lat="47.37379" lon="-1.5487">
        <ele>31</ele>
        <time>2023-08-11T15:53:13Z</time>
      </trkpt>
      <trkpt lat="47.37393" lon="-1.54816">
        <ele>31</ele>
        <time>2023-08-11T15:54:05Z</time>
      </trkpt>
      <trkpt lat="47.37391" lon="-1.5477">
        <ele>30</ele>
        <time>2023-08-11T15:54:47Z</time>
      </trkpt>
      <trkpt lat="47.37384" lon="-1.54712">
        <ele>30</ele>
        <time>2023-08-11T15:55:40Z</time>
      </trkpt>
      <trkpt lat="47.37373" lon="-1.54656">
        <ele>29</ele>
        <time>2023-08-11T15:56:33Z</time>
      </trkpt>
      <trkpt lat="47.37365" lon="-1.54642">
        <ele>29</ele>
        <time>2023-08-11T15:56:49Z</time>
      </trkpt>
      <trkpt lat="47.37359" lon="-1.54639">
        <ele>29</ele>
        <time>2023-08-11T15:56:58Z</time>
      </trkpt>
      <trkpt lat="47.37352" lon="-1.54637">
        <ele>29</ele>
        <time>2023-08-11T15:57:07Z</time>
      </trkpt>
      <trkpt lat="47.37332" lon="-1.5464">
        <ele>30</ele>
        <time>2023-08-11T15:57:34Z</time>
      </trkpt>
      <trkpt lat="47.37325" lon="-1.54639">
        <ele>30</ele>
        <time>2023-08-11T15:57:43Z</time>
      </trkpt>
      <trkpt lat="47.37344" lon="-1.54594">
        <ele>29</ele>
        <time>2023-08-11T15:58:31Z</time>
      </trkpt>
      <trkpt lat="47.37349" lon="-1.54588">
        <ele>29</ele>
        <time>2023-08-11T15:58:40Z</time>
      </trkpt>
      <trkpt lat="47.37347" lon="-1.54529">
        <ele>28</ele>
        <time>2023-08-11T15:59:33Z</time>
      </trkpt>
      <trkpt lat="47.3735" lon="-1.54479">
        <ele>26</ele>
        <time>2023-08-11T16:00:19Z</time>
      </trkpt>
      <trkpt lat="47.37365" lon="-1.54342">
        <ele>21</ele>
        <time>2023-08-11T16:02:24Z</time>
      </trkpt>
      <trkpt lat="47.37374" lon="-1.54294">
        <ele>21</ele>
        <time>2023-08-11T16:03:09Z</time>
      </trkpt>
      <trkpt lat="47.37372" lon="-1.54275">
        <ele>21</ele>
        <time>2023-08-11T16:03:26Z</time>
      </trkpt>
      <trkpt lat="47.37351" lon="-1.5425">
        <ele>20</ele>
        <time>2023-08-11T16:04:02Z</time>
      </trkpt>
      <trkpt lat="47.37324" lon="-1.542">
        <ele>21</ele>
        <time>2023-08-11T16:05:00Z</time>
      </trkpt>
      <trkpt lat="47.37321" lon="-1.54199">
        <ele>21</ele>
        <time>2023-08-11T16:05:04Z</time>
      </trkpt>
      <trkpt lat="47.37318" lon="-1.54183">
        <ele>21</ele>
        <time>2023-08-11T16:05:19Z</time>
      </trkpt>
      <trkpt lat="47.37301" lon="-1.54146">
        <ele>21</ele>
        <time>2023-08-11T16:06:00Z</time>
      </trkpt>
      <trkpt lat="47.37276" lon="-1.54074">
        <ele>22</ele>
        <time>2023-08-11T16:07:13Z</time>
      </trkpt>
      <trkpt lat="47.37265" lon="-1.54052">
        <ele>22</ele>
        <time>2023-08-11T16:07:38Z</time>
      </trkpt>
      <trkpt lat="47.37259" lon="-1.54047">
        <ele>21</ele>
        <time>2023-08-11T16:07:47Z</time>
      </trkpt>
      <trkpt lat="47.37252" lon="-1.54047">
        <ele>21</ele>
        <time>2023-08-11T16:07:56Z</time>
      </trkpt>
      <trkpt lat="47.37154" lon="-1.54078">
        <ele>20</ele>
        <time>2023-08-11T16:10:10Z</time>
      </trkpt>
      <trkpt lat="47.37139" lon="-1.54095">
        <ele>20</ele>
        <time>2023-08-11T16:10:35Z</time>
      </trkpt>
      <trkpt lat="47.37121" lon="-1.54124">
        <ele>19</ele>
        <time>2023-08-11T16:11:11Z</time>
      </trkpt>
      <trkpt lat="47.37112" lon="-1.54154">
        <ele>19</ele>
        <time>2023-08-11T16:11:40Z</time>
      </trkpt>
      <trkpt lat="47.37106" lon="-1.54161">
        <ele>19</ele>
        <time>2023-08-11T16:11:50Z</time>
      </trkpt>
      <trkpt lat="47.371" lon="-1.54164">
        <ele>19</ele>
        <time>2023-08-11T16:11:59Z</time>
      </trkpt>
      <trkpt lat="47.37079" lon="-1.54164">
        <ele>19</ele>
        <time>2023-08-11T16:12:27Z</time>
      </trkpt>
      <trkpt lat="47.37049" lon="-1.54143">
        <ele>18</ele>
        <time>2023-08-11T16:13:11Z</time>
      </trkpt>
      <trkpt lat="47.37035" lon="-1.54143">
        <ele>18</ele>
        <time>2023-08-11T16:13:30Z</time>
      </trkpt>
      <trkpt lat="47.36984" lon="-1.54166">
        <ele>18</ele>
        <time>2023-08-11T16:14:41Z</time>
      </trkpt>
      <trkpt lat="47.36971" lon="-1.54168">
        <ele>19</ele>
        <time>2023-08-11T16:14:59Z</time>
      </trkpt>
      <trkpt lat="47.36926" lon="-1.54185">
        <ele>20</ele>
        <time>2023-08-11T16:16:01Z</time>
      </trkpt>
      <trkpt lat="47.36864" lon="-1.54228">
        <ele>20</ele>
        <time>2023-08-11T16:17:32Z</time>
      </trkpt>
      <trkpt lat="47.36858" lon="-1.54238">
        <ele>20</ele>
        <time>2023-08-11T16:17:44Z</time>
      </trkpt>
      <trkpt lat="47.36827" lon="-1.54258">
        <ele>19</ele>
        <time>2023-08-11T16:18:29Z</time>
      </trkpt>
      <trkpt lat="47.36775" lon="-1.54303">
        <ele>20</ele>
        <time>2023-08-11T16:19:50Z</time>
      </trkpt>
      <trkpt lat="47.3676" lon="-1.54312">
        <ele>20</ele>
        <time>2023-08-11T16:20:11Z</time>
      </trkpt>
      <trkpt lat="47.36697" lon="-1.54338">
        <ele>19</ele>
        <time>2023-08-11T16:21:39Z</time>
      </trkpt>
      <trkpt lat="47.36678" lon="-1.54349">
        <ele>19</ele>
        <time>2023-08-11T16:22:06Z</time>
      </trkpt>
      <trkpt lat="47.36647" lon="-1.54349">
        <ele>19</ele>
        <time>2023-08-11T16:22:47Z</time>
      </trkpt>
      <trkpt lat="47.36628" lon="-1.54353">
        <ele>19</ele>
        <time>2023-08-11T16:23:13Z</time>
      </trkpt>
      <trkpt lat="47.36576" lon="-1.54354">
        <ele>19</ele>
        <time>2023-08-11T16:24:22Z</time>
      </trkpt>
      <trkpt lat="47.36531" lon="-1.54347">
        <ele>20</ele>
        <time>2023-08-11T16:25:22Z</time>
      </trkpt>
      <trkpt lat="47.36517" lon="-1.54341">
        <ele>20</ele>
        <time>2023-08-11T16:25:42Z</time>
      </trkpt>
      <trkpt lat="47.36497" lon="-1.5432">
        <ele>20</ele>
        <time>2023-08-11T16:26:15Z</time>
      </trkpt>
      <trkpt lat="47.36486" lon="-1.54314">
        <ele>20</ele>
        <time>2023-08-11T16:26:30Z</time>
      </trkpt>
      <trkpt lat="47.36471" lon="-1.54298">
        <ele>20</ele>
        <time>2023-08-11T16:26:55Z</time>
      </trkpt>
      <trkpt lat="47.36461" lon="-1.54292">
        <ele>20</ele>
        <time>2023-08-11T16:27:09Z</time>
      </trkpt>
      <trkpt lat="47.36429" lon="-1.54284">
        <ele>20</ele>
        <time>2023-08-11T16:27:53Z</time>
      </trkpt>
      <trkpt lat="47.36395" lon="-1.5428">
        <ele>21</ele>
        <time>2023-08-11T16:28:38Z</time>
      </trkpt>
      <trkpt lat="47.36337" lon="-1.5426">
        <ele>22</ele>
        <time>2023-08-11T16:29:58Z</time>
      </trkpt>
      <trkpt lat="47.36325" lon="-1.5426">
        <ele>22</ele>
        <time>2023-08-11T16:30:14Z</time>
      </trkpt>
      <trkpt lat="47.36262" lon="-1.54241">
        <ele>25</ele>
        <time>2023-08-11T16:31:40Z</time>
      </trkpt>
      <trkpt lat="47.362" lon="-1.54198">
        <ele>26</ele>
        <time>2023-08-11T16:33:11Z</time>
      </trkpt>
      <trkpt lat="47.36191" lon="-1.542">
        <ele>26</ele>
        <time>2023-08-11T16:33:23Z</time>
      </trkpt>
      <trkpt lat="47.36184" lon="-1.54195">
        <ele>26</ele>
        <time>2023-08-11T16:33:34Z</time>
      </trkpt>
      <trkpt lat="47.36173" lon="-1.54165">
        <ele>27</ele>
        <time>2023-08-11T16:34:04Z</time>
      </trkpt>
      <trkpt lat="47.36182" lon="-1.54078">
        <ele>27</ele>
        <time>2023-08-11T16:35:24Z</time>
      </trkpt>
      <trkpt lat="47.36187" lon="-1.54053">
        <ele>26</ele>
        <time>2023-08-11T16:35:47Z</time>
      </trkpt>
      <trkpt lat="47.36188" lon="-1.53988">
        <ele>26</ele>
        <time>2023-08-11T16:36:46Z</time>
      </trkpt>
      <trkpt lat="47.36177" lon="-1.53909">
        <ele>26</ele>
        <time>2023-08-11T16:37:59Z</time>
      </trkpt>
      <trkpt lat="47.36177" lon="-1.53881">
        <ele>26</ele>
        <time>2023-08-11T16:38:24Z</time>
      </trkpt>
      <trkpt lat="47.36183" lon="-1.53816">
        <ele>27</ele>
        <time>2023-08-11T16:39:24Z</time>
      </trkpt>
      <trkpt lat="47.36187" lon="-1.53799">
        <ele>27</ele>
        <time>2023-08-11T16:39:40Z</time>
      </trkpt>
      <trkpt lat="47.36186" lon="-1.53782">
        <ele>27</ele>
        <time>2023-08-11T16:39:55Z</time>
      </trkpt>
      <trkpt lat="47.3618" lon="-1.53779">
        <ele>27</ele>
        <time>2023-08-11T16:40:04Z</time>
      </trkpt>
      <trkpt lat="47.36174" lon="-1.5378">
        <ele>28</ele>
        <time>2023-08-11T16:40:12Z</time>
      </trkpt>
      <trkpt lat="47.36123" lon="-1.53795">
        <ele>27</ele>
        <time>2023-08-11T16:41:21Z</time>
      </trkpt>
      <trkpt lat="47.36111" lon="-1.53801">
        <ele>27</ele>
        <time>2023-08-11T16:41:38Z</time>
      </trkpt>
      <trkpt lat="47.36036" lon="-1.53819">
        <ele>28</ele>
        <time>2023-08-11T16:43:20Z</time>
      </trkpt>
      <trkpt lat="47.36022" lon="-1.5382">
        <ele>28</ele>
        <time>2023-08-11T16:43:38Z</time>
      </trkpt>
      <trkpt lat="47.3601" lon="-1.53818">
        <ele>28</ele>
        <time>2023-08-11T16:43:54Z</time>
      </trkpt>
      <trkpt lat="47.35955" lon="-1.53793">
        <ele>30</ele>
        <time>2023-08-11T16:45:11Z</time>
      </trkpt>
      <trkpt lat="47.35819" lon="-1.53709">
        <ele>31</ele>
        <time>2023-08-11T16:48:28Z</time>
      </trkpt>
      <trkpt lat="47.35765" lon="-1.5368">
        <ele>30</ele>
        <time>2023-08-11T16:49:45Z</time>
      </trkpt>
      <trkpt lat="47.35754" lon="-1.53672">
        <ele>30</ele>
        <time>2023-08-11T16:50:01Z</time>
      </trkpt>
      <trkpt lat="47.35728" lon="-1.5366">
        <ele>31</ele>
        <time>2023-08-11T16:50:37Z</time>
      </trkpt>
      <trkpt lat="47.35711" lon="-1.53649">
        <ele>31</ele>
        <time>2023-08-11T16:51:02Z</time>
      </trkpt>
      <trkpt lat="47.35675" lon="-1.53635">
        <ele>32</ele>
        <time>2023-08-11T16:51:52Z</time>
      </trkpt>
      <trkpt lat="47.35654" lon="-1.53619">
        <ele>32</ele>
        <time>2023-08-11T16:52:23Z</time>
      </trkpt>
      <trkpt lat="47.35639" lon="-1.53613">
        <ele>32</ele>
        <time>2023-08-11T16:52:44Z</time>
      </trkpt>
      <trkpt lat="47.35629" lon="-1.53606">
        <ele>32</ele>
        <time>2023-08-11T16:52:59Z</time>
      </trkpt>
      <trkpt lat="47.35613" lon="-1.53601">
        <ele>33</ele>
        <time>2023-08-11T16:53:21Z</time>
      </trkpt>
      <trkpt lat="47.35566" lon="-1.53573">
        <ele>33</ele>
        <time>2023-08-11T16:54:28Z</time>
      </trkpt>
      <trkpt lat="47.35547" lon="-1.53567">
        <ele>33</ele>
        <time>2023-08-11T16:54:54Z</time>
      </trkpt>
      <trkpt lat="47.35541" lon="-1.53561">
        <ele>33</ele>
        <time>2023-08-11T16:55:04Z</time>
      </trkpt>
      <trkpt lat="47.35518" lon="-1.53547">
        <ele>33</ele>
        <time>2023-08-11T16:55:37Z</time>
      </trkpt>
      <trkpt lat="47.35493" lon="-1.53537">
        <ele>33</ele>
        <time>2023-08-11T16:56:12Z</time>
      </trkpt>
      <trkpt lat="47.35488" lon="-1.53533">
        <ele>33</ele>
        <time>2023-08-11T16:56:19Z</time>
      </trkpt>
      <trkpt lat="47.35438" lon="-1.53516">
        <ele>32</ele>
        <time>2023-08-11T16:57:28Z</time>
      </trkpt>
      <trkpt lat="47.35409" lon="-1.53501">
        <ele>32</ele>
        <time>2023-08-11T16:58:09Z</time>
      </trkpt>
      <trkpt lat="47.35377" lon="-1.5349">
        <ele>30</ele>
        <time>2023-08-11T16:58:53Z</time>
      </trkpt>
      <trkpt lat="47.3537" lon="-1.53491">
        <ele>30</ele>
        <time>2023-08-11T16:59:02Z</time>
      </trkpt>
      <trkpt lat="47.35349" lon="-1.53485">
        <ele>29</ele>
        <time>2023-08-11T16:59:31Z</time>
      </trkpt>
      <trkpt lat="47.35308" lon="-1.53484">
        <ele>29</ele>
        <time>2023-08-11T17:00:25Z</time>
      </trkpt>
      <trkpt lat="47.35289" lon="-1.53481">
        <ele>30</ele>
        <time>2023-08-11T17:00:51Z</time>
      </trkpt>
      <trkpt lat="47.35276" lon="-1.53483">
        <ele>30</ele>
        <time>2023-08-11T17:01:08Z</time>
      </trkpt>
      <trkpt lat="47.3526" lon="-1.53477">
        <ele>30</ele>
        <time>2023-08-11T17:01:30Z</time>
      </trkpt>
      <trkpt lat="47.35254" lon="-1.53477">
        <ele>30</ele>
        <time>2023-08-11T17:01:38Z</time>
      </trkpt>
      <trkpt lat="47.35239" lon="-1.53471">
        <ele>31</ele>
        <time>2023-08-11T17:01:59Z</time>
      </trkpt>
      <trkpt lat="47.35235" lon="-1.53467">
        <ele>31</ele>
        <time>2023-08-11T17:02:05Z</time>
      </trkpt>
      <trkpt lat="47.35162" lon="-1.53442">
        <ele>32</ele>
        <time>2023-08-11T17:03:45Z</time>
      </trkpt>
      <trkpt lat="47.35149" lon="-1.53434">
        <ele>32</ele>
        <time>2023-08-11T17:04:04Z</time>
      </trkpt>
      <trkpt lat="47.35136" lon="-1.53432">
        <ele>32</ele>
        <time>2023-08-11T17:04:22Z</time>
      </trkpt>
      <trkpt lat="47.35086" lon="-1.53411">
        <ele>33</ele>
        <time>2023-08-11T17:05:31Z</time>
      </trkpt>
      <trkpt lat="47.35074" lon="-1.53408">
        <ele>33</ele>
        <time>2023-08-11T17:05:47Z</time>
      </trkpt>
      <trkpt lat="47.35049" lon="-1.53396">
        <ele>34</ele>
        <time>2023-08-11T17:06:22Z</time>
      </trkpt>
      <trkpt lat="47.35026" lon="-1.53392">
        <ele>34</ele>
        <time>2023-08-11T17:06:53Z</time>
      </trkpt>
      <trkpt lat="47.35002" lon="-1.53383">
        <ele>35</ele>
        <time>2023-08-11T17:07:26Z</time>
      </trkpt>
      <trkpt lat="47.34997" lon="-1.53379">
        <ele>35</ele>
        <time>2023-08-11T17:07:34Z</time>
      </trkpt>
      <trkpt lat="47.34973" lon="-1.53373">
        <ele>35</ele>
        <time>2023-08-11T17:08:06Z</time>
      </trkpt>
      <trkpt lat="47.34944" lon="-1.53359">
        <ele>36</ele>
        <time>2023-08-11T17:08:47Z</time>
      </trkpt>
      <trkpt lat="47.34895" lon="-1.53342">
        <ele>36</ele>
        <time>2023-08-11T17:09:54Z</time>
      </trkpt>
      <trkpt lat="47.34889" lon="-1.53338">
        <ele>36</ele>
        <time>2023-08-11T17:10:03Z</time>
      </trkpt>
      <trkpt lat="47.34849" lon="-1.53332">
        <ele>37</ele>
        <time>2023-08-11T17:10:57Z</time>
      </trkpt>
      <trkpt lat="47.34843" lon="-1.5332">
        <ele>37</ele>
        <time>2023-08-11T17:11:10Z</time>
      </trkpt>
      <trkpt lat="47.34841" lon="-1.53274">
        <ele>35</ele>
        <time>2023-08-11T17:11:52Z</time>
      </trkpt>
      <trkpt lat="47.34836" lon="-1.53249">
        <ele>35</ele>
        <time>2023-08-11T17:12:15Z</time>
      </trkpt>
      <trkpt lat="47.3483" lon="-1.53233">
        <ele>34</ele>
        <time>2023-08-11T17:12:32Z</time>
      </trkpt>
      <trkpt lat="47.34832" lon="-1.53225">
        <ele>34</ele>
        <time>2023-08-11T17:12:40Z</time>
      </trkpt>
      <trkpt lat="47.34831" lon="-1.53205">
        <ele>33</ele>
        <time>2023-08-11T17:12:58Z</time>
      </trkpt>
      <trkpt lat="47.34803" lon="-1.53134">
        <ele>31</ele>
        <time>2023-08-11T17:14:12Z</time>
      </trkpt>
      <trkpt lat="47.34795" lon="-1.53122">
        <ele>30</ele>
        <time>2023-08-11T17:14:27Z</time>
      </trkpt>
      <trkpt lat="47.34793" lon="-1.53114">
        <ele>30</ele>
        <time>2023-08-11T17:14:35Z</time>
      </trkpt>
      <trkpt lat="47.34772" lon="-1.53086">
        <ele>30</ele>
        <time>2023-08-11T17:15:13Z</time>
      </trkpt>
      <trkpt lat="47.34769" lon="-1.53084">
        <ele>30</ele>
        <time>2023-08-11T17:15:17Z</time>
      </trkpt>
      <trkpt lat="47.34741" lon="-1.53086">
        <ele>31</ele>
        <time>2023-08-11T17:15:55Z</time>
      </trkpt>
      <trkpt lat="47.34739" lon="-1.53083">
        <ele>31</ele>
        <time>2023-08-11T17:15:58Z</time>
      </trkpt>
      <trkpt lat="47.34716" lon="-1.53085">
        <ele>31</ele>
        <time>2023-08-11T17:16:29Z</time>
      </trkpt>
      <trkpt lat="47.34698" lon="-1.53082">
        <ele>31</ele>
        <time>2023-08-11T17:16:53Z</time>
      </trkpt>
      <trkpt lat="47.34675" lon="-1.53073">
        <ele>30</ele>
        <time>2023-08-11T17:17:25Z</time>
      </trkpt>
      <trkpt lat="47.34644" lon="-1.53056">
        <ele>29</ele>
        <time>2023-08-11T17:18:09Z</time>
      </trkpt>
      <trkpt lat="47.34632" lon="-1.53053">
        <ele>28</ele>
        <time>2023-08-11T17:18:25Z</time>
      </trkpt>
      <trkpt lat="47.34599" lon="-1.53033">
        <ele>27</ele>
        <time>2023-08-11T17:19:13Z</time>
      </trkpt>
      <trkpt lat="47.34557" lon="-1.52999">
        <ele>25</ele>
        <time>2023-08-11T17:20:17Z</time>
      </trkpt>
      <trkpt lat="47.34552" lon="-1.53">
        <ele>25</ele>
        <time>2023-08-11T17:20:24Z</time>
      </trkpt>
      <trkpt lat="47.34544" lon="-1.53012">
        <ele>25</ele>
        <time>2023-08-11T17:20:39Z</time>
      </trkpt>
      <trkpt lat="47.34533" lon="-1.53006">
        <ele>24</ele>
        <time>2023-08-11T17:20:55Z</time>
      </trkpt>
      <trkpt lat="47.34514" lon="-1.52963">
        <ele>24</ele>
        <time>2023-08-11T17:21:41Z</time>
      </trkpt>
      <trkpt lat="47.34493" lon="-1.52925">
        <ele>24</ele>
        <time>2023-08-11T17:22:25Z</time>
      </trkpt>
      <trkpt lat="47.3448" lon="-1.52912">
        <ele>23</ele>
        <time>2023-08-11T17:22:46Z</time>
      </trkpt>
      <trkpt lat="47.34469" lon="-1.52893">
        <ele>22</ele>
        <time>2023-08-11T17:23:09Z</time>
      </trkpt>
      <trkpt lat="47.34438" lon="-1.52856">
        <ele>21</ele>
        <time>2023-08-11T17:24:02Z</time>
        <extensions>
          <visugpx:TrkExtension xmlns:visugpx="https://www.visugpx.com/editgpx/">
            <visugpx:node>1</visugpx:node>
            </visugpx:TrkExtension>
        </extensions>
      </trkpt>
    </trkseg>
  </trk>
  <trk>
    <name><![CDATA[Grandchamps_MoulinsVar_12.7km-6608199]]></name>
    <extensions>
      <line xmlns="http://www.topografix.com/GPX/gpx_style/0/2">
        <color>ff8040</color>
        <width>4</width>
      </line>
    </extensions>
    <trkseg>
      <trkpt lat="47.36273" lon="-1.60488">
        <ele>34</ele>
        <time>2024-02-05T07:40:14Z</time>
      </trkpt>
      <trkpt lat="47.36254" lon="-1.60372">
        <ele>39</ele>
        <time>2024-02-05T07:42:02Z</time>
      </trkpt>
      <trkpt lat="47.36252" lon="-1.60316">
        <ele>40</ele>
        <time>2024-02-05T07:42:53Z</time>
      </trkpt>
      <trkpt lat="47.36249" lon="-1.60306">
        <ele>41</ele>
        <time>2024-02-05T07:43:02Z</time>
      </trkpt>
      <trkpt lat="47.36238" lon="-1.60297">
        <ele>42</ele>
        <time>2024-02-05T07:43:19Z</time>
      </trkpt>
      <trkpt lat="47.36205" lon="-1.60299">
        <ele>43</ele>
        <time>2024-02-05T07:44:03Z</time>
      </trkpt>
      <trkpt lat="47.36201" lon="-1.60294">
        <ele>44</ele>
        <time>2024-02-05T07:44:10Z</time>
      </trkpt>
      <trkpt lat="47.36199" lon="-1.60251">
        <ele>45</ele>
        <time>2024-02-05T07:44:49Z</time>
      </trkpt>
      <trkpt lat="47.36195" lon="-1.60231">
        <ele>45</ele>
        <time>2024-02-05T07:45:08Z</time>
      </trkpt>
      <trkpt lat="47.36195" lon="-1.60166">
        <ele>46</ele>
        <time>2024-02-05T07:46:07Z</time>
      </trkpt>
      <trkpt lat="47.36187" lon="-1.60145">
        <ele>46</ele>
        <time>2024-02-05T07:46:29Z</time>
      </trkpt>
      <trkpt lat="47.36174" lon="-1.60143">
        <ele>47</ele>
        <time>2024-02-05T07:46:46Z</time>
      </trkpt>
      <trkpt lat="47.36104" lon="-1.60144">
        <ele>49</ele>
        <time>2024-02-05T07:48:20Z</time>
      </trkpt>
      <trkpt lat="47.36099" lon="-1.6014">
        <ele>49</ele>
        <time>2024-02-05T07:48:27Z</time>
      </trkpt>
      <trkpt lat="47.36086" lon="-1.60093">
        <ele>49</ele>
        <time>2024-02-05T07:49:13Z</time>
      </trkpt>
      <trkpt lat="47.3608" lon="-1.60006">
        <ele>50</ele>
        <time>2024-02-05T07:50:32Z</time>
      </trkpt>
      <trkpt lat="47.36102" lon="-1.59921">
        <ele>48</ele>
        <time>2024-02-05T07:51:54Z</time>
      </trkpt>
      <trkpt lat="47.36127" lon="-1.59843">
        <ele>47</ele>
        <time>2024-02-05T07:53:12Z</time>
      </trkpt>
      <trkpt lat="47.36156" lon="-1.59763">
        <ele>45</ele>
        <time>2024-02-05T07:54:34Z</time>
      </trkpt>
      <trkpt lat="47.36167" lon="-1.5975">
        <ele>45</ele>
        <time>2024-02-05T07:54:53Z</time>
      </trkpt>
      <trkpt lat="47.36229" lon="-1.59711">
        <ele>42</ele>
        <time>2024-02-05T07:56:23Z</time>
      </trkpt>
      <trkpt lat="47.36234" lon="-1.59705">
        <ele>42</ele>
        <time>2024-02-05T07:56:32Z</time>
      </trkpt>
      <trkpt lat="47.36264" lon="-1.59685">
        <ele>42</ele>
        <time>2024-02-05T07:57:16Z</time>
      </trkpt>
      <trkpt lat="47.36307" lon="-1.59648">
        <ele>40</ele>
        <time>2024-02-05T07:58:22Z</time>
      </trkpt>
      <trkpt lat="47.36313" lon="-1.59647">
        <ele>40</ele>
        <time>2024-02-05T07:58:30Z</time>
      </trkpt>
      <trkpt lat="47.36336" lon="-1.59653">
        <ele>40</ele>
        <time>2024-02-05T07:59:01Z</time>
      </trkpt>
      <trkpt lat="47.36406" lon="-1.5962">
        <ele>37</ele>
        <time>2024-02-05T08:00:39Z</time>
      </trkpt>
      <trkpt lat="47.36441" lon="-1.59598">
        <ele>35</ele>
        <time>2024-02-05T08:01:30Z</time>
      </trkpt>
      <trkpt lat="47.36443" lon="-1.596">
        <ele>35</ele>
        <time>2024-02-05T08:01:33Z</time>
      </trkpt>
      <trkpt lat="47.36441" lon="-1.59603">
        <ele>35</ele>
        <time>2024-02-05T08:01:37Z</time>
      </trkpt>
      <trkpt lat="47.36442" lon="-1.59601">
        <ele>35</ele>
        <time>2024-02-05T08:01:39Z</time>
      </trkpt>
      <trkpt lat="47.36443" lon="-1.59604">
        <ele>35</ele>
        <time>2024-02-05T08:01:42Z</time>
      </trkpt>
      <trkpt lat="47.3646" lon="-1.5959">
        <ele>34</ele>
        <time>2024-02-05T08:02:08Z</time>
      </trkpt>
      <trkpt lat="47.36532" lon="-1.59552">
        <ele>30</ele>
        <time>2024-02-05T08:03:50Z</time>
      </trkpt>
      <trkpt lat="47.36538" lon="-1.59551">
        <ele>30</ele>
        <time>2024-02-05T08:03:58Z</time>
      </trkpt>
      <trkpt lat="47.36546" lon="-1.59555">
        <ele>30</ele>
        <time>2024-02-05T08:04:10Z</time>
      </trkpt>
      <trkpt lat="47.3655" lon="-1.59586">
        <ele>31</ele>
        <time>2024-02-05T08:04:38Z</time>
      </trkpt>
      <trkpt lat="47.36548" lon="-1.59597">
        <ele>31</ele>
        <time>2024-02-05T08:04:48Z</time>
      </trkpt>
      <trkpt lat="47.3655" lon="-1.59627">
        <ele>31</ele>
        <time>2024-02-05T08:05:16Z</time>
      </trkpt>
      <trkpt lat="47.36559" lon="-1.59696">
        <ele>32</ele>
        <time>2024-02-05T08:06:19Z</time>
      </trkpt>
      <trkpt lat="47.36568" lon="-1.59735">
        <ele>33</ele>
        <time>2024-02-05T08:06:56Z</time>
      </trkpt>
      <trkpt lat="47.36592" lon="-1.5981">
        <ele>34</ele>
        <time>2024-02-05T08:08:11Z</time>
      </trkpt>
      <trkpt lat="47.36597" lon="-1.59839">
        <ele>35</ele>
        <time>2024-02-05T08:08:39Z</time>
      </trkpt>
      <trkpt lat="47.36597" lon="-1.59869">
        <ele>34</ele>
        <time>2024-02-05T08:09:06Z</time>
      </trkpt>
      <trkpt lat="47.36594" lon="-1.59918">
        <ele>33</ele>
        <time>2024-02-05T08:09:50Z</time>
      </trkpt>
      <trkpt lat="47.36587" lon="-1.59944">
        <ele>33</ele>
        <time>2024-02-05T08:10:15Z</time>
      </trkpt>
      <trkpt lat="47.36583" lon="-1.59972">
        <ele>32</ele>
        <time>2024-02-05T08:10:41Z</time>
      </trkpt>
      <trkpt lat="47.36575" lon="-1.59991">
        <ele>32</ele>
        <time>2024-02-05T08:11:01Z</time>
      </trkpt>
      <trkpt lat="47.36571" lon="-1.60026">
        <ele>31</ele>
        <time>2024-02-05T08:11:34Z</time>
      </trkpt>
      <trkpt lat="47.36544" lon="-1.60122">
        <ele>34</ele>
        <time>2024-02-05T08:13:08Z</time>
      </trkpt>
      <trkpt lat="47.36536" lon="-1.60159">
        <ele>36</ele>
        <time>2024-02-05T08:13:43Z</time>
      </trkpt>
      <trkpt lat="47.36521" lon="-1.60281">
        <ele>35</ele>
        <time>2024-02-05T08:15:35Z</time>
      </trkpt>
      <trkpt lat="47.3652" lon="-1.60317">
        <ele>34</ele>
        <time>2024-02-05T08:16:07Z</time>
      </trkpt>
      <trkpt lat="47.3656" lon="-1.60351">
        <ele>31</ele>
        <time>2024-02-05T08:17:09Z</time>
      </trkpt>
      <trkpt lat="47.36574" lon="-1.60359">
        <ele>31</ele>
        <time>2024-02-05T08:17:29Z</time>
      </trkpt>
      <trkpt lat="47.36586" lon="-1.60362">
        <ele>30</ele>
        <time>2024-02-05T08:17:45Z</time>
      </trkpt>
      <trkpt lat="47.36666" lon="-1.60396">
        <ele>26</ele>
        <time>2024-02-05T08:19:36Z</time>
      </trkpt>
      <trkpt lat="47.36682" lon="-1.60395">
        <ele>26</ele>
        <time>2024-02-05T08:19:58Z</time>
      </trkpt>
      <trkpt lat="47.36695" lon="-1.60399">
        <ele>26</ele>
        <time>2024-02-05T08:20:15Z</time>
      </trkpt>
      <trkpt lat="47.36707" lon="-1.60397">
        <ele>26</ele>
        <time>2024-02-05T08:20:31Z</time>
      </trkpt>
      <trkpt lat="47.36716" lon="-1.60386">
        <ele>26</ele>
        <time>2024-02-05T08:20:47Z</time>
      </trkpt>
      <trkpt lat="47.36719" lon="-1.60361">
        <ele>25</ele>
        <time>2024-02-05T08:21:10Z</time>
      </trkpt>
      <trkpt lat="47.36737" lon="-1.60302">
        <ele>24</ele>
        <time>2024-02-05T08:22:08Z</time>
      </trkpt>
      <trkpt lat="47.36745" lon="-1.60267">
        <ele>24</ele>
        <time>2024-02-05T08:22:42Z</time>
      </trkpt>
      <trkpt lat="47.36771" lon="-1.60134">
        <ele>25</ele>
        <time>2024-02-05T08:24:47Z</time>
      </trkpt>
      <trkpt lat="47.36781" lon="-1.6011">
        <ele>25</ele>
        <time>2024-02-05T08:25:12Z</time>
      </trkpt>
      <trkpt lat="47.36791" lon="-1.601">
        <ele>25</ele>
        <time>2024-02-05T08:25:29Z</time>
      </trkpt>
      <trkpt lat="47.36802" lon="-1.60094">
        <ele>26</ele>
        <time>2024-02-05T08:25:44Z</time>
      </trkpt>
      <trkpt lat="47.36814" lon="-1.60093">
        <ele>26</ele>
        <time>2024-02-05T08:26:00Z</time>
      </trkpt>
      <trkpt lat="47.36819" lon="-1.60095">
        <ele>26</ele>
        <time>2024-02-05T08:26:07Z</time>
      </trkpt>
      <trkpt lat="47.36848" lon="-1.60113">
        <ele>28</ele>
        <time>2024-02-05T08:26:49Z</time>
      </trkpt>
      <trkpt lat="47.36852" lon="-1.60146">
        <ele>28</ele>
        <time>2024-02-05T08:27:19Z</time>
      </trkpt>
      <trkpt lat="47.36874" lon="-1.60148">
        <ele>29</ele>
        <time>2024-02-05T08:27:49Z</time>
      </trkpt>
      <trkpt lat="47.36879" lon="-1.60151">
        <ele>30</ele>
        <time>2024-02-05T08:27:56Z</time>
      </trkpt>
      <trkpt lat="47.36892" lon="-1.60168">
        <ele>31</ele>
        <time>2024-02-05T08:28:19Z</time>
      </trkpt>
      <trkpt lat="47.36915" lon="-1.60185">
        <ele>32</ele>
        <time>2024-02-05T08:28:54Z</time>
      </trkpt>
      <trkpt lat="47.36964" lon="-1.60202">
        <ele>34</ele>
        <time>2024-02-05T08:30:01Z</time>
      </trkpt>
      <trkpt lat="47.3697" lon="-1.60206">
        <ele>35</ele>
        <time>2024-02-05T08:30:09Z</time>
      </trkpt>
      <trkpt lat="47.36975" lon="-1.60221">
        <ele>35</ele>
        <time>2024-02-05T08:30:25Z</time>
      </trkpt>
      <trkpt lat="47.36975" lon="-1.60246">
        <ele>35</ele>
        <time>2024-02-05T08:30:47Z</time>
      </trkpt>
      <trkpt lat="47.36979" lon="-1.60271">
        <ele>35</ele>
        <time>2024-02-05T08:31:10Z</time>
      </trkpt>
      <trkpt lat="47.36982" lon="-1.60274">
        <ele>35</ele>
        <time>2024-02-05T08:31:15Z</time>
      </trkpt>
      <trkpt lat="47.36993" lon="-1.60266">
        <ele>35</ele>
        <time>2024-02-05T08:31:32Z</time>
      </trkpt>
      <trkpt lat="47.37013" lon="-1.60262">
        <ele>36</ele>
        <time>2024-02-05T08:31:59Z</time>
      </trkpt>
      <trkpt lat="47.37023" lon="-1.60263">
        <ele>36</ele>
        <time>2024-02-05T08:32:12Z</time>
      </trkpt>
      <trkpt lat="47.37027" lon="-1.60261">
        <ele>36</ele>
        <time>2024-02-05T08:32:18Z</time>
      </trkpt>
      <trkpt lat="47.37048" lon="-1.6026">
        <ele>37</ele>
        <time>2024-02-05T08:32:46Z</time>
      </trkpt>
      <trkpt lat="47.37059" lon="-1.60256">
        <ele>37</ele>
        <time>2024-02-05T08:33:01Z</time>
      </trkpt>
      <trkpt lat="47.37076" lon="-1.60245">
        <ele>38</ele>
        <time>2024-02-05T08:33:25Z</time>
      </trkpt>
      <trkpt lat="47.37132" lon="-1.6022">
        <ele>37</ele>
        <time>2024-02-05T08:34:44Z</time>
      </trkpt>
      <trkpt lat="47.3716" lon="-1.60204">
        <ele>37</ele>
        <time>2024-02-05T08:35:24Z</time>
      </trkpt>
      <trkpt lat="47.37165" lon="-1.60199">
        <ele>37</ele>
        <time>2024-02-05T08:35:32Z</time>
      </trkpt>
      <trkpt lat="47.37177" lon="-1.60196">
        <ele>37</ele>
        <time>2024-02-05T08:35:48Z</time>
      </trkpt>
      <trkpt lat="47.37198" lon="-1.60186">
        <ele>36</ele>
        <time>2024-02-05T08:36:17Z</time>
      </trkpt>
      <trkpt lat="47.37203" lon="-1.60181">
        <ele>36</ele>
        <time>2024-02-05T08:36:25Z</time>
      </trkpt>
      <trkpt lat="47.37227" lon="-1.6017">
        <ele>36</ele>
        <time>2024-02-05T08:36:59Z</time>
      </trkpt>
      <trkpt lat="47.37252" lon="-1.60152">
        <ele>36</ele>
        <time>2024-02-05T08:37:36Z</time>
      </trkpt>
      <trkpt lat="47.37301" lon="-1.60131">
        <ele>35</ele>
        <time>2024-02-05T08:38:44Z</time>
      </trkpt>
      <trkpt lat="47.3736" lon="-1.60101">
        <ele>34</ele>
        <time>2024-02-05T08:40:07Z</time>
      </trkpt>
      <trkpt lat="47.3738" lon="-1.60094">
        <ele>35</ele>
        <time>2024-02-05T08:40:35Z</time>
      </trkpt>
      <trkpt lat="47.37391" lon="-1.60087">
        <ele>35</ele>
        <time>2024-02-05T08:40:51Z</time>
      </trkpt>
      <trkpt lat="47.37396" lon="-1.60086">
        <ele>35</ele>
        <time>2024-02-05T08:40:58Z</time>
      </trkpt>
      <trkpt lat="47.37397" lon="-1.60088">
        <ele>35</ele>
        <time>2024-02-05T08:41:00Z</time>
      </trkpt>
      <trkpt lat="47.37422" lon="-1.60074">
        <ele>35</ele>
        <time>2024-02-05T08:41:35Z</time>
      </trkpt>
      <trkpt lat="47.3743" lon="-1.60076">
        <ele>35</ele>
        <time>2024-02-05T08:41:46Z</time>
      </trkpt>
      <trkpt lat="47.37437" lon="-1.6007">
        <ele>35</ele>
        <time>2024-02-05T08:41:57Z</time>
      </trkpt>
      <trkpt lat="47.37467" lon="-1.60056">
        <ele>35</ele>
        <time>2024-02-05T08:42:39Z</time>
      </trkpt>
      <trkpt lat="47.37536" lon="-1.60034">
        <ele>35</ele>
        <time>2024-02-05T08:44:13Z</time>
      </trkpt>
      <trkpt lat="47.37556" lon="-1.60022">
        <ele>36</ele>
        <time>2024-02-05T08:44:42Z</time>
      </trkpt>
      <trkpt lat="47.37568" lon="-1.60013">
        <ele>36</ele>
        <time>2024-02-05T08:45:00Z</time>
      </trkpt>
      <trkpt lat="47.37621" lon="-1.59959">
        <ele>37</ele>
        <time>2024-02-05T08:46:26Z</time>
      </trkpt>
      <trkpt lat="47.37655" lon="-1.5992">
        <ele>36</ele>
        <time>2024-02-05T08:47:23Z</time>
      </trkpt>
      <trkpt lat="47.37711" lon="-1.59844">
        <ele>37</ele>
        <time>2024-02-05T08:49:05Z</time>
      </trkpt>
      <trkpt lat="47.37743" lon="-1.59799">
        <ele>38</ele>
        <time>2024-02-05T08:50:04Z</time>
      </trkpt>
      <trkpt lat="47.37752" lon="-1.59781">
        <ele>37</ele>
        <time>2024-02-05T08:50:24Z</time>
      </trkpt>
      <trkpt lat="47.37766" lon="-1.59764">
        <ele>37</ele>
        <time>2024-02-05T08:50:48Z</time>
      </trkpt>
      <trkpt lat="47.37783" lon="-1.59763">
        <ele>37</ele>
        <time>2024-02-05T08:51:11Z</time>
      </trkpt>
      <trkpt lat="47.37872" lon="-1.59748">
        <ele>37</ele>
        <time>2024-02-05T08:53:11Z</time>
      </trkpt>
      <trkpt lat="47.37885" lon="-1.59749">
        <ele>36</ele>
        <time>2024-02-05T08:53:28Z</time>
      </trkpt>
      <trkpt lat="47.37917" lon="-1.59746">
        <ele>36</ele>
        <time>2024-02-05T08:54:11Z</time>
      </trkpt>
      <trkpt lat="47.37929" lon="-1.59742">
        <ele>36</ele>
        <time>2024-02-05T08:54:27Z</time>
      </trkpt>
      <trkpt lat="47.37939" lon="-1.59732">
        <ele>35</ele>
        <time>2024-02-05T08:54:43Z</time>
      </trkpt>
      <trkpt lat="47.37946" lon="-1.59707">
        <ele>35</ele>
        <time>2024-02-05T08:55:08Z</time>
      </trkpt>
      <trkpt lat="47.37947" lon="-1.5966">
        <ele>34</ele>
        <time>2024-02-05T08:55:50Z</time>
      </trkpt>
      <trkpt lat="47.3795" lon="-1.59634">
        <ele>35</ele>
        <time>2024-02-05T08:56:14Z</time>
      </trkpt>
      <trkpt lat="47.37959" lon="-1.59598">
        <ele>35</ele>
        <time>2024-02-05T08:56:49Z</time>
      </trkpt>
      <trkpt lat="47.37969" lon="-1.59585">
        <ele>36</ele>
        <time>2024-02-05T08:57:06Z</time>
      </trkpt>
      <trkpt lat="47.37996" lon="-1.5956">
        <ele>36</ele>
        <time>2024-02-05T08:57:49Z</time>
      </trkpt>
      <trkpt lat="47.38079" lon="-1.59488">
        <ele>35</ele>
        <time>2024-02-05T08:59:57Z</time>
      </trkpt>
      <trkpt lat="47.38086" lon="-1.59475">
        <ele>36</ele>
        <time>2024-02-05T09:00:12Z</time>
      </trkpt>
      <trkpt lat="47.38077" lon="-1.59416">
        <ele>37</ele>
        <time>2024-02-05T09:01:07Z</time>
      </trkpt>
      <trkpt lat="47.38068" lon="-1.59388">
        <ele>37</ele>
        <time>2024-02-05T09:01:35Z</time>
      </trkpt>
      <trkpt lat="47.3805" lon="-1.59344">
        <ele>37</ele>
        <time>2024-02-05T09:02:22Z</time>
      </trkpt>
      <trkpt lat="47.38017" lon="-1.59287">
        <ele>38</ele>
        <time>2024-02-05T09:03:29Z</time>
      </trkpt>
      <trkpt lat="47.38009" lon="-1.59265">
        <ele>39</ele>
        <time>2024-02-05T09:03:52Z</time>
      </trkpt>
      <trkpt lat="47.37987" lon="-1.59143">
        <ele>38</ele>
        <time>2024-02-05T09:05:46Z</time>
      </trkpt>
      <trkpt lat="47.37965" lon="-1.59048">
        <ele>38</ele>
        <time>2024-02-05T09:07:17Z</time>
      </trkpt>
      <trkpt lat="47.37957" lon="-1.59024">
        <ele>38</ele>
        <time>2024-02-05T09:07:41Z</time>
      </trkpt>
      <trkpt lat="47.37936" lon="-1.58979">
        <ele>37</ele>
        <time>2024-02-05T09:08:30Z</time>
      </trkpt>
      <trkpt lat="47.37903" lon="-1.58869">
        <ele>37</ele>
        <time>2024-02-05T09:10:19Z</time>
      </trkpt>
      <trkpt lat="47.37885" lon="-1.5882">
        <ele>37</ele>
        <time>2024-02-05T09:11:09Z</time>
      </trkpt>
      <trkpt lat="47.37884" lon="-1.58796">
        <ele>37</ele>
        <time>2024-02-05T09:11:31Z</time>
      </trkpt>
      <trkpt lat="47.37874" lon="-1.58776">
        <ele>37</ele>
        <time>2024-02-05T09:11:54Z</time>
      </trkpt>
      <trkpt lat="47.37872" lon="-1.58776">
        <ele>37</ele>
        <time>2024-02-05T09:11:56Z</time>
      </trkpt>
      <trkpt lat="47.37865" lon="-1.58764">
        <ele>37</ele>
        <time>2024-02-05T09:12:11Z</time>
      </trkpt>
      <trkpt lat="47.37829" lon="-1.5869">
        <ele>36</ele>
        <time>2024-02-05T09:13:33Z</time>
      </trkpt>
      <trkpt lat="47.37794" lon="-1.58645">
        <ele>35</ele>
        <time>2024-02-05T09:14:35Z</time>
      </trkpt>
      <trkpt lat="47.3779" lon="-1.58631">
        <ele>35</ele>
        <time>2024-02-05T09:14:49Z</time>
      </trkpt>
      <trkpt lat="47.37759" lon="-1.58591">
        <ele>34</ele>
        <time>2024-02-05T09:15:43Z</time>
      </trkpt>
      <trkpt lat="47.37732" lon="-1.58549">
        <ele>34</ele>
        <time>2024-02-05T09:16:36Z</time>
      </trkpt>
      <trkpt lat="47.37716" lon="-1.58519">
        <ele>34</ele>
        <time>2024-02-05T09:17:10Z</time>
      </trkpt>
      <trkpt lat="47.3768" lon="-1.58472">
        <ele>33</ele>
        <time>2024-02-05T09:18:14Z</time>
      </trkpt>
      <trkpt lat="47.37679" lon="-1.58468">
        <ele>33</ele>
        <time>2024-02-05T09:18:18Z</time>
      </trkpt>
      <trkpt lat="47.37679" lon="-1.5847">
        <ele>33</ele>
        <time>2024-02-05T09:18:20Z</time>
      </trkpt>
      <trkpt lat="47.37679" lon="-1.58468">
        <ele>33</ele>
        <time>2024-02-05T09:18:22Z</time>
      </trkpt>
      <trkpt lat="47.3768" lon="-1.5847">
        <ele>33</ele>
        <time>2024-02-05T09:18:24Z</time>
      </trkpt>
      <trkpt lat="47.37682" lon="-1.58469">
        <ele>33</ele>
        <time>2024-02-05T09:18:27Z</time>
      </trkpt>
      <trkpt lat="47.37676" lon="-1.58465">
        <ele>33</ele>
        <time>2024-02-05T09:18:36Z</time>
      </trkpt>
      <trkpt lat="47.37599" lon="-1.58374">
        <ele>32</ele>
        <time>2024-02-05T09:20:47Z</time>
      </trkpt>
      <trkpt lat="47.37584" lon="-1.58351">
        <ele>32</ele>
        <time>2024-02-05T09:21:16Z</time>
      </trkpt>
      <trkpt lat="47.37572" lon="-1.58339">
        <ele>32</ele>
        <time>2024-02-05T09:21:36Z</time>
      </trkpt>
      <trkpt lat="47.37511" lon="-1.58257">
        <ele>30</ele>
        <time>2024-02-05T09:23:26Z</time>
      </trkpt>
      <trkpt lat="47.3748" lon="-1.5827">
        <ele>30</ele>
        <time>2024-02-05T09:24:09Z</time>
      </trkpt>
      <trkpt lat="47.37466" lon="-1.58282">
        <ele>29</ele>
        <time>2024-02-05T09:24:30Z</time>
      </trkpt>
      <trkpt lat="47.37455" lon="-1.58288">
        <ele>29</ele>
        <time>2024-02-05T09:24:46Z</time>
      </trkpt>
      <trkpt lat="47.37437" lon="-1.58293">
        <ele>29</ele>
        <time>2024-02-05T09:25:10Z</time>
      </trkpt>
      <trkpt lat="47.37393" lon="-1.58315">
        <ele>29</ele>
        <time>2024-02-05T09:26:12Z</time>
      </trkpt>
      <trkpt lat="47.37379" lon="-1.58325">
        <ele>29</ele>
        <time>2024-02-05T09:26:33Z</time>
      </trkpt>
      <trkpt lat="47.37361" lon="-1.58332">
        <ele>29</ele>
        <time>2024-02-05T09:26:58Z</time>
      </trkpt>
      <trkpt lat="47.37321" lon="-1.58357">
        <ele>29</ele>
        <time>2024-02-05T09:27:56Z</time>
      </trkpt>
      <trkpt lat="47.37291" lon="-1.58372">
        <ele>29</ele>
        <time>2024-02-05T09:28:38Z</time>
      </trkpt>
      <trkpt lat="47.37281" lon="-1.58387">
        <ele>30</ele>
        <time>2024-02-05T09:28:57Z</time>
      </trkpt>
      <trkpt lat="47.37272" lon="-1.58392">
        <ele>30</ele>
        <time>2024-02-05T09:29:10Z</time>
      </trkpt>
      <trkpt lat="47.37217" lon="-1.5841">
        <ele>31</ele>
        <time>2024-02-05T09:30:25Z</time>
      </trkpt>
      <trkpt lat="47.3721" lon="-1.58417">
        <ele>31</ele>
        <time>2024-02-05T09:30:36Z</time>
      </trkpt>
      <trkpt lat="47.37166" lon="-1.58426">
        <ele>32</ele>
        <time>2024-02-05T09:31:36Z</time>
      </trkpt>
      <trkpt lat="47.37151" lon="-1.58434">
        <ele>33</ele>
        <time>2024-02-05T09:31:57Z</time>
      </trkpt>
      <trkpt lat="47.37127" lon="-1.58436">
        <ele>34</ele>
        <time>2024-02-05T09:32:29Z</time>
      </trkpt>
      <trkpt lat="47.37081" lon="-1.58467">
        <ele>36</ele>
        <time>2024-02-05T09:33:37Z</time>
      </trkpt>
      <trkpt lat="47.37011" lon="-1.58504">
        <ele>37</ele>
        <time>2024-02-05T09:35:16Z</time>
      </trkpt>
      <trkpt lat="47.36995" lon="-1.58515">
        <ele>37</ele>
        <time>2024-02-05T09:35:39Z</time>
      </trkpt>
      <trkpt lat="47.3698" lon="-1.58521">
        <ele>37</ele>
        <time>2024-02-05T09:36:00Z</time>
      </trkpt>
      <trkpt lat="47.36959" lon="-1.58536">
        <ele>38</ele>
        <time>2024-02-05T09:36:31Z</time>
      </trkpt>
      <trkpt lat="47.36929" lon="-1.58563">
        <ele>39</ele>
        <time>2024-02-05T09:37:18Z</time>
      </trkpt>
      <trkpt lat="47.369" lon="-1.58582">
        <ele>39</ele>
        <time>2024-02-05T09:38:00Z</time>
      </trkpt>
      <trkpt lat="47.36893" lon="-1.58589">
        <ele>39</ele>
        <time>2024-02-05T09:38:12Z</time>
      </trkpt>
      <trkpt lat="47.36849" lon="-1.58673">
        <ele>40</ele>
        <time>2024-02-05T09:39:48Z</time>
      </trkpt>
      <trkpt lat="47.36807" lon="-1.58693">
        <ele>38</ele>
        <time>2024-02-05T09:40:47Z</time>
      </trkpt>
      <trkpt lat="47.36792" lon="-1.58703">
        <ele>38</ele>
        <time>2024-02-05T09:41:09Z</time>
      </trkpt>
      <trkpt lat="47.36766" lon="-1.5873">
        <ele>36</ele>
        <time>2024-02-05T09:41:51Z</time>
      </trkpt>
      <trkpt lat="47.36752" lon="-1.58753">
        <ele>35</ele>
        <time>2024-02-05T09:42:19Z</time>
      </trkpt>
      <trkpt lat="47.3674" lon="-1.58783">
        <ele>34</ele>
        <time>2024-02-05T09:42:50Z</time>
      </trkpt>
      <trkpt lat="47.3672" lon="-1.58822">
        <ele>34</ele>
        <time>2024-02-05T09:43:35Z</time>
      </trkpt>
      <trkpt lat="47.36707" lon="-1.58843">
        <ele>33</ele>
        <time>2024-02-05T09:44:00Z</time>
      </trkpt>
      <trkpt lat="47.36699" lon="-1.58848">
        <ele>33</ele>
        <time>2024-02-05T09:44:12Z</time>
      </trkpt>
      <trkpt lat="47.36678" lon="-1.58851">
        <ele>33</ele>
        <time>2024-02-05T09:44:40Z</time>
      </trkpt>
      <trkpt lat="47.36668" lon="-1.58848">
        <ele>33</ele>
        <time>2024-02-05T09:44:54Z</time>
      </trkpt>
      <trkpt lat="47.36642" lon="-1.58831">
        <ele>33</ele>
        <time>2024-02-05T09:45:32Z</time>
      </trkpt>
      <trkpt lat="47.36622" lon="-1.58816">
        <ele>33</ele>
        <time>2024-02-05T09:46:02Z</time>
      </trkpt>
      <trkpt lat="47.36612" lon="-1.58804">
        <ele>34</ele>
        <time>2024-02-05T09:46:19Z</time>
      </trkpt>
      <trkpt lat="47.36592" lon="-1.58791">
        <ele>34</ele>
        <time>2024-02-05T09:46:48Z</time>
      </trkpt>
      <trkpt lat="47.36581" lon="-1.58779">
        <ele>35</ele>
        <time>2024-02-05T09:47:06Z</time>
      </trkpt>
      <trkpt lat="47.36575" lon="-1.58776">
        <ele>35</ele>
        <time>2024-02-05T09:47:15Z</time>
      </trkpt>
      <trkpt lat="47.36567" lon="-1.58763">
        <ele>35</ele>
        <time>2024-02-05T09:47:31Z</time>
      </trkpt>
      <trkpt lat="47.36556" lon="-1.58743">
        <ele>35</ele>
        <time>2024-02-05T09:47:54Z</time>
      </trkpt>
      <trkpt lat="47.36539" lon="-1.58703">
        <ele>36</ele>
        <time>2024-02-05T09:48:36Z</time>
      </trkpt>
      <trkpt lat="47.3651" lon="-1.58651">
        <ele>38</ele>
        <time>2024-02-05T09:49:37Z</time>
      </trkpt>
      <trkpt lat="47.36506" lon="-1.58636">
        <ele>38</ele>
        <time>2024-02-05T09:49:52Z</time>
      </trkpt>
      <trkpt lat="47.36494" lon="-1.58612">
        <ele>38</ele>
        <time>2024-02-05T09:50:19Z</time>
      </trkpt>
      <trkpt lat="47.36485" lon="-1.58587">
        <ele>37</ele>
        <time>2024-02-05T09:50:44Z</time>
      </trkpt>
      <trkpt lat="47.36474" lon="-1.58572">
        <ele>37</ele>
        <time>2024-02-05T09:51:04Z</time>
      </trkpt>
      <trkpt lat="47.36411" lon="-1.58444">
        <ele>33</ele>
        <time>2024-02-05T09:53:27Z</time>
      </trkpt>
      <trkpt lat="47.36388" lon="-1.58404">
        <ele>32</ele>
        <time>2024-02-05T09:54:15Z</time>
      </trkpt>
      <trkpt lat="47.36365" lon="-1.58345">
        <ele>32</ele>
        <time>2024-02-05T09:55:16Z</time>
      </trkpt>
      <trkpt lat="47.36334" lon="-1.58251">
        <ele>32</ele>
        <time>2024-02-05T09:56:51Z</time>
      </trkpt>
      <trkpt lat="47.36314" lon="-1.58252">
        <ele>32</ele>
        <time>2024-02-05T09:57:18Z</time>
      </trkpt>
      <trkpt lat="47.36236" lon="-1.58281">
        <ele>31</ele>
        <time>2024-02-05T09:59:05Z</time>
      </trkpt>
      <trkpt lat="47.36203" lon="-1.58244">
        <ele>29</ele>
        <time>2024-02-05T10:00:00Z</time>
      </trkpt>
      <trkpt lat="47.36177" lon="-1.58206">
        <ele>27</ele>
        <time>2024-02-05T10:00:49Z</time>
      </trkpt>
      <trkpt lat="47.36097" lon="-1.58146">
        <ele>22</ele>
        <time>2024-02-05T10:02:49Z</time>
      </trkpt>
      <trkpt lat="47.36102" lon="-1.58133">
        <ele>23</ele>
        <time>2024-02-05T10:03:02Z</time>
      </trkpt>
      <trkpt lat="47.36083" lon="-1.58098">
        <ele>24</ele>
        <time>2024-02-05T10:03:43Z</time>
      </trkpt>
      <trkpt lat="47.36069" lon="-1.58059">
        <ele>24</ele>
        <time>2024-02-05T10:04:23Z</time>
      </trkpt>
      <trkpt lat="47.36021" lon="-1.57899">
        <ele>21</ele>
        <time>2024-02-05T10:07:01Z</time>
      </trkpt>
      <trkpt lat="47.35974" lon="-1.57809">
        <ele>22</ele>
        <time>2024-02-05T10:08:44Z</time>
      </trkpt>
      <trkpt lat="47.3592" lon="-1.5773">
        <ele>26</ele>
        <time>2024-02-05T10:10:25Z</time>
      </trkpt>
      <trkpt lat="47.35837" lon="-1.57671">
        <ele>28</ele>
        <time>2024-02-05T10:12:28Z</time>
      </trkpt>
      <trkpt lat="47.35847" lon="-1.57528">
        <ele>28</ele>
        <time>2024-02-05T10:14:38Z</time>
      </trkpt>
      <trkpt lat="47.3584" lon="-1.57511">
        <ele>28</ele>
        <time>2024-02-05T10:14:56Z</time>
      </trkpt>
      <trkpt lat="47.35729" lon="-1.57549">
        <ele>28</ele>
        <time>2024-02-05T10:17:28Z</time>
      </trkpt>
      <trkpt lat="47.35717" lon="-1.57536">
        <ele>28</ele>
        <time>2024-02-05T10:17:48Z</time>
      </trkpt>
      <trkpt lat="47.3571" lon="-1.57536">
        <ele>28</ele>
        <time>2024-02-05T10:17:57Z</time>
      </trkpt>
      <trkpt lat="47.35678" lon="-1.57515">
        <ele>29</ele>
        <time>2024-02-05T10:18:44Z</time>
      </trkpt>
      <trkpt lat="47.35665" lon="-1.57509">
        <ele>29</ele>
        <time>2024-02-05T10:19:02Z</time>
      </trkpt>
      <trkpt lat="47.35584" lon="-1.57439">
        <ele>24</ele>
        <time>2024-02-05T10:21:07Z</time>
      </trkpt>
      <trkpt lat="47.35561" lon="-1.57425">
        <ele>22</ele>
        <time>2024-02-05T10:21:41Z</time>
      </trkpt>
      <trkpt lat="47.35536" lon="-1.57398">
        <ele>20</ele>
        <time>2024-02-05T10:22:22Z</time>
      </trkpt>
      <trkpt lat="47.35522" lon="-1.57393">
        <ele>19</ele>
        <time>2024-02-05T10:22:41Z</time>
      </trkpt>
      <trkpt lat="47.35498" lon="-1.57377">
        <ele>18</ele>
        <time>2024-02-05T10:23:16Z</time>
      </trkpt>
      <trkpt lat="47.3548" lon="-1.57356">
        <ele>17</ele>
        <time>2024-02-05T10:23:47Z</time>
      </trkpt>
      <trkpt lat="47.35453" lon="-1.57366">
        <ele>17</ele>
        <time>2024-02-05T10:24:24Z</time>
      </trkpt>
      <trkpt lat="47.35441" lon="-1.57363">
        <ele>16</ele>
        <time>2024-02-05T10:24:40Z</time>
      </trkpt>
      <trkpt lat="47.35423" lon="-1.57365">
        <ele>16</ele>
        <time>2024-02-05T10:25:04Z</time>
      </trkpt>
      <trkpt lat="47.35403" lon="-1.57373">
        <ele>15</ele>
        <time>2024-02-05T10:25:32Z</time>
      </trkpt>
      <trkpt lat="47.35386" lon="-1.57385">
        <ele>14</ele>
        <time>2024-02-05T10:25:57Z</time>
      </trkpt>
      <trkpt lat="47.35358" lon="-1.57395">
        <ele>13</ele>
        <time>2024-02-05T10:26:36Z</time>
      </trkpt>
      <trkpt lat="47.35351" lon="-1.57393">
        <ele>13</ele>
        <time>2024-02-05T10:26:45Z</time>
      </trkpt>
      <trkpt lat="47.35332" lon="-1.57398">
        <ele>12</ele>
        <time>2024-02-05T10:27:11Z</time>
      </trkpt>
      <trkpt lat="47.35312" lon="-1.57397">
        <ele>13</ele>
        <time>2024-02-05T10:27:38Z</time>
      </trkpt>
      <trkpt lat="47.35284" lon="-1.57402">
        <ele>13</ele>
        <time>2024-02-05T10:28:15Z</time>
      </trkpt>
      <trkpt lat="47.35255" lon="-1.57404">
        <ele>14</ele>
        <time>2024-02-05T10:28:54Z</time>
      </trkpt>
      <trkpt lat="47.35239" lon="-1.57412">
        <ele>14</ele>
        <time>2024-02-05T10:29:17Z</time>
      </trkpt>
      <trkpt lat="47.35224" lon="-1.57428">
        <ele>14</ele>
        <time>2024-02-05T10:29:41Z</time>
      </trkpt>
      <trkpt lat="47.35213" lon="-1.57435">
        <ele>13</ele>
        <time>2024-02-05T10:29:57Z</time>
      </trkpt>
      <trkpt lat="47.35173" lon="-1.57438">
        <ele>14</ele>
        <time>2024-02-05T10:30:51Z</time>
      </trkpt>
      <trkpt lat="47.35118" lon="-1.57451">
        <ele>17</ele>
        <time>2024-02-05T10:32:05Z</time>
      </trkpt>
      <trkpt lat="47.3511" lon="-1.57457">
        <ele>17</ele>
        <time>2024-02-05T10:32:17Z</time>
      </trkpt>
      <trkpt lat="47.35076" lon="-1.57461">
        <ele>20</ele>
        <time>2024-02-05T10:33:03Z</time>
      </trkpt>
      <trkpt lat="47.35017" lon="-1.57476">
        <ele>28</ele>
        <time>2024-02-05T10:34:22Z</time>
      </trkpt>
      <trkpt lat="47.34991" lon="-1.57495">
        <ele>31</ele>
        <time>2024-02-05T10:35:01Z</time>
      </trkpt>
      <trkpt lat="47.34981" lon="-1.57505">
        <ele>32</ele>
        <time>2024-02-05T10:35:17Z</time>
      </trkpt>
      <trkpt lat="47.34966" lon="-1.57522">
        <ele>34</ele>
        <time>2024-02-05T10:35:43Z</time>
      </trkpt>
      <trkpt lat="47.34932" lon="-1.57569">
        <ele>36</ele>
        <time>2024-02-05T10:36:45Z</time>
      </trkpt>
      <trkpt lat="47.34906" lon="-1.57609">
        <ele>37</ele>
        <time>2024-02-05T10:37:35Z</time>
      </trkpt>
      <trkpt lat="47.34899" lon="-1.57625">
        <ele>37</ele>
        <time>2024-02-05T10:37:52Z</time>
      </trkpt>
      <trkpt lat="47.34859" lon="-1.57686">
        <ele>37</ele>
        <time>2024-02-05T10:39:09Z</time>
      </trkpt>
      <trkpt lat="47.34846" lon="-1.57696">
        <ele>38</ele>
        <time>2024-02-05T10:39:28Z</time>
      </trkpt>
      <trkpt lat="47.34826" lon="-1.5773">
        <ele>39</ele>
        <time>2024-02-05T10:40:09Z</time>
      </trkpt>
      <trkpt lat="47.34805" lon="-1.57757">
        <ele>39</ele>
        <time>2024-02-05T10:40:46Z</time>
      </trkpt>
      <trkpt lat="47.34764" lon="-1.57825">
        <ele>41</ele>
        <time>2024-02-05T10:42:09Z</time>
      </trkpt>
      <trkpt lat="47.34754" lon="-1.57834">
        <ele>42</ele>
        <time>2024-02-05T10:42:24Z</time>
      </trkpt>
      <trkpt lat="47.34726" lon="-1.57879">
        <ele>42</ele>
        <time>2024-02-05T10:43:19Z</time>
      </trkpt>
      <trkpt lat="47.34716" lon="-1.5789">
        <ele>42</ele>
        <time>2024-02-05T10:43:36Z</time>
      </trkpt>
      <trkpt lat="47.34701" lon="-1.57918">
        <ele>41</ele>
        <time>2024-02-05T10:44:08Z</time>
      </trkpt>
      <trkpt lat="47.34655" lon="-1.57977">
        <ele>43</ele>
        <time>2024-02-05T10:45:30Z</time>
      </trkpt>
      <trkpt lat="47.34651" lon="-1.57987">
        <ele>43</ele>
        <time>2024-02-05T10:45:40Z</time>
      </trkpt>
      <trkpt lat="47.34649" lon="-1.57987">
        <ele>43</ele>
        <time>2024-02-05T10:45:43Z</time>
      </trkpt>
      <trkpt lat="47.34638" lon="-1.58027">
        <ele>43</ele>
        <time>2024-02-05T10:46:22Z</time>
      </trkpt>
      <trkpt lat="47.34613" lon="-1.58096">
        <ele>43</ele>
        <time>2024-02-05T10:47:33Z</time>
      </trkpt>
      <trkpt lat="47.34612" lon="-1.58113">
        <ele>44</ele>
        <time>2024-02-05T10:47:48Z</time>
      </trkpt>
      <trkpt lat="47.34615" lon="-1.58119">
        <ele>44</ele>
        <time>2024-02-05T10:47:55Z</time>
      </trkpt>
      <trkpt lat="47.3462" lon="-1.58121">
        <ele>44</ele>
        <time>2024-02-05T10:48:02Z</time>
      </trkpt>
      <trkpt lat="47.34689" lon="-1.58135">
        <ele>42</ele>
        <time>2024-02-05T10:49:35Z</time>
      </trkpt>
      <trkpt lat="47.34695" lon="-1.58139">
        <ele>41</ele>
        <time>2024-02-05T10:49:43Z</time>
      </trkpt>
      <trkpt lat="47.34733" lon="-1.58259">
        <ele>36</ele>
        <time>2024-02-05T10:51:43Z</time>
      </trkpt>
      <trkpt lat="47.34752" lon="-1.5833">
        <ele>35</ele>
        <time>2024-02-05T10:52:52Z</time>
      </trkpt>
      <trkpt lat="47.3476" lon="-1.58352">
        <ele>35</ele>
        <time>2024-02-05T10:53:15Z</time>
      </trkpt>
      <trkpt lat="47.34767" lon="-1.58362">
        <ele>35</ele>
        <time>2024-02-05T10:53:28Z</time>
      </trkpt>
      <trkpt lat="47.34791" lon="-1.58439">
        <ele>33</ele>
        <time>2024-02-05T10:54:44Z</time>
      </trkpt>
      <trkpt lat="47.34801" lon="-1.58453">
        <ele>32</ele>
        <time>2024-02-05T10:55:03Z</time>
      </trkpt>
      <trkpt lat="47.34812" lon="-1.58463">
        <ele>31</ele>
        <time>2024-02-05T10:55:20Z</time>
      </trkpt>
      <trkpt lat="47.34819" lon="-1.58477">
        <ele>31</ele>
        <time>2024-02-05T10:55:36Z</time>
      </trkpt>
      <trkpt lat="47.34832" lon="-1.5849">
        <ele>30</ele>
        <time>2024-02-05T10:55:57Z</time>
      </trkpt>
      <trkpt lat="47.34843" lon="-1.58497">
        <ele>30</ele>
        <time>2024-02-05T10:56:13Z</time>
      </trkpt>
      <trkpt lat="47.3486" lon="-1.58516">
        <ele>30</ele>
        <time>2024-02-05T10:56:41Z</time>
      </trkpt>
      <trkpt lat="47.34863" lon="-1.58524">
        <ele>30</ele>
        <time>2024-02-05T10:56:49Z</time>
      </trkpt>
      <trkpt lat="47.34893" lon="-1.58568">
        <ele>31</ele>
        <time>2024-02-05T10:57:46Z</time>
      </trkpt>
      <trkpt lat="47.34905" lon="-1.58591">
        <ele>31</ele>
        <time>2024-02-05T10:58:12Z</time>
      </trkpt>
      <trkpt lat="47.3492" lon="-1.5861">
        <ele>32</ele>
        <time>2024-02-05T10:58:38Z</time>
      </trkpt>
      <trkpt lat="47.34941" lon="-1.58647">
        <ele>32</ele>
        <time>2024-02-05T10:59:22Z</time>
      </trkpt>
      <trkpt lat="47.34968" lon="-1.58685">
        <ele>33</ele>
        <time>2024-02-05T11:00:12Z</time>
      </trkpt>
      <trkpt lat="47.34981" lon="-1.58708">
        <ele>33</ele>
        <time>2024-02-05T11:00:39Z</time>
      </trkpt>
      <trkpt lat="47.34992" lon="-1.58723">
        <ele>33</ele>
        <time>2024-02-05T11:00:59Z</time>
      </trkpt>
      <trkpt lat="47.35003" lon="-1.58733">
        <ele>33</ele>
        <time>2024-02-05T11:01:16Z</time>
      </trkpt>
      <trkpt lat="47.35011" lon="-1.58735">
        <ele>33</ele>
        <time>2024-02-05T11:01:27Z</time>
      </trkpt>
      <trkpt lat="47.35182" lon="-1.58662">
        <ele>28</ele>
        <time>2024-02-05T11:05:25Z</time>
      </trkpt>
      <trkpt lat="47.35227" lon="-1.58645">
        <ele>27</ele>
        <time>2024-02-05T11:06:27Z</time>
      </trkpt>
      <trkpt lat="47.35272" lon="-1.58622">
        <ele>26</ele>
        <time>2024-02-05T11:07:30Z</time>
      </trkpt>
      <trkpt lat="47.35296" lon="-1.58606">
        <ele>25</ele>
        <time>2024-02-05T11:08:05Z</time>
      </trkpt>
      <trkpt lat="47.35326" lon="-1.58581">
        <ele>24</ele>
        <time>2024-02-05T11:08:51Z</time>
      </trkpt>
      <trkpt lat="47.35343" lon="-1.58566">
        <ele>24</ele>
        <time>2024-02-05T11:09:18Z</time>
      </trkpt>
      <trkpt lat="47.35358" lon="-1.58548">
        <ele>23</ele>
        <time>2024-02-05T11:09:43Z</time>
      </trkpt>
      <trkpt lat="47.3537" lon="-1.58542">
        <ele>22</ele>
        <time>2024-02-05T11:10:00Z</time>
      </trkpt>
      <trkpt lat="47.35393" lon="-1.58523">
        <ele>20</ele>
        <time>2024-02-05T11:10:36Z</time>
      </trkpt>
      <trkpt lat="47.35418" lon="-1.58517">
        <ele>18</ele>
        <time>2024-02-05T11:11:09Z</time>
      </trkpt>
      <trkpt lat="47.35431" lon="-1.58524">
        <ele>18</ele>
        <time>2024-02-05T11:11:28Z</time>
      </trkpt>
      <trkpt lat="47.3546" lon="-1.58558">
        <ele>17</ele>
        <time>2024-02-05T11:12:17Z</time>
      </trkpt>
      <trkpt lat="47.35484" lon="-1.5858">
        <ele>17</ele>
        <time>2024-02-05T11:12:55Z</time>
      </trkpt>
      <trkpt lat="47.35497" lon="-1.58588">
        <ele>17</ele>
        <time>2024-02-05T11:13:14Z</time>
      </trkpt>
      <trkpt lat="47.35628" lon="-1.58646">
        <ele>32</ele>
        <time>2024-02-05T11:16:16Z</time>
      </trkpt>
      <trkpt lat="47.35644" lon="-1.58656">
        <ele>32</ele>
        <time>2024-02-05T11:16:39Z</time>
      </trkpt>
      <trkpt lat="47.35647" lon="-1.58667">
        <ele>33</ele>
        <time>2024-02-05T11:16:50Z</time>
      </trkpt>
      <trkpt lat="47.3564" lon="-1.58699">
        <ele>32</ele>
        <time>2024-02-05T11:17:21Z</time>
      </trkpt>
      <trkpt lat="47.35627" lon="-1.588">
        <ele>32</ele>
        <time>2024-02-05T11:18:53Z</time>
      </trkpt>
      <trkpt lat="47.35632" lon="-1.589">
        <ele>31</ele>
        <time>2024-02-05T11:20:24Z</time>
      </trkpt>
      <trkpt lat="47.35637" lon="-1.58916">
        <ele>31</ele>
        <time>2024-02-05T11:20:40Z</time>
      </trkpt>
      <trkpt lat="47.35653" lon="-1.58948">
        <ele>31</ele>
        <time>2024-02-05T11:21:16Z</time>
      </trkpt>
      <trkpt lat="47.35657" lon="-1.58976">
        <ele>31</ele>
        <time>2024-02-05T11:21:42Z</time>
      </trkpt>
      <trkpt lat="47.35653" lon="-1.59016">
        <ele>31</ele>
        <time>2024-02-05T11:22:18Z</time>
      </trkpt>
      <trkpt lat="47.35647" lon="-1.59042">
        <ele>31</ele>
        <time>2024-02-05T11:22:43Z</time>
      </trkpt>
      <trkpt lat="47.35648" lon="-1.59052">
        <ele>31</ele>
        <time>2024-02-05T11:22:52Z</time>
      </trkpt>
      <trkpt lat="47.35652" lon="-1.5906">
        <ele>31</ele>
        <time>2024-02-05T11:23:01Z</time>
      </trkpt>
      <trkpt lat="47.35722" lon="-1.59119">
        <ele>29</ele>
        <time>2024-02-05T11:24:49Z</time>
      </trkpt>
      <trkpt lat="47.35816" lon="-1.59191">
        <ele>29</ele>
        <time>2024-02-05T11:27:10Z</time>
      </trkpt>
      <trkpt lat="47.35842" lon="-1.59208">
        <ele>29</ele>
        <time>2024-02-05T11:27:48Z</time>
      </trkpt>
      <trkpt lat="47.35866" lon="-1.59229">
        <ele>30</ele>
        <time>2024-02-05T11:28:25Z</time>
      </trkpt>
      <trkpt lat="47.35937" lon="-1.5928">
        <ele>33</ele>
        <time>2024-02-05T11:30:11Z</time>
      </trkpt>
      <trkpt lat="47.35973" lon="-1.59315">
        <ele>35</ele>
        <time>2024-02-05T11:31:08Z</time>
      </trkpt>
      <trkpt lat="47.35987" lon="-1.59333">
        <ele>36</ele>
        <time>2024-02-05T11:31:33Z</time>
      </trkpt>
      <trkpt lat="47.35999" lon="-1.59356">
        <ele>37</ele>
        <time>2024-02-05T11:31:59Z</time>
      </trkpt>
      <trkpt lat="47.36006" lon="-1.59398">
        <ele>38</ele>
        <time>2024-02-05T11:32:38Z</time>
      </trkpt>
      <trkpt lat="47.36018" lon="-1.59432">
        <ele>38</ele>
        <time>2024-02-05T11:33:13Z</time>
      </trkpt>
      <trkpt lat="47.36036" lon="-1.59463">
        <ele>39</ele>
        <time>2024-02-05T11:33:50Z</time>
      </trkpt>
      <trkpt lat="47.3606" lon="-1.59495">
        <ele>41</ele>
        <time>2024-02-05T11:34:33Z</time>
      </trkpt>
      <trkpt lat="47.36079" lon="-1.59532">
        <ele>41</ele>
        <time>2024-02-05T11:35:15Z</time>
      </trkpt>
      <trkpt lat="47.3612" lon="-1.59644">
        <ele>43</ele>
        <time>2024-02-05T11:37:10Z</time>
      </trkpt>
      <trkpt lat="47.36141" lon="-1.59696">
        <ele>43</ele>
        <time>2024-02-05T11:38:05Z</time>
      </trkpt>
      <trkpt lat="47.36155" lon="-1.59723">
        <ele>44</ele>
        <time>2024-02-05T11:38:36Z</time>
      </trkpt>
      <trkpt lat="47.36162" lon="-1.59749">
        <ele>45</ele>
        <time>2024-02-05T11:39:01Z</time>
      </trkpt>
      <trkpt lat="47.36161" lon="-1.59758">
        <ele>45</ele>
        <time>2024-02-05T11:39:09Z</time>
      </trkpt>
      <trkpt lat="47.36151" lon="-1.59782">
        <ele>45</ele>
        <time>2024-02-05T11:39:35Z</time>
      </trkpt>
      <trkpt lat="47.36146" lon="-1.59807">
        <ele>46</ele>
        <time>2024-02-05T11:39:58Z</time>
      </trkpt>
      <trkpt lat="47.36112" lon="-1.59905">
        <ele>48</ele>
        <time>2024-02-05T11:41:38Z</time>
      </trkpt>
      <trkpt lat="47.361" lon="-1.59952">
        <ele>49</ele>
        <time>2024-02-05T11:42:23Z</time>
      </trkpt>
      <trkpt lat="47.361" lon="-1.59972">
        <ele>49</ele>
        <time>2024-02-05T11:42:41Z</time>
      </trkpt>
      <trkpt lat="47.3609" lon="-1.59987">
        <ele>50</ele>
        <time>2024-02-05T11:43:00Z</time>
      </trkpt>
      <trkpt lat="47.36085" lon="-1.60004">
        <ele>50</ele>
        <time>2024-02-05T11:43:17Z</time>
      </trkpt>
      <trkpt lat="47.3609" lon="-1.60087">
        <ele>49</ele>
        <time>2024-02-05T11:44:32Z</time>
      </trkpt>
      <trkpt lat="47.36095" lon="-1.60117">
        <ele>49</ele>
        <time>2024-02-05T11:45:00Z</time>
      </trkpt>
      <trkpt lat="47.36102" lon="-1.6014">
        <ele>49</ele>
        <time>2024-02-05T11:45:23Z</time>
      </trkpt>
      <trkpt lat="47.36108" lon="-1.60142">
        <ele>48</ele>
        <time>2024-02-05T11:45:31Z</time>
      </trkpt>
      <trkpt lat="47.3618" lon="-1.60141">
        <ele>47</ele>
        <time>2024-02-05T11:47:07Z</time>
      </trkpt>
      <trkpt lat="47.36183" lon="-1.60143">
        <ele>47</ele>
        <time>2024-02-05T11:47:12Z</time>
      </trkpt>
      <trkpt lat="47.3619" lon="-1.60279">
        <ele>45</ele>
        <time>2024-02-05T11:49:15Z</time>
      </trkpt>
      <trkpt lat="47.36204" lon="-1.60295">
        <ele>43</ele>
        <time>2024-02-05T11:49:39Z</time>
      </trkpt>
      <trkpt lat="47.3621" lon="-1.60297">
        <ele>43</ele>
        <time>2024-02-05T11:49:47Z</time>
      </trkpt>
      <trkpt lat="47.36243" lon="-1.60297">
        <ele>41</ele>
        <time>2024-02-05T11:50:31Z</time>
      </trkpt>
      <trkpt lat="47.36254" lon="-1.60317">
        <ele>40</ele>
        <time>2024-02-05T11:50:54Z</time>
      </trkpt>
      <trkpt lat="47.36251" lon="-1.60334">
        <ele>40</ele>
        <time>2024-02-05T11:51:10Z</time>
      </trkpt>
      <trkpt lat="47.36258" lon="-1.60388">
        <ele>38</ele>
        <time>2024-02-05T11:52:00Z</time>
      </trkpt>
      <trkpt lat="47.36276" lon="-1.60475">
        <ele>35</ele>
        <time>2024-02-05T11:53:22Z</time>
      </trkpt>
      <trkpt lat="47.36278" lon="-1.60512">
        <ele>34</ele>
        <time>2024-02-05T11:53:56Z</time>
      </trkpt>
      <trkpt lat="47.36283" lon="-1.60517">
        <ele>34</ele>
        <time>2024-02-05T11:54:04Z</time>
      </trkpt>
      <trkpt lat="47.36288" lon="-1.60516">
        <ele>34</ele>
        <time>2024-02-05T11:54:10Z</time>
      </trkpt>
      <trkpt lat="47.36291" lon="-1.60507">
        <ele>34</ele>
        <time>2024-02-05T11:54:19Z</time>
      </trkpt>
      <trkpt lat="47.36293" lon="-1.60491">
        <ele>34</ele>
        <time>2024-02-05T11:54:34Z</time>
      </trkpt>
      <trkpt lat="47.3629" lon="-1.60486">
        <ele>34</ele>
        <time>2024-02-05T11:54:40Z</time>
      </trkpt>
      <trkpt lat="47.36292" lon="-1.60485">
        <ele>34</ele>
        <time>2024-02-05T11:54:43Z</time>
      </trkpt>
    </trkseg>
  </trk>
</gpx>